[[{"header":{"parameterUnit":"m.s-1","parameterCategory":1,"la1":30.6,"la2":29.2853,"lo1":-89.7004,"lo2":-87.6739,"dy":0.0162,"dx":0.0183,"nx":112,"ny":82,"refTime":"2023-07-04T18:00:00:Z","depth":0,"parameterNumber":2,"parameterNumberName":"U-component_of_WINDS"},"data":[0.0,0.0,0.0,0.0,0.0,0.0,0.0,0.0,0.0,0.0,0.0,0.0,0.0,0.0,0.0,0.0,0.0,0.0,0.0,0.0,0.0,0.0,0.0,0.0,0.0,0.0,0.0,0.0,0.0,0.0,0.0,0.0,0.0,0.0,0.0,0.0,0.0,0.0,0.0,0.0,0.0,0.0,0.0,0.0,0.0,0.0,0.0,0.0,0.0,0.0,0.0,0.0,0.0,0.0,0.0,0.0,0.0,0.0,0.0,0.0,0.0,0.0,0.0,0.0,0.0,0.0,0.0,0.0,0.0,0.0,0.0,0.0,0.0,0.0,0.0,0.0,0.0,0.0,0.0,0.0,0.0,0.0,0.0,0.0,0.0,0.0,0.0,0.0,0.0,0.0,0.0,0.5736,0.6186,0.6466,0.6435,0.6462,0.6451,0.6249,0.0,0.0,0.0,0.0,0.0,0.0,0.0,0.0,0.0,0.0,0.0,0.0,0.0,0.0,0.0,0.0,0.0,0.0,0.0,0.0,0.0,0.0,0.0,0.0,0.0,0.0,0.0,0.0,0.0,0.0,0.0,0.0,0.0,0.0,0.0,0.0,0.0,0.0,0.0,0.0,0.0,0.0,0.0,0.0,0.0,0.0,0.0,0.0,0.0,0.0,0.0,0.0,0.0,0.0,0.0,0.0,0.0,0.0,0.0,0.0,0.0,0.0,0.0,0.0,0.0,0.0,0.0,0.0,0.0,0.0,0.0,0.0,0.0,0.0,0.0,0.0,0.0,0.0,0.0,0.0,0.0,0.0,0.0,0.0,0.0,0.0,0.0,0.0,0.0,0.0,0.0,0.0,0.0,0.0,0.0,0.0,0.0,0.0,0.0,0.0,0.0,0.0,0.0,0.0,0.5426,0.5971,0.6504,0.6736,0.656,0.6885,0.6965,0.6699,0.0,0.0,0.0,0.0,0.0,0.0,0.0,0.0,0.0,0.0,0.0,0.0,0.0,0.0,0.0,0.0,0.0,0.0,0.0,0.0,0.0,0.0,0.0,0.0,0.0,0.0,0.0,0.0,0.0,0.0,0.0,0.0,0.0,0.0,0.0,0.0,0.0,0.0,0.0,0.0,0.0,0.0,0.0,0.0,0.0,0.0,0.0,0.0,0.0,0.0,0.0,0.0,0.0,0.0,0.0,0.0,0.0,0.0,0.0,0.0,0.0,0.0,0.0,0.0,0.0,0.0,0.0,0.0,0.0,0.0,0.0,0.0,0.0,0.0,0.0,0.0,0.0,0.0,0.0,0.0,0.0,0.0,0.0,0.0,0.0,0.0,0.0,0.0,0.0,0.0,0.0,0.0,0.0,0.0,0.0,0.0,0.0,0.0,0.0,0.0,0.0,0.0,0.0,0.6111,0.6482,0.6947,0.7212,0.7286,0.7187,0.7335,0.7365,0.7149,0.6778,0.0,0.0,0.0,0.0,0.0,0.0,0.0,0.0,0.0,0.0,0.0,0.0,0.0,0.0,0.0,0.0,0.0,0.0,0.0,0.0,0.0,0.0,0.0,0.0,0.0,0.0,0.0,0.0,0.0,0.0,0.0,0.0,0.0,0.0,0.0,0.0,0.0,0.0,0.0,0.0,0.0,0.0,0.0,0.0,0.0,0.0,0.0,0.0,0.0,0.0,0.0,0.0,0.0,0.0,0.0,0.0,0.0,0.0,0.0,0.0,0.0,0.0,0.0,0.0,0.0,0.0,0.0,0.0,0.0,0.0,0.0,0.0,0.0,0.0,0.0,0.0,0.0,0.0,0.0,0.0,0.0,0.0,0.0,0.0,0.0,0.0,0.0,0.0,0.0,0.0,0.0,0.0,0.0,0.0,0.0,0.0,0.0,0.0,0.0,0.0,0.0,0.0,0.6936,0.7406,0.7643,0.7777,0.7846,0.7797,0.7841,0.7772,0.755,0.7456,0.0,0.0,0.0,0.0,0.0,0.0,0.0,0.0,0.0,0.0,0.0,0.0,0.0,0.0,0.0,0.0,0.0,0.0,0.0,0.0,0.0,0.0,0.0,0.0,0.0,0.0,0.0,0.0,0.0,0.0,0.0,0.0,0.0,0.0,0.0,0.0,0.0,0.0,0.0,0.0,0.0,0.0,0.0,0.0,0.0,0.0,0.0,0.0,0.0,0.0,0.0,0.0,0.0,0.0,0.0,0.0,0.0,0.0,0.0,0.0,0.0,0.0,0.0,0.0,0.0,0.0,0.0,0.0,0.0,0.0,0.0,0.0,0.0,0.0,0.0,0.0,0.0,0.0,0.0,0.0,0.0,0.0,0.0,0.0,0.0,0.0,0.0,0.0,0.0,0.0,0.0,0.0,0.0,0.0,0.0,0.0,0.0,0.0,0.0,0.0,0.0,0.0,0.7032,0.7406,0.7643,0.8038,0.8204,0.8002,0.8169,0.8194,0.7977,0.7759,0.0,0.0,0.0,0.0,0.0,0.0,0.0,0.0,0.0,0.0,0.0,0.0,0.0,0.0,0.0,0.0,0.0,0.0,0.0,0.0,0.0,0.0,0.0,0.0,0.0,0.0,0.0,0.0,0.0,0.0,0.0,0.0,0.0,0.0,0.0,0.0,0.0,0.0,0.0,0.0,0.0,0.0,0.0,0.0,0.0,0.0,0.0,0.0,0.0,0.0,0.0,0.0,0.0,0.0,0.0,0.0,0.0,0.0,0.0,0.0,0.0,0.0,0.0,0.0,0.0,0.0,0.0,0.0,0.0,0.0,0.0,0.0,0.0,0.0,0.0,0.0,0.0,0.0,0.0,0.0,0.0,0.0,0.0,0.0,0.0,0.0,0.0,0.0,0.0,0.0,0.0,0.0,0.0,0.0,0.0,0.0,0.0,0.0,0.0,0.0,0.0,0.0,0.7359,0.7822,0.0,0.8487,0.8544,0.8601,0.8555,0.8487,0.8405,0.0,0.0,0.0,0.0,0.0,0.0,0.0,0.0,0.0,0.0,0.0,0.0,0.0,0.0,0.0,0.0,0.0,0.0,0.0,0.0,0.0,0.0,0.0,0.0,0.0,0.0,0.0,0.0,0.0,0.0,0.0,0.0,0.0,0.0,0.0,0.0,0.0,0.0,0.0,0.0,0.0,0.0,0.0,0.0,0.0,0.0,0.0,0.0,0.0,0.0,0.0,0.0,0.0,0.0,0.0,0.0,0.0,0.0,0.0,0.0,0.0,0.0,0.0,0.0,0.0,0.0,0.0,0.0,0.0,0.0,0.0,0.0,0.0,0.0,0.0,0.0,0.0,0.0,0.0,0.0,0.0,0.0,0.0,0.0,0.0,0.0,0.0,0.0,0.0,0.0,0.0,0.0,0.0,0.0,0.0,0.0,0.0,0.0,0.0,0.0,0.0,0.0,0.7125,0.7644,0.8174,0.0,0.8864,0.8986,0.9066,0.9002,0.8822,0.8675,0.0,0.0,0.0,0.0,0.0,0.0,0.0,0.0,0.0,0.0,0.0,0.0,0.0,0.0,0.0,0.0,0.0,0.0,0.0,0.0,0.0,0.0,0.0,0.0,0.0,0.0,0.0,0.0,0.0,0.0,0.0,0.0,0.0,0.0,0.0,0.0,0.0,0.0,0.0,0.0,0.0,0.0,0.0,0.0,0.0,0.0,0.0,0.0,0.0,0.0,0.0,0.0,0.0,0.0,0.0,0.0,0.0,0.0,0.0,0.0,0.0,0.0,0.0,0.0,0.0,0.0,0.0,0.0,0.0,0.0,0.0,0.0,0.0,0.0,0.0,0.0,0.0,0.0,0.0,0.0,0.0,0.0,0.0,0.0,0.0,0.0,0.0,0.0,0.0,0.0,0.0,0.0,0.0,0.0,0.0,0.0,0.0,0.0,0.0,0.0,0.0,0.0,0.7264,0.7829,0.833,0.8576,0.9227,0.948,0.9233,0.9437,0.9373,0.0,0.0,0.0,0.0,0.0,0.0,0.0,0.0,0.0,0.0,0.0,0.0,0.0,0.0,0.0,0.0,0.0,0.0,0.0,0.0,0.0,0.0,0.0,0.0,0.0,0.0,0.0,0.0,0.0,0.0,0.0,0.0,0.0,0.0,0.0,0.0,0.0,0.0,0.0,0.0,0.0,0.0,0.0,0.0,0.0,0.0,0.0,0.0,0.0,0.0,0.0,0.0,0.0,0.0,0.0,0.0,0.0,0.0,0.0,0.0,0.0,0.0,0.0,0.0,0.0,0.0,0.0,0.0,0.0,0.0,0.0,0.0,0.0,0.0,0.0,0.0,0.0,0.0,0.0,0.0,0.0,0.0,0.0,0.0,0.0,0.0,0.0,0.0,0.0,0.0,0.0,0.0,0.0,0.0,0.0,0.0,0.0,0.0,0.0,0.0,0.0,0.0,0.0,0.0,0.7619,0.8122,0.8796,0.9047,0.917,0.9263,0.9186,0.9145,0.9005,0.0,0.0,0.0,0.0,0.0,0.0,0.0,0.0,0.0,0.0,0.0,0.0,0.0,0.0,0.0,0.0,0.0,0.0,0.0,0.0,0.0,0.0,0.0,0.0,0.0,0.0,0.0,0.0,0.0,0.0,0.0,0.0,0.0,0.0,0.0,0.0,0.0,0.0,0.0,0.0,0.0,0.0,0.0,0.0,0.0,0.0,0.0,0.0,0.0,0.0,0.0,0.0,0.0,0.0,0.0,0.0,0.0,0.0,0.0,0.0,0.0,0.0,0.0,0.0,0.0,0.0,0.0,0.0,0.0,0.0,0.0,0.0,0.0,0.0,0.0,0.0,0.0,0.0,0.0,0.0,0.0,0.0,0.0,0.0,0.0,0.0,0.0,0.0,0.0,0.0,0.0,0.0,0.0,0.0,0.0,0.0,0.0,0.0,0.0,0.0,0.0,0.0,0.6786,0.7353,0.8029,0.8709,0.8911,0.909,0.9311,0.9195,0.9074,0.8983,0.0,0.0,0.0,0.0,0.0,0.0,0.0,0.0,0.0,0.0,0.0,0.0,0.0,0.0,0.0,0.0,0.0,0.0,0.0,0.0,0.0,0.0,0.0,0.0,0.0,0.0,0.0,0.0,0.0,0.0,0.0,0.0,0.0,0.0,0.0,0.0,0.0,0.0,0.0,0.0,0.0,0.0,0.0,0.0,0.0,0.0,0.0,0.0,0.0,0.0,0.0,0.0,0.0,0.0,0.0,0.0,0.0,0.0,0.0,0.0,0.0,0.0,0.0,0.0,0.0,0.0,0.0,0.0,0.0,0.0,0.0,0.0,0.0,0.0,0.0,0.0,0.0,0.0,0.0,0.0,0.0,0.0,0.0,0.0,0.0,0.0,0.0,0.0,0.0,0.0,0.0,0.0,0.0,0.0,0.0,0.0,0.0,0.0,0.0,0.0,0.0,0.0,0.6426,0.7183,0.7897,0.836,0.8694,0.9042,0.9229,0.9229,0.9135,0.898,0.0,0.0,0.0,0.0,0.0,0.0,0.0,0.0,0.0,0.0,0.0,0.0,0.0,0.0,0.0,0.0,0.0,0.0,0.0,0.0,0.0,0.0,0.0,0.0,0.0,0.0,0.0,0.0,0.0,0.0,0.0,0.0,0.0,0.0,0.0,0.0,0.0,0.0,0.0,0.0,0.0,0.0,0.0,0.0,0.0,0.0,0.0,0.0,0.0,0.0,0.0,0.0,0.0,0.0,0.0,0.0,0.0,0.0,0.0,0.0,0.1157,0.0,0.0,0.0,0.0,0.0,0.0,0.0,0.0,0.0,0.0,0.0,0.0,0.0,0.0,0.0,0.0,0.0,0.0,0.0,0.0,0.0,0.0,0.0,0.0,0.0,0.0,0.0,0.0,0.0,0.0,0.0,0.0,0.0,0.0,0.0,0.0,0.0,0.0,0.0,0.0,0.0,0.6572,0.7068,0.7633,0.8362,0.8452,0.862,0.8702,0.8716,0.8706,0.8503,0.0,0.0,0.0,0.0,0.0,0.0,0.0,0.0,0.0,0.0,0.0,0.0,0.0,0.0,0.0,0.0,0.0,0.0,0.0,0.0,0.0,0.0,0.0,0.0,0.0,0.0,0.0,0.0,0.0,0.0,0.0,0.0,0.0,0.0,0.0,0.0,0.0,0.0,0.0,0.0,0.0,0.0,0.0,0.0,0.0,0.0,0.0,0.0,0.0,0.0,0.0,0.0,0.0,0.0,0.0,0.0,0.0,0.0,0.0,0.0,0.0,0.1056,0.0,0.0,0.0,0.0,0.0,0.0,0.0,0.0,0.0,0.0,0.0,0.0,0.0,0.0,0.0,0.0,0.0,0.0,0.0,0.0,0.0,0.0,0.0,0.0,0.0,0.0,0.0,0.0,0.0,0.0,0.0,0.0,0.0,0.0,0.0,0.0,0.0,0.0,0.0,0.0,0.6423,0.6985,0.7643,0.8186,0.8311,0.8405,0.8587,0.8595,0.8552,0.8528,0.8431,0.0,0.0,0.0,0.0,0.0,0.0,0.0,0.0,0.0,0.0,0.0,0.0,0.0,0.0,0.0,0.0,0.0,0.0,0.0,0.0,0.0,0.0,0.0,0.0,0.0,0.0,0.0,0.0,0.0,0.0,0.0,0.0,0.0,0.0,0.0,0.0,0.0,0.0,0.0,0.0,0.0,0.0,0.0,0.0,0.0,0.0,0.0,0.0,0.0,0.0,0.0,0.0,0.0,0.0,0.2816,0.2832,0.2565,0.2458,0.2378,0.1729,0.135,0.1219,0.0,0.0,0.0,0.0,0.0,0.0,0.0,0.0,0.0,0.0,0.0,0.0,0.0,0.0,0.0,0.0,0.0,0.0,0.0,0.0,0.0,0.0,0.0,0.0,0.0,0.6889,0.6868,0.0,0.0,0.0,0.0,0.0,0.0,0.0,0.0,0.0,0.0,0.0,0.0,0.6297,0.6982,0.7667,0.8108,0.8275,0.848,0.8707,0.8711,0.8699,0.8664,0.863,0.838,0.0,0.0,0.0,0.0,0.0,0.0,0.0,0.0,0.0,0.0,0.0,0.0,0.0,0.0,0.0,0.0,0.0,0.0,0.0,0.0,0.0,0.0,0.0,0.0,0.0,0.0,0.0,0.0,0.0,0.0,0.0,0.0,0.3648,0.3581,0.0,0.0,0.0,0.0,0.0,0.0,0.0,0.0,0.0,0.0,0.0,0.0,0.0,0.0,0.3017,0.3044,0.3004,0.2947,0.2969,0.2945,0.2868,0.2663,0.2594,0.2521,0.2135,0.0,0.1776,0.1645,0.0,0.0,0.0,0.0,0.0,0.0,0.0,0.0,0.0,0.0,0.0,0.0,0.0,0.0,0.0,0.0,0.0,0.0,0.0,0.0,0.0,0.0,0.6428,0.6692,0.6909,0.7131,0.0,0.6988,0.6797,0.6561,0.0,0.0,0.0,0.0,0.0,0.0,0.0,0.0,0.6783,0.7206,0.7736,0.8476,0.857,0.8709,0.9021,0.9046,0.8976,0.8812,0.8664,0.8488,0.8279,0.7971,0.0,0.0,0.0,0.0,0.0,0.0,0.0,0.0,0.0,0.0,0.0,0.0,0.0,0.0,0.0,0.0,0.0,0.0,0.0,0.0,0.0,0.0,0.0,0.0,0.0,0.0,0.0,0.0,0.0,0.3705,0.3822,0.3817,0.3831,0.3741,0.0,0.0,0.0,0.0,0.0,0.0,0.0,0.0,0.0,0.3404,0.3519,0.349,0.3242,0.3295,0.3221,0.3081,0.3052,0.2967,0.2814,0.2698,0.2657,0.2612,0.2534,0.2427,0.2293,0.1949,0.1733,0.1688,0.0,0.0,0.0,0.0,0.0,0.374,0.3974,0.0,0.0,0.0,0.0,0.0,0.0,0.0,0.0,0.0,0.0,0.0,0.0,0.0,0.0,0.6399,0.6619,0.6922,0.716,0.7134,0.6999,0.0,0.6656,0.644,0.6295,0.0,0.0,0.0,0.0,0.0,0.6976,0.7489,0.8038,0.8532,0.8747,0.893,0.9084,0.8999,0.887,0.8786,0.8532,0.8328,0.8159,0.7916,0.7788,0.0,0.0,0.0,0.0,0.0,0.0,0.0,0.0,0.0,0.0,0.0,0.0,0.0,0.0,0.0,0.0,0.0,0.0,0.0,0.0,0.0,0.0,0.0,0.0,0.0,0.0,0.0,0.0,0.386,0.3965,0.4114,0.4062,0.403,0.0,0.0,0.0,0.0,0.0,0.0,0.3987,0.408,0.3999,0.3727,0.3877,0.3772,0.3539,0.3461,0.3366,0.3257,0.3086,0.2907,0.2638,0.2604,0.2483,0.2523,0.2523,0.2523,0.251,0.2187,0.2016,0.197,0.2335,0.2657,0.3011,0.3362,0.399,0.461,0.4682,0.5259,0.5878,0.5738,0.0,0.58,0.5405,0.0,0.0,0.0,0.0,0.5045,0.5081,0.0,0.5861,0.5931,0.6214,0.6515,0.6917,0.7065,0.7142,0.0,0.7046,0.6965,0.6802,0.0,0.0,0.0,0.0,0.7076,0.7191,0.7771,0.8213,0.8485,0.8818,0.8993,0.8942,0.8843,0.8744,0.8744,0.8517,0.8348,0.814,0.7974,0.7878,0.7849,0.0,0.0,0.0,0.0,0.0,0.0,0.0,0.0,0.0,0.0,0.0,0.0,0.0,0.0,0.0,0.0,0.0,0.0,0.0,0.0,0.0,0.0,0.0,0.0,0.0,0.0,0.0,0.0,0.0,0.4477,0.4568,0.0,0.0,0.0,0.0,0.4477,0.4146,0.414,0.4566,0.4411,0.4259,0.4046,0.4063,0.4015,0.3818,0.3511,0.3434,0.342,0.3095,0.2765,0.2347,0.2349,0.2184,0.2018,0.2018,0.2018,0.2102,0.2511,0.2638,0.2583,0.2826,0.3182,0.3501,0.3893,0.4511,0.5123,0.544,0.5996,0.651,0.6507,0.6188,0.5765,0.5326,0.498,0.0,0.0,0.4513,0.454,0.4402,0.4603,0.4831,0.5124,0.5613,0.6097,0.6321,0.6629,0.7006,0.0,0.7632,0.7457,0.7457,0.0,0.7095,0.7095,0.7285,0.7521,0.7663,0.7887,0.8022,0.8221,0.8468,0.8542,0.8495,0.8704,0.8799,0.8799,0.8661,0.8575,0.8568,0.8404,0.8162,0.7845,0.7986,0.0,0.0,0.0,0.0,0.0,0.0,0.0,0.0,0.0,0.0,0.0,0.0,0.0,0.0,0.0,0.0,0.0,0.0,0.0,0.0,0.0,0.0,0.0,0.0,0.0,0.0,0.0,0.0,0.4592,0.4745,0.0,0.0,0.459,0.4569,0.4535,0.431,0.4259,0.4464,0.4339,0.4122,0.3817,0.3938,0.3873,0.3444,0.336,0.3307,0.3112,0.286,0.2628,0.232,0.2233,0.2165,0.2107,0.2136,0.215,0.2152,0.2272,0.2399,0.2547,0.2886,0.3491,0.4108,0.4706,0.5384,0.5975,0.6235,0.6695,0.7079,0.6738,0.6046,0.5339,0.4974,0.4522,0.4105,0.3938,0.3853,0.3705,0.3701,0.3936,0.4168,0.432,0.486,0.5428,0.5726,0.617,0.6585,0.6855,0.7001,0.7069,0.7069,0.6974,0.6879,0.6879,0.6974,0.7118,0.7155,0.735,0.7482,0.7575,0.7691,0.7811,0.7759,0.7782,0.7733,0.7733,0.7888,0.7963,0.7963,0.8007,0.797,0.8052,0.7836,0.7767,0.0,0.0,0.0,0.0,0.0,0.0,0.0,0.0,0.0,0.0,0.0,0.0,0.0,0.0,0.0,0.0,0.0,0.0,0.0,0.0,0.0,0.0,0.0,0.0,0.0,0.0,0.4616,0.476,0.4852,0.4832,0.4623,0.4669,0.4668,0.4622,0.4303,0.4206,0.4352,0.4194,0.3944,0.3691,0.3723,0.3626,0.3227,0.3082,0.2934,0.287,0.2628,0.2392,0.2244,0.2065,0.199,0.1926,0.1953,0.1964,0.1966,0.1992,0.2151,0.2447,0.2967,0.3707,0.4483,0.5211,0.5935,0.6569,0.7024,0.7299,0.7299,0.6847,0.6028,0.5106,0.4678,0.4036,0.3588,0.3408,0.3229,0.3148,0.3012,0.3142,0.3357,0.3452,0.3978,0.4538,0.492,0.5464,0.581,0.5879,0.6339,0.6798,0.6746,0.6751,0.6669,0.6611,0.6617,0.6648,0.6526,0.6505,0.6484,0.6455,0.6564,0.6546,0.6511,0.6642,0.6782,0.6939,0.7141,0.7344,0.7444,0.7546,0.767,0.7918,0.7703,0.7731,0.8025,0.0,0.0,0.0,0.0,0.0,0.0,0.0,0.0,0.0,0.0,0.0,0.0,0.0,0.0,0.0,0.0,0.0,0.0,0.0,0.0,0.0,0.0,0.0,0.4519,0.4606,0.476,0.4861,0.495,0.4886,0.4674,0.4805,0.4806,0.4589,0.4232,0.4029,0.4226,0.3849,0.3614,0.3528,0.3367,0.3235,0.3044,0.258,0.2451,0.259,0.2363,0.2099,0.1908,0.1908,0.1717,0.1526,0.1527,0.1528,0.1528,0.1528,0.1835,0.2449,0.3171,0.3912,0.4674,0.5429,0.6186,0.6948,0.7701,0.7604,0.713,0.6853,0.6094,0.5147,0.4288,0.3718,0.3339,0.2957,0.2861,0.2673,0.22,0.2104,0.2197,0.2485,0.3102,0.3654,0.3924,0.4404,0.4872,0.4872,0.5821,0.6693,0.66,0.6519,0.6455,0.625,0.6265,0.0,0.585,0.5532,0.5318,0.4998,0.489,0.4857,0.4882,0.5283,0.5853,0.6348,0.6642,0.6842,0.7138,0.7135,0.7273,0.7333,0.7619,0.7753,0.7768,0.0,0.0,0.0,0.0,0.0,0.0,0.0,0.0,0.0,0.0,0.0,0.0,0.0,0.0,0.0,0.0,0.0,0.0,0.0,0.0,0.0,0.0,0.4356,0.4463,0.475,0.4942,0.4954,0.4977,0.4779,0.4454,0.4345,0.422,0.3989,0.3591,0.3434,0.3538,0.3185,0.2892,0.2755,0.2749,0.2712,0.2456,0.2322,0.2259,0.227,0.2093,0.1908,0.1908,0.1717,0.1526,0.1528,0.1549,0.1559,0.1561,0.1583,0.1895,0.2498,0.304,0.3826,0.4862,0.5844,0.6831,0.772,0.7916,0.7619,0.7128,0.6634,0.5748,0.4751,0.3908,0.3312,0.2729,0.2339,0.1476,0.0698,0.0607,0.0717,0.093,0.1344,0.1972,0.2713,0.3252,0.3581,0.3803,0.3803,0.4525,0.5124,0.5287,0.5233,0.5179,0.5098,0.521,0.0,0.4876,0.4994,0.4798,0.4082,0.3932,0.3787,0.3554,0.3995,0.4545,0.0,0.5576,0.6037,0.6342,0.6539,0.6679,0.6846,0.7059,0.7185,0.0,0.0,0.0,0.0,0.0,0.0,0.0,0.0,0.0,0.0,0.0,0.0,0.0,0.0,0.0,0.0,0.0,0.0,0.0,0.0,0.0,0.0,0.4367,0.436,0.4477,0.4753,0.4864,0.484,0.4828,0.4675,0.4122,0.3917,0.37,0.3467,0.3025,0.2828,0.2893,0.2589,0.2455,0.2499,0.2466,0.2415,0.2436,0.2294,0.2221,0.2125,0.2045,0.1857,0.176,0.1564,0.1564,0.0,0.1583,0.1598,0.1611,0.1729,0.2154,0.0,0.0,0.0,0.0,0.0,0.7488,0.8038,0.8038,0.7637,0.7138,0.6537,0.5665,0.4474,0.3626,0.293,0.2238,0.1322,0.0513,-0.0207,-0.0733,-0.0846,-0.0745,0.0106,0.0532,0.096,0.1828,0.2045,0.2152,0.226,0.0,0.0,0.3187,0.3846,0.4423,0.4237,0.4242,0.415,0.3421,0.3538,0.344,0.2912,0.2667,0.2533,0.2295,0.3002,0.0,0.0,0.0,0.5381,0.5644,0.5939,0.0,0.0,0.0,0.6573,0.6623,0.0,0.0,0.0,0.6666,0.6617,0.0,0.0,0.0,0.0,0.0,0.0,0.0,0.0,0.0,0.0,0.0,0.0,0.0,0.0,0.0,0.0,0.4287,0.4392,0.4433,0.4577,0.4657,0.4576,0.4643,0.4456,0.3771,0.3546,0.3302,0.3036,0.2545,0.2403,0.2449,0.0,0.0,0.0,0.0,0.2349,0.2676,0.2533,0.2365,0.2076,0.2112,0.1926,0.1622,0.1622,0.162,0.1617,0.162,0.1637,0.1766,0.1976,0.2521,0.3187,0.3699,0.4606,0.5911,0.7358,0.7998,0.0,0.0,0.0,0.0,0.6578,0.5528,0.4361,0.3533,0.2734,0.1811,0.0319,-0.0213,-0.0642,-0.1605,-0.225,-0.236,-0.1182,-0.118,-0.1184,-0.0219,0.011,0.0219,0.0439,0.0555,0.067,0.066,0.2411,0.3636,0.3243,0.325,0.2802,0.1795,0.1683,0.1683,0.1795,0.0,0.0,0.1318,0.2297,0.3127,0.3552,0.4361,0.4934,0.5058,0.5242,0.5441,0.5452,0.5563,0.5718,0.6031,0.5927,0.5878,0.5867,0.6317,0.6474,0.0,0.0,0.0,0.0,0.0,0.0,0.0,0.0,0.0,0.0,0.0,0.0,0.0,0.0,0.0,0.3711,0.3652,0.3688,0.4004,0.3962,0.4098,0.4502,0.429,0.3932,0.3547,0.3348,0.3092,0.2851,0.2677,0.2552,0.2562,0.2416,0.0,0.2371,0.2406,0.2526,0.2732,0.2783,0.2731,0.2772,0.0,0.0,0.196,0.1755,0.164,0.1618,0.1643,0.1656,0.1768,0.2003,0.2868,0.4151,0.5172,0.6113,0.697,0.7814,0.8216,0.8394,0.8086,0.7777,0.736,0.6312,0.538,0.4445,0.3603,0.2337,0.0,0.0213,-0.0969,-0.1959,-0.2178,-0.253,-0.2565,-0.2261,-0.2133,-0.2345,-0.2726,-0.2029,-0.134,-0.134,-0.1007,-0.0672,-0.0335,0.0446,0.1117,0.1009,0.0785,0.0785,0.1009,0.0673,0.0673,0.1683,0.1683,0.1681,0.1675,0.2094,0.2616,0.3137,0.3791,0.4243,0.4332,0.4063,0.4159,0.4431,0.421,0.4336,0.4922,0.4904,0.5,0.5201,0.5995,0.6534,0.0,0.0,0.0,0.0,0.0,0.0,0.0,0.0,0.0,0.0,0.0,0.2978,0.0,0.0,0.2911,0.3132,0.311,0.3081,0.3278,0.3202,0.3396,0.3993,0.391,0.365,0.3355,0.3086,0.2807,0.2689,0.2472,0.2418,0.2444,0.2466,0.2586,0.2709,0.2929,0.3153,0.3381,0.3413,0.3361,0.3318,0.3008,0.2711,0.2313,0.2104,0.1885,0.1663,0.1364,0.1375,0.1708,0.2389,0.3387,0.4479,0.5673,0.658,0.7331,0.7934,0.8233,0.8272,0.8065,0.7644,0.7015,0.6059,0.5243,0.4315,0.2915,0.1629,0.0328,-0.0438,-0.1541,-0.2437,-0.2549,-0.2581,-0.262,-0.2412,-0.253,-0.2651,-0.2674,-0.2545,-0.2299,-0.207,-0.207,-0.1954,-0.1838,-0.1494,-0.1143,-0.0787,-0.0785,-0.0785,-0.0449,0.0112,0.0673,0.1234,0.157,0.1795,0.1795,0.2209,0.2733,0.3387,0.3731,0.3992,0.3992,0.3644,0.3539,0.378,0.3467,0.3481,0.3936,0.415,0.4256,0.4466,0.5328,0.6009,0.0,0.0,0.0,0.0,0.0,0.0,0.0,0.0,0.1381,0.1763,0.2157,0.2447,0.2514,0.2244,0.2164,0.2432,0.2544,0.2549,0.2561,0.2482,0.2713,0.3233,0.3308,0.3236,0.3033,0.2714,0.2591,0.2494,0.2425,0.2358,0.2397,0.2597,0.2912,0.3155,0.3454,0.3684,0.4055,0.4039,0.3977,0.3958,0.3532,0.3137,0.265,0.234,0.1915,0.1487,0.1069,0.119,0.176,0.2675,0.3586,0.448,0.5594,0.6488,0.7091,0.7954,0.8142,0.7937,0.7827,0.7292,0.6442,0.5585,0.4775,0.3736,0.2087,0.0665,-0.0449,-0.1234,-0.2019,-0.258,-0.2692,-0.2841,-0.2763,-0.2425,-0.2567,-0.271,-0.2129,-0.2479,-0.2826,-0.2593,-0.2827,-0.3061,-0.2943,-0.2943,-0.2801,-0.216,-0.1926,-0.1926,-0.1812,-0.0565,0.0564,0.0902,0.1461,0.1795,0.1795,0.2328,0.2968,0.3626,0.3674,0.3746,0.3639,0.3413,0.3199,0.321,0.2892,0.2788,0.3011,0.3334,0.3549,0.3656,0.4409,0.5208,-0.1879,-0.1816,-0.1673,-0.1384,-0.1279,-0.1122,0.0,0.0,0.0065,0.0204,0.0484,0.077,0.1151,0.1202,0.1398,0.1714,0.1945,0.2017,0.2057,0.2072,0.2093,0.2044,0.2365,0.2514,0.252,0.234,0.2211,0.2221,0.2486,0.2634,0.264,0.2981,0.3112,0.3219,0.3221,0.3553,0.4135,0.4067,0.4206,0.4559,0.3967,0.3425,0.2811,0.2115,0.1479,0.0939,0.0861,0.1211,0.179,0.2466,0.3253,0.4148,0.4817,0.5584,0.6561,0.7686,0.7904,0.7564,0.7008,0.645,0.5782,0.5129,0.3794,0.2234,0.1342,-0.0,-0.1346,-0.202,-0.2691,-0.3026,-0.3026,-0.3064,-0.3114,-0.2808,-0.2821,-0.2717,-0.2397,-0.2854,-0.3179,-0.3179,-0.3416,-0.3651,-0.3297,-0.3297,-0.3175,-0.2812,-0.2578,-0.2227,-0.1876,-0.162,-0.0917,0.0688,0.1471,0.1795,0.1795,0.2353,0.2686,0.2797,0.3301,0.3379,0.3164,0.2901,0.2576,0.2398,0.2072,0.1868,0.2007,0.2007,0.2453,0.3232,0.3567,0.438,-0.2436,-0.2274,0.0,0.0,-0.2038,-0.1812,-0.1438,-0.1248,-0.1187,-0.1142,-0.0798,-0.0517,-0.0379,-0.0078,0.0242,0.0,0.0672,0.0773,0.0867,0.0878,0.0799,0.0806,0.089,0.1328,0.2303,0.2366,0.2326,0.2166,0.232,0.2466,0.2691,0.2814,0.2927,0.2927,0.313,0.3443,0.3875,0.3844,0.3984,0.4402,0.3951,0.3441,0.2952,0.2442,0.1601,0.0322,0.033,0.0891,0.1795,0.2356,0.2917,0.3586,0.4369,0.5039,0.5596,0.6824,0.7046,0.6821,0.6374,0.5929,0.5262,0.381,0.269,0.1681,0.0112,-0.1121,-0.2131,-0.2915,-0.3138,-0.3138,-0.3587,-0.3314,-0.2918,-0.282,-0.2508,-0.2304,-0.244,-0.2796,-0.3147,-0.3389,-0.3632,-0.3875,-0.3632,-0.3632,-0.3511,-0.3268,-0.2743,-0.2357,-0.224,-0.164,-0.0581,0.1266,0.16,0.1814,0.2021,0.2244,0.2469,0.2693,0.3008,0.3106,0.2888,0.2758,0.2535,0.2331,0.1998,0.1671,0.1458,0.1683,0.2132,0.2917,0.3363,0.4004,-0.3044,0.0,0.0,-0.296,-0.2734,-0.2507,-0.2332,-0.221,-0.2068,-0.2082,-0.1738,-0.1465,-0.1421,-0.1131,0.0,-0.0931,-0.0778,-0.0613,-0.0613,-0.0622,-0.0538,-0.0448,-0.0359,0.009,0.1345,0.1655,0.169,0.1619,0.166,0.1891,0.2219,0.2321,0.2522,0.2724,0.2927,0.3034,0.3251,0.3335,0.3562,0.3938,0.361,0.3213,0.2835,0.2322,0.1282,-0.0,-0.0,0.0557,0.156,0.2128,0.2691,0.3138,0.4033,0.4482,0.4707,0.5599,0.5931,0.5817,0.5594,0.5152,0.4372,0.2464,0.1457,0.0673,-0.1121,-0.2019,-0.2691,-0.3363,-0.3475,-0.3474,-0.3924,-0.3562,-0.3061,-0.2825,-0.2414,-0.2222,-0.2467,-0.2714,-0.3085,-0.3455,-0.3703,-0.3828,-0.3826,-0.3826,-0.3703,-0.3455,-0.2786,-0.2507,-0.2627,-0.1427,-0.0,0.1624,0.1845,0.1832,0.2036,0.2138,0.2356,0.2581,0.2803,0.2915,0.2581,0.2581,0.2469,0.2244,0.1795,0.1458,0.1121,0.157,0.2132,0.2693,0.3141,0.3589,0.0,0.0,-0.3834,-0.37,-0.3559,-0.3433,-0.3375,-0.2868,-0.2433,-0.2493,-0.2195,-0.1897,-0.1778,-0.182,-0.1946,-0.2076,-0.2122,-0.2152,-0.2152,-0.2153,-0.1974,-0.1436,-0.1345,-0.1256,0.0,-0.0279,0.0095,0.0095,0.0296,0.0707,0.1111,0.1413,0.1916,0.2422,0.2422,0.2442,0.2487,0.2648,0.2953,0.3418,0.3054,0.2727,0.2427,0.134,0.0525,-0.0,-0.0,0.0329,0.0986,0.2006,0.2691,0.3138,0.3813,0.4038,0.4038,0.4036,0.4258,0.4592,0.4711,0.4041,0.2806,0.1458,-0.0,-0.1234,-0.2132,-0.2691,-0.3138,-0.3475,-0.3813,-0.3924,-0.4038,-0.3793,-0.3533,-0.2943,-0.2653,-0.2467,-0.2467,-0.2714,-0.3085,-0.3455,-0.3703,-0.3826,-0.358,-0.3455,-0.3455,-0.3085,-0.2835,-0.271,-0.2957,-0.1216,0.0479,0.1887,0.1858,0.184,0.1839,0.2039,0.2244,0.2244,0.2581,0.2581,0.2244,0.2244,0.2132,0.1795,0.1234,0.0897,0.0897,0.1458,0.2132,0.2693,0.2693,0.3029,0.0,0.0,-0.3949,-0.416,-0.4001,-0.3755,-0.3695,-0.3407,-0.3027,-0.2741,-0.2511,-0.2214,-0.2103,-0.1963,-0.1914,-0.2073,-0.2099,-0.2119,-0.215,-0.2243,-0.2154,-0.1974,-0.1974,0.0,0.0,0.0,0.0,-0.1526,-0.1187,-0.0808,-0.0404,-0.0,0.0404,0.0808,0.0808,0.1013,0.1529,0.1621,0.1924,0.2646,0.2329,0.2223,0.2224,0.1236,0.0521,-0.0,-0.0,0.0325,0.0984,0.1651,0.222,0.2579,0.2918,0.3254,0.3367,0.3367,0.3366,0.3365,0.3591,0.2692,0.1458,0.0224,-0.1009,-0.2131,-0.2691,-0.3138,-0.3586,-0.4033,-0.4257,-0.4369,-0.4369,-0.3905,-0.3297,-0.2943,-0.2534,-0.2222,-0.2467,-0.259,-0.2714,-0.3085,-0.3209,-0.3332,-0.3208,-0.3208,-0.3085,-0.2837,-0.2837,-0.2715,-0.2346,-0.0983,0.0122,0.06,0.143,0.1884,0.1844,0.1831,0.193,0.1909,0.2244,0.2244,0.1908,0.2132,0.202,0.1795,0.1234,0.0897,0.0897,0.1907,0.2469,0.2693,0.2915,0.3139,-0.4314,-0.4255,-0.4277,-0.4569,-0.441,-0.4153,-0.4139,-0.3841,-0.3526,-0.3215,-0.2902,-0.2688,-0.259,-0.2439,-0.2386,-0.2476,-0.2506,-0.2444,-0.2479,-0.25,-0.2424,-0.2424,-0.2424,0.0,0.0,0.0,0.0,-0.2291,-0.2076,-0.1817,-0.1515,-0.1111,-0.0808,-0.0606,-0.0606,-0.0303,0.0101,0.0505,0.1111,0.2019,0.192,0.1921,0.1921,0.133,0.072,-0.0,-0.0,0.0213,0.065,0.1418,0.1878,0.2132,0.2581,0.2807,0.2919,0.2693,0.2469,0.2356,0.2244,0.157,0.0336,-0.0897,-0.1907,-0.2693,-0.3139,-0.3475,-0.3811,-0.4369,-0.448,-0.448,-0.4257,-0.3774,-0.3273,-0.2822,-0.2404,-0.2208,-0.2341,-0.2343,-0.2467,-0.2961,-0.2961,-0.2961,-0.2838,-0.2715,-0.2592,-0.2468,-0.2592,-0.2469,-0.2099,-0.0864,-0.0,-0.0,0.0726,0.1433,0.1861,0.1847,0.1827,0.1797,0.1908,0.202,0.1795,0.202,0.202,0.1795,0.1458,0.1121,0.0897,0.202,0.2581,0.2693,0.3027,0.325,-0.4485,-0.4656,-0.4836,-0.4841,-0.4775,-0.4701,-0.4701,-0.4231,-0.3841,-0.3841,-0.3452,-0.3163,0.0,0.0,-0.319,-0.326,-0.3161,-0.312,-0.3125,-0.3011,-0.2875,0.0,0.0,0.0,0.0,0.0,0.0,-0.2388,0.0,-0.2321,-0.2219,-0.1817,-0.1617,-0.1617,-0.1617,-0.1617,-0.1617,-0.0505,0.0505,0.1516,0.1516,0.1516,0.1516,0.1516,0.101,-0.0,-0.0,-0.0,0.0107,0.1193,0.1765,0.1793,0.2355,0.2581,0.2581,0.202,0.1795,0.1683,0.1009,0.0449,-0.0336,-0.1908,-0.2693,-0.303,-0.3477,-0.3813,-0.4036,-0.4369,-0.448,-0.4369,-0.3811,-0.3635,-0.3467,-0.2701,-0.2508,-0.2426,-0.2091,-0.1973,-0.222,-0.2838,-0.2961,-0.2838,-0.259,-0.2222,-0.1853,-0.1977,-0.1977,-0.1977,-0.1853,-0.0741,-0.0,-0.0,-0.0,0.048,0.177,0.1857,0.1713,0.1797,0.1795,0.1795,0.1795,0.1795,0.1795,0.1683,0.1795,0.1458,0.0897,0.1907,0.2469,0.2693,0.3027,0.325,-0.4692,-0.4787,-0.4857,-0.4947,-0.4836,-0.4701,-0.4701,-0.4465,-0.4231,-0.4077,-0.3843,-0.3614,0.0,0.0,0.0,-0.3024,-0.301,0.0,-0.2862,-0.2924,0.0,0.0,0.0,-0.2891,-0.2933,-0.3006,0.0,0.0,-0.2789,-0.2724,-0.2623,-0.2322,-0.212,-0.1921,-0.1921,-0.1819,-0.1617,-0.0808,-0.0101,0.0404,0.0404,0.0404,0.0404,0.0808,0.0808,0.0606,0.0203,-0.0,-0.0,0.032,0.0759,0.1102,0.134,0.1683,0.202,0.1907,0.1795,0.157,0.0112,-0.1121,-0.2132,-0.2693,-0.2917,-0.3138,-0.3475,-0.3923,-0.4369,-0.4148,-0.4482,-0.4594,-0.3811,-0.3436,-0.3163,-0.2591,-0.2288,-0.2089,-0.1603,-0.1729,-0.2099,-0.2223,-0.2223,-0.2099,-0.1481,-0.0864,-0.0741,-0.1235,-0.1729,-0.1606,-0.0617,-0.0247,-0.0,-0.0,-0.0,0.012,0.0472,0.0929,0.1142,0.1123,0.157,0.1795,0.1795,0.1346,0.0897,0.0449,0.1346,0.1458,0.0673,0.157,0.2244,0.2693,0.3027,0.3137,-0.4795,-0.4874,-0.4931,-0.4999,-0.4937,-0.4859,-0.4859,-0.4698,-0.4465,-0.4389,-0.4121,0.0,0.0,0.0,0.0,0.0,0.0,0.0,-0.3079,-0.3169,-0.3142,0.0,-0.3141,0.0,-0.3138,-0.3202,-0.3171,0.0,-0.2996,-0.2927,-0.2927,-0.2725,-0.2423,-0.2222,-0.2021,-0.192,-0.1617,-0.1212,-0.0909,-0.0707,-0.0505,-0.0505,-0.0707,-0.0404,-0.0101,0.0101,0.0,-0.0,-0.0,-0.0,0.0216,0.0548,0.0557,0.0673,0.1009,0.1009,0.1009,0.0785,-0.0449,-0.157,-0.2356,-0.2693,-0.3029,-0.3138,-0.3587,-0.4035,-0.4258,-0.4036,-0.426,-0.4267,-0.3395,-0.3105,-0.2808,-0.2374,-0.1811,-0.1592,-0.1603,-0.1853,-0.1973,-0.1959,-0.1967,-0.1726,-0.0734,0.0246,0.0741,0.037,-0.0494,-0.0864,-0.0123,-0.0,-0.0,-0.0,-0.0,-0.0,-0.0,0.0348,0.0571,0.0561,0.0785,0.1009,0.1009,0.0673,0.0224,-0.0336,0.0561,0.0785,0.0336,0.1346,0.202,0.2356,0.2691,0.2915,-0.4855,-0.4936,-0.5018,-0.5018,-0.5018,-0.5018,-0.5018,-0.4846,-0.4678,-0.4678,0.0,-0.4242,-0.4327,0.0,-0.396,-0.4044,0.0,-0.3613,-0.336,-0.3491,-0.3497,-0.3317,-0.3497,-0.353,-0.3336,-0.3397,-0.3367,-0.3147,-0.32,-0.323,-0.323,-0.3027,-0.2725,-0.2422,-0.2122,-0.192,-0.1617,-0.1617,-0.1617,-0.1617,-0.1111,-0.1111,-0.1617,-0.1617,-0.1314,-0.0909,0.0,0.0,-0.0208,-0.0212,-0.0216,-0.011,-0.0111,-0.0112,-0.0,-0.0,-0.0,-0.0112,-0.0673,-0.1346,-0.1907,-0.2469,-0.2805,-0.3138,-0.3699,-0.3924,-0.3924,-0.3924,-0.3932,-0.3839,-0.2981,-0.2771,-0.2566,-0.2039,-0.145,-0.1093,-0.1601,-0.185,-0.1839,-0.1931,-0.1947,-0.1589,-0.0362,0.1095,0.1964,0.1964,0.0982,0.0246,-0.0,-0.0,-0.0,-0.0,-0.0,-0.0,-0.0,-0.0,-0.0,-0.0,-0.0112,-0.0224,-0.0224,-0.0224,-0.0449,-0.1009,-0.0561,-0.0224,-0.0112,0.1121,0.1683,0.1795,0.2356,0.2581,-0.4958,-0.4999,-0.5018,-0.5018,-0.5018,-0.5018,-0.5018,-0.486,0.0,0.0,0.0,-0.4259,-0.4276,-0.4189,0.0,-0.3724,0.0,0.0,0.0,0.0,-0.3587,0.0,0.0,0.0,0.0,0.0,0.0,0.0,0.0,0.0,-0.323,-0.313,-0.2927,-0.2422,-0.2122,-0.192,-0.1617,-0.1617,-0.1617,-0.1617,-0.1516,-0.1516,-0.1617,-0.1617,-0.1516,-0.1415,0.0,0.0,-0.1457,-0.1483,-0.1185,-0.0767,-0.078,-0.0449,-0.0,-0.0,-0.0,-0.0112,-0.0673,-0.1346,-0.1907,-0.2132,-0.2468,-0.2805,-0.3139,-0.3474,-0.3699,-0.3699,-0.3852,-0.3895,-0.2989,-0.2816,-0.2755,-0.2049,-0.1462,-0.0862,-0.0494,-0.0733,-0.1327,-0.1899,-0.2017,-0.1781,-0.0947,0.0711,0.2021,0.2021,0.1782,0.1194,0.0121,-0.0,-0.0,-0.0,-0.0,-0.0,-0.0,-0.0,-0.0,-0.0,-0.0897,-0.1458,-0.1458,-0.1458,-0.157,-0.1683,-0.157,-0.1121,-0.0449,0.0336,0.1121,0.1795,0.2132,0.2244,-0.5002,-0.5018,-0.5018,-0.5018,-0.5018,-0.4999,-0.4936,0.0,0.0,0.0,0.0,-0.4438,-0.4499,0.0,0.0,0.0,0.0,0.0,0.0,0.0,0.0,0.0,0.0,0.0,0.0,0.0,0.0,0.0,0.0,0.0,-0.323,-0.2927,-0.2635,-0.2456,-0.205,-0.175,-0.1662,-0.1662,-0.1662,-0.1662,-0.1662,-0.1662,-0.1662,-0.1664,-0.1664,-0.1664,-0.1664,0.0,-0.1794,-0.1825,-0.1629,-0.1314,-0.1337,-0.1234,-0.0897,-0.0561,-0.0224,-0.0112,-0.1009,-0.157,-0.1795,-0.157,-0.202,-0.258,-0.2691,-0.3027,-0.3369,-0.3398,-0.3541,-0.3462,-0.2935,-0.2743,-0.2539,-0.2073,-0.1228,-0.037,-0.0122,-0.0243,-0.0599,-0.0935,-0.1523,-0.1646,-0.0699,0.0351,0.1178,0.1886,0.2004,0.1536,0.0119,-0.0,-0.0,-0.0,-0.0,-0.0241,-0.0955,-0.0933,-0.0802,-0.0455,-0.1014,-0.157,-0.2132,-0.2132,-0.2132,-0.202,-0.1907,-0.157,-0.1234,-0.0,0.1009,0.1795,0.1908,0.201,-0.5054,-0.4996,-0.5018,-0.5018,-0.4996,-0.4953,-0.4857,-0.4792,0.0,0.0,-0.4588,-0.453,-0.47,0.0,0.0,0.0,0.0,0.0,0.0,0.0,0.0,0.0,0.0,0.0,0.0,0.0,0.0,0.0,0.0,0.0,0.0,-0.2735,-0.2452,-0.2384,-0.198,-0.1787,-0.1704,-0.1704,-0.1704,-0.1704,-0.1704,-0.1704,-0.1704,-0.1706,-0.16,-0.16,-0.16,0.0,0.0,-0.174,-0.1753,-0.1762,-0.1785,-0.1795,-0.1795,-0.1234,-0.0785,-0.0449,-0.1121,-0.1458,-0.1346,-0.1121,-0.157,-0.2132,-0.2244,-0.2579,-0.2924,-0.3088,-0.311,-0.3023,-0.2872,-0.266,-0.2433,-0.2094,-0.0988,-0.0,-0.0,-0.0,-0.0,-0.0,-0.0812,-0.1284,-0.023,-0.0,0.0353,0.1414,0.1528,0.1174,0.0118,-0.0235,-0.0355,-0.0366,-0.0363,-0.0839,-0.1912,-0.1868,-0.1722,-0.1258,-0.1243,-0.157,-0.2469,-0.2469,-0.2357,-0.2244,-0.202,-0.1907,-0.1795,-0.0224,0.0897,0.1795,0.1795,0.1782,-0.5069,-0.5081,-0.5018,-0.5018,-0.4934,-0.4849,-0.4836,0.0,0.0,-0.4702,-0.4668,-0.4648,-0.4797,-0.4683,0.0,0.0,0.0,0.0,0.0,0.0,0.0,0.0,0.0,0.0,0.0,0.0,0.0,0.0,0.0,0.0,0.0,-0.2871,-0.2589,-0.2177,-0.2108,-0.1915,-0.1704,-0.1704,-0.1704,-0.1704,-0.1704,-0.1704,-0.1704,-0.1705,-0.1491,-0.1172,0.0,0.0,0.0,-0.1748,-0.1766,-0.1791,-0.1794,-0.1795,-0.1795,-0.1683,-0.1683,-0.1458,-0.0561,-0.0112,-0.0336,-0.1346,-0.157,-0.1346,-0.1795,-0.202,-0.2364,-0.2634,-0.279,-0.283,-0.2643,-0.256,-0.2464,-0.2099,-0.0988,-0.0,-0.0,-0.0,-0.0,-0.0,-0.0114,-0.0115,-0.0,-0.0,-0.0,0.0118,0.0233,0.0116,-0.0,-0.0931,-0.1625,-0.1654,-0.1655,-0.1644,-0.1851,-0.1844,-0.2057,-0.2478,-0.2359,-0.2469,-0.2919,-0.2806,-0.2469,-0.2244,-0.2244,-0.2132,-0.1795,-0.0561,0.0673,0.1795,0.1795,0.1793,-0.5181,-0.5089,-0.5056,-0.4906,-0.4871,-0.4795,-0.4648,0.0,0.0,-0.4651,-0.4663,-0.4694,-0.4694,-0.4669,-0.4634,-0.4693,0.0,0.0,0.0,0.0,0.0,0.0,0.0,0.0,0.0,0.0,0.0,0.0,0.0,0.0,0.0,-0.2671,-0.2502,-0.2108,-0.1931,-0.1849,-0.1759,-0.1759,-0.1759,-0.1759,-0.1759,-0.1759,-0.1759,-0.1759,-0.1649,-0.1539,0.0,0.0,0.0,-0.1797,-0.1811,-0.1824,-0.1842,-0.1849,-0.1847,-0.1829,-0.1822,-0.1706,-0.1238,-0.0897,-0.0673,-0.1121,-0.1346,-0.157,-0.1795,-0.202,-0.2257,-0.2434,-0.2463,-0.2489,-0.2552,-0.2458,-0.2223,-0.2099,-0.0988,-0.0,-0.0,-0.0,-0.0,-0.0,-0.0,0.0233,0.105,0.0587,-0.0,-0.0,-0.0,-0.0,-0.0,-0.103,-0.1818,-0.1829,-0.1514,-0.1411,-0.1868,-0.2083,-0.2294,-0.2394,-0.2483,-0.2692,-0.3027,-0.3027,-0.2915,-0.269,-0.258,-0.2132,-0.1234,-0.0673,0.0336,0.1795,0.1795,0.1785,-0.515,-0.5085,-0.5072,-0.4856,-0.4828,-0.4756,0.0,0.0,-0.4557,-0.457,-0.4665,-0.4653,-0.4688,-0.4625,-0.4642,-0.4684,0.0,-0.4338,0.0,0.0,0.0,0.0,0.0,0.0,0.0,0.0,0.0,0.0,0.0,0.0,0.0,-0.2671,-0.251,-0.2129,-0.1852,-0.1774,-0.1795,-0.1795,-0.1795,-0.1795,-0.1795,-0.1795,-0.1795,-0.1795,-0.1795,-0.1908,0.0,0.0,0.0,-0.1841,-0.1853,-0.1856,-0.1877,-0.1886,-0.1883,-0.1862,-0.1853,-0.1966,-0.1944,-0.1708,-0.1251,-0.1358,-0.1588,-0.182,-0.1811,-0.1921,-0.216,-0.2339,-0.2255,-0.2162,-0.2209,-0.1975,-0.1729,-0.1977,-0.1235,-0.0492,-0.0363,-0.0241,-0.024,-0.0,-0.0,0.0356,0.1305,0.0953,0.0478,-0.0,-0.0,-0.0,-0.0,-0.0685,-0.1356,-0.1582,-0.1391,-0.1409,-0.186,-0.2079,-0.2181,-0.2285,-0.2497,-0.2819,-0.3138,-0.325,-0.325,-0.3137,-0.2917,-0.2244,-0.1121,-0.0673,0.0224,0.1458,0.1683,0.1895,-0.5027,-0.5092,-0.5159,-0.4948,-0.4782,-0.4685,0.0,0.0,-0.4218,-0.4535,-0.4466,-0.4484,-0.474,-0.4694,-0.4574,-0.4613,-0.4439,0.0,0.0,0.0,0.0,0.0,0.0,0.0,0.0,0.0,0.0,0.0,0.0,0.0,0.0,0.0,-0.2615,-0.2129,-0.1873,-0.1795,-0.1795,-0.1795,-0.1795,-0.1795,-0.1795,-0.1795,-0.1795,-0.1795,-0.1908,0.0,0.0,0.0,0.0,-0.199,-0.1885,-0.1885,-0.1886,-0.1886,-0.1886,-0.1885,-0.2121,-0.2357,-0.2475,-0.2239,-0.1997,-0.2313,-0.221,-0.1879,-0.1849,-0.184,-0.1847,-0.2229,-0.217,-0.1853,-0.1482,-0.1112,-0.1235,-0.1853,-0.1977,-0.1845,-0.109,-0.0965,-0.0841,-0.0118,-0.0,-0.0,-0.0,0.11,0.1481,0.0247,-0.0,-0.0,-0.0,-0.0,-0.023,-0.092,-0.1517,-0.1862,-0.1801,-0.1823,-0.1942,-0.2135,-0.2508,-0.2853,-0.3139,-0.3474,-0.3474,-0.3137,-0.303,-0.2581,-0.1795,-0.0561,0.0224,0.0673,0.1458,0.1908,-0.5035,-0.5017,-0.504,-0.4789,-0.4717,-0.4532,-0.4315,0.0,-0.4193,-0.4296,-0.4469,-0.4513,-0.4558,-0.4441,-0.4349,-0.4367,-0.4244,0.0,0.0,0.0,0.0,0.0,0.0,0.0,0.0,0.0,0.0,0.0,0.0,0.0,0.0,0.0,-0.2301,-0.2129,-0.207,-0.1996,-0.1795,-0.1795,-0.1795,-0.1795,-0.1795,-0.1795,-0.1795,-0.1795,0.0,0.0,0.0,0.0,0.0,-0.1896,-0.1917,-0.1919,-0.1939,-0.1948,-0.1945,-0.2163,-0.2274,-0.239,-0.2718,-0.2709,-0.2588,-0.2692,-0.2697,-0.2588,-0.2457,-0.2221,-0.1878,-0.2027,-0.2067,-0.1977,-0.1853,-0.1729,-0.1729,-0.1977,-0.1977,-0.1974,-0.1718,-0.1717,-0.1592,-0.1462,-0.0978,-0.0613,-0.049,0.0123,0.0617,0.0617,0.0243,-0.0,-0.0,-0.0,-0.0234,-0.0935,-0.1528,-0.1995,-0.1859,-0.1983,-0.2218,-0.2206,-0.2565,-0.2915,-0.3247,-0.313,-0.3229,-0.3536,-0.3082,-0.2612,-0.2244,-0.157,-0.0561,0.0673,0.1458,0.1908,0.0,-0.4887,-0.4822,-0.4644,-0.454,0.0,0.0,0.0,-0.3945,-0.3931,-0.4061,-0.4127,-0.4113,-0.4088,-0.4066,-0.3904,-0.3866,0.0,0.0,0.0,0.0,0.0,0.0,0.0,0.0,0.0,0.0,0.0,0.0,0.0,0.0,0.0,-0.2174,-0.2108,-0.2052,-0.1985,-0.1795,-0.1795,-0.1795,-0.1795,-0.1795,-0.1795,-0.1795,-0.1795,0.0,0.0,0.0,0.0,0.0,-0.1923,-0.1948,-0.195,-0.1969,-0.1977,-0.2097,-0.232,-0.2553,-0.2672,-0.3007,-0.3116,-0.3114,-0.3095,-0.297,-0.2854,-0.2751,-0.2387,-0.2028,-0.1939,-0.1962,-0.1977,-0.1977,-0.1977,-0.1977,-0.1977,-0.2099,-0.2222,-0.2222,-0.2346,-0.2346,-0.2222,-0.1851,-0.1481,-0.1234,-0.0987,-0.0494,0.0494,0.0244,-0.0,-0.0,-0.0478,-0.0832,-0.0951,-0.1554,-0.204,-0.192,-0.2029,-0.2136,-0.2122,-0.2487,-0.2724,-0.2945,-0.2825,-0.2929,-0.3364,-0.2769,-0.2518,-0.2379,-0.1688,-0.0673,0.0785,0.1458,0.1908,0.0,-0.4657,0.0,0.0,0.0,0.0,0.0,0.0,0.0,0.0,-0.3439,-0.3418,-0.358,-0.3685,-0.3659,-0.3418,-0.3369,0.0,0.0,0.0,0.0,0.0,0.0,0.0,0.0,0.0,0.0,0.0,0.0,0.0,0.0,0.0,0.0,-0.208,-0.1933,-0.1761,-0.1791,-0.1794,-0.1795,-0.1795,-0.1795,-0.1795,-0.1795,-0.1795,0.0,0.0,0.0,0.0,0.0,-0.2073,-0.1977,-0.1977,-0.1977,-0.1977,-0.2099,-0.2344,-0.2714,-0.3085,-0.3455,-0.3579,-0.3571,-0.3398,-0.3261,-0.2905,-0.2702,-0.2442,-0.2301,-0.2091,-0.1977,-0.1977,-0.1977,-0.1977,-0.1977,-0.1977,-0.2222,-0.2467,-0.2467,-0.2714,-0.2838,-0.2714,-0.259,-0.2467,-0.2097,-0.1973,-0.1603,-0.037,-0.0122,-0.0121,-0.0121,-0.1209,-0.1692,-0.1088,-0.1592,-0.1977,-0.1977,-0.1951,-0.1922,-0.1894,-0.2157,-0.24,-0.2367,-0.2599,-0.2715,-0.2829,-0.2437,-0.2301,-0.2301,-0.1131,-0.0112,0.0785,0.146,0.191,-0.3848,0.0,-0.4299,-0.4154,-0.3985,0.0,0.0,0.0,0.0,0.0,0.0,0.0,0.0,0.0,0.0,0.0,0.0,0.0,0.0,0.0,0.0,0.0,0.0,0.0,0.0,0.0,0.0,0.0,0.0,0.0,0.0,0.0,0.0,-0.1834,-0.1827,-0.1729,-0.176,-0.1783,-0.1795,-0.1795,-0.1795,-0.1795,-0.1795,-0.1795,0.0,0.0,0.0,0.0,-0.2009,-0.1952,-0.1977,-0.1977,-0.1977,-0.1977,-0.2099,-0.2715,-0.2961,-0.3085,-0.358,-0.3826,-0.3825,-0.3811,-0.356,-0.3316,-0.3329,-0.2953,-0.2456,-0.2097,-0.1977,-0.1977,-0.1977,-0.1977,-0.1977,-0.1977,-0.2099,-0.2222,-0.2467,-0.259,-0.2714,-0.2838,-0.2961,-0.2837,-0.2467,-0.222,-0.185,-0.1606,-0.1108,-0.0982,-0.1474,-0.1351,-0.1351,-0.172,-0.1849,-0.1977,-0.1977,-0.197,-0.1963,-0.1956,-0.2084,-0.2207,-0.2442,-0.232,-0.2429,-0.2877,-0.2451,-0.2301,-0.2416,-0.1357,-0.0673,-0.0449,0.1136,0.1944,-0.3332,-0.3591,-0.3866,-0.3759,-0.3606,-0.3387,0.0,0.0,0.0,0.0,0.0,0.0,0.0,0.0,0.0,0.0,0.0,0.0,0.0,0.0,0.0,0.0,0.0,0.0,0.0,0.0,0.0,0.0,0.0,0.0,0.0,0.0,0.0,0.0,-0.1726,-0.174,-0.177,-0.1787,-0.1795,-0.1795,-0.1795,-0.1795,-0.1795,-0.1908,0.0,0.0,0.0,0.0,-0.2147,-0.22,-0.2099,-0.1977,-0.1977,-0.2099,-0.2346,-0.2838,-0.3207,-0.3453,-0.3826,-0.3951,-0.3951,-0.3951,-0.3826,-0.3703,-0.3579,-0.3209,-0.2838,-0.2345,-0.2222,-0.2222,-0.2099,-0.1977,-0.1977,-0.1977,-0.2099,-0.2345,-0.2715,-0.2837,-0.3085,-0.3332,-0.3455,-0.3209,-0.2837,-0.259,-0.2344,-0.2099,-0.1482,-0.1359,-0.1977,-0.1729,-0.1606,-0.1977,-0.1977,-0.1977,-0.1977,-0.1977,-0.1977,-0.1977,-0.1977,-0.2099,-0.2222,-0.2099,-0.2084,-0.2413,-0.2255,-0.211,-0.221,-0.1268,-0.0803,-0.0459,0.0579,0.1396,-0.2925,-0.3204,-0.3416,-0.336,-0.319,-0.3026,-0.2934,0.0,0.0,0.0,0.0,0.0,0.0,0.0,0.0,0.0,0.0,0.0,0.0,0.0,0.0,0.0,0.0,0.0,0.0,0.0,0.0,0.0,0.0,0.0,0.0,0.0,0.0,0.0,-0.1847,-0.1875,-0.1907,-0.1795,-0.1795,-0.1907,-0.1907,-0.1907,-0.1908,-0.2132,0.0,0.0,0.0,0.0,-0.2534,-0.2573,-0.2468,-0.2099,-0.2099,-0.2346,-0.259,-0.2961,-0.3453,-0.3944,-0.3948,-0.395,-0.3951,-0.3951,-0.3951,-0.3828,-0.358,-0.358,-0.3455,-0.2837,-0.259,-0.2467,-0.2099,-0.1977,-0.1977,-0.1977,-0.2222,-0.2467,-0.2837,-0.3208,-0.3455,-0.3826,-0.3828,-0.3703,-0.3085,-0.2961,-0.2715,-0.2099,-0.1606,-0.1606,-0.1977,-0.1977,-0.1977,-0.1977,-0.1977,-0.1977,-0.1977,-0.1977,-0.1977,-0.1977,-0.1977,-0.1977,-0.1977,-0.1977,-0.1964,-0.1939,-0.1934,-0.1919,-0.1775,-0.1298,-0.0707,-0.0118,-0.0118,0.0473,-0.2484,-0.2669,-0.2858,-0.297,-0.297,-0.2936,-0.2847,0.0,0.0,0.0,0.0,0.0,0.0,0.0,0.0,0.0,0.0,0.0,0.0,0.0,0.0,0.0,0.0,0.0,0.0,0.0,0.0,0.0,0.0,0.0,0.0,0.0,0.0,0.0,0.0,-0.2537,-0.258,-0.202,-0.1908,-0.2132,-0.2132,-0.2244,-0.2581,-0.2581,-0.2604,0.0,0.0,-0.285,-0.2776,-0.2942,-0.2838,-0.2838,-0.2838,-0.2838,-0.2961,-0.3332,-0.3577,-0.3944,-0.4192,-0.4195,-0.3951,-0.3951,-0.3951,-0.3951,-0.3828,-0.3826,-0.3826,-0.3455,-0.2961,-0.2467,-0.2099,-0.1977,-0.1977,-0.1977,-0.2099,-0.2223,-0.2467,-0.2837,-0.3208,-0.3455,-0.3703,-0.3703,-0.3085,-0.2961,-0.2715,-0.2099,-0.1977,-0.1977,-0.1977,-0.1977,-0.1977,-0.1977,-0.1977,-0.1977,-0.1977,-0.1977,-0.1977,-0.1977,-0.1977,-0.1977,-0.1977,-0.1977,-0.1975,-0.1969,-0.1945,-0.1928,-0.1924,-0.1423,-0.106,-0.0825,-0.0717,-0.0481,-0.2322,-0.2479,-0.2645,-0.2809,-0.2822,-0.2834,-0.27,0.0,0.0,0.0,0.0,0.0,0.0,0.0,0.0,0.0,0.0,0.0,0.0,0.0,0.0,0.0,0.0,0.0,0.0,0.0,0.0,0.0,0.0,0.0,0.0,0.0,0.0,0.0,-0.2783,-0.2672,-0.2693,-0.2579,-0.2467,-0.2469,-0.2579,-0.2803,-0.2915,-0.3253,-0.3524,-0.3609,0.0,-0.3819,-0.3662,-0.3565,-0.3454,-0.3209,-0.3209,-0.3331,-0.3576,-0.4071,-0.4071,-0.3947,-0.4316,-0.4195,-0.3951,-0.3951,-0.3951,-0.3951,-0.3951,-0.3951,-0.3826,-0.358,-0.3208,-0.2715,-0.2345,-0.2099,-0.1977,-0.1977,-0.1977,-0.2099,-0.2467,-0.2714,-0.3085,-0.3455,-0.358,-0.3579,-0.3085,-0.2837,-0.2591,-0.2099,-0.1977,-0.1977,-0.1977,-0.1977,-0.1977,-0.1977,-0.1977,-0.1977,-0.1977,-0.1977,-0.1977,-0.1977,-0.1977,-0.1977,-0.1977,-0.1977,-0.1977,-0.1977,-0.1963,-0.1956,-0.1956,-0.182,-0.1572,-0.1572,-0.1462,-0.1344,-0.2218,-0.2347,-0.2486,-0.2745,-0.2769,-0.2718,-0.2638,0.0,0.0,0.0,0.0,0.0,0.0,0.0,0.0,0.0,0.0,0.0,0.0,0.0,0.0,0.0,0.0,0.0,0.0,0.0,0.0,0.0,0.0,0.0,0.0,0.0,0.0,0.0,-0.3251,-0.3141,-0.3141,-0.3362,-0.325,-0.2918,-0.3139,-0.3362,-0.3473,-0.3923,-0.4214,-0.4329,-0.4581,-0.4662,-0.4416,-0.4186,-0.407,-0.3825,-0.3702,-0.3824,-0.3946,-0.4564,-0.4442,-0.395,-0.4316,-0.4195,-0.3951,-0.3951,-0.3951,-0.3951,-0.3951,-0.3951,-0.3828,-0.3703,-0.3332,-0.3085,-0.2714,-0.2469,-0.2223,-0.2223,-0.2223,-0.2346,-0.259,-0.2838,-0.3208,-0.3455,-0.3455,-0.3455,-0.3085,-0.2714,-0.2344,-0.2099,-0.1977,-0.1977,-0.1977,-0.1977,-0.1977,-0.1977,-0.1977,-0.1977,-0.1977,-0.1977,-0.1977,-0.1977,-0.1977,-0.1977,-0.1977,-0.1977,-0.1977,-0.1977,-0.1977,-0.1977,-0.1977,-0.1977,-0.1977,-0.1977,-0.1977,-0.2099,-0.2126,-0.2237,-0.2315,-0.2687,-0.2708,0.0,-0.278,-0.262,0.0,0.0,0.0,0.0,0.0,0.0,0.0,0.0,0.0,0.0,0.0,0.0,0.0,0.0,0.0,0.0,0.0,0.0,0.0,0.0,0.0,0.0,0.0,0.0,0.0,0.0,0.0,-0.4367,-0.4367,-0.4369,-0.4145,-0.3587,-0.3813,-0.4147,-0.4369,-0.448,-0.4525,-0.4605,-0.4676,-0.4753,-0.4834,-0.4782,-0.481,-0.481,-0.4439,-0.4195,-0.395,-0.4316,-0.4195,-0.395,-0.4316,-0.4195,-0.3951,-0.3951,-0.3951,-0.3951,-0.3951,-0.3951,-0.3951,-0.3828,-0.3703,-0.3332,-0.3085,-0.2961,-0.2961,-0.2961,-0.2961,-0.2961,-0.2961,-0.3209,-0.3455,-0.3455,-0.3455,-0.3455,-0.3085,-0.2714,-0.2344,-0.2099,-0.1977,-0.1977,-0.1977,-0.1977,-0.1977,-0.1977,-0.1977,-0.1977,-0.1977,-0.1977,-0.1977,-0.1977,-0.1977,-0.1977,-0.1977,-0.1977,-0.1977,-0.1977,-0.1977,-0.1977,-0.1977,-0.1977,-0.1977,-0.1977,-0.1977,-0.2223,-0.2131,-0.2252,-0.2445,-0.2823,-0.2867,0.0,0.0,-0.2636,0.0,0.0,0.0,0.0,0.0,0.0,0.0,0.0,0.0,0.0,0.0,0.0,0.0,0.0,0.0,0.0,0.0,0.0,0.0,0.0,0.0,0.0,0.0,0.0,0.0,0.0,0.0,-0.448,-0.448,-0.4704,-0.4594,-0.437,-0.4484,-0.4594,-0.4706,-0.4931,-0.5087,-0.5167,-0.5199,-0.5291,-0.5423,-0.5212,-0.5011,-0.481,-0.4562,-0.4316,-0.4193,-0.4316,-0.4195,-0.3951,-0.4073,-0.395,-0.3951,-0.3951,-0.3951,-0.3951,-0.3951,-0.3951,-0.395,-0.4195,-0.4193,-0.3947,-0.3455,-0.3208,-0.2961,-0.2961,-0.2961,-0.2961,-0.2961,-0.3209,-0.3455,-0.3455,-0.3455,-0.3455,-0.3332,-0.2838,-0.2467,-0.2345,-0.2099,-0.1977,-0.1977,-0.1977,-0.1977,-0.1977,-0.1977,-0.1977,-0.1977,-0.1977,-0.2099,-0.2345,-0.2099,-0.2099,-0.2345,-0.2345,-0.2468,-0.2592,-0.2592,-0.2592,-0.2592,-0.2592,-0.2592,-0.2592,-0.2592,-0.2715,-0.2115,-0.2354,-0.2549,0.0,0.0,0.0,-0.2816,0.0,0.0,0.0,0.0,0.0,0.0,0.0,0.0,0.0,0.0,0.0,0.0,0.0,0.0,0.0,0.0,0.0,0.0,0.0,0.0,0.0,0.0,0.0,0.0,0.0,0.0,0.0,0.0,0.0,-0.4817,-0.4931,-0.5043,-0.5043,-0.5043,-0.5043,-0.5043,-0.5268,-0.5412,-0.5469,-0.5496,-0.5594,-0.5739,-0.5528,-0.5227,-0.481,-0.4562,-0.4316,-0.4193,-0.4193,-0.4071,-0.3951,-0.3951,-0.3951,-0.3951,-0.3951,-0.3951,-0.3951,-0.3951,-0.3951,-0.395,-0.4316,-0.4438,-0.4316,-0.4071,-0.3701,-0.3454,-0.3454,-0.3331,-0.3332,-0.3332,-0.3455,-0.358,-0.358,-0.358,-0.3455,-0.3455,-0.3085,-0.2714,-0.2714,-0.2469,-0.2346,-0.2346,-0.2223,-0.2099,-0.1977,-0.2099,-0.2099,-0.2099,-0.2223,-0.2469,-0.259,-0.2469,-0.2469,-0.259,-0.2714,-0.2714,-0.2961,-0.2961,-0.2961,-0.2961,-0.2961,-0.2961,-0.2961,-0.2961,-0.3076,-0.2183,-0.2411,-0.2671,0.0,0.0,0.0,0.0,0.0,0.0,0.0,0.0,0.0,0.0,0.0,0.0,0.0,0.0,0.0,0.0,0.0,0.0,0.0,0.0,0.0,0.0,0.0,0.0,0.0,0.0,0.0,0.0,0.0,0.0,0.0,0.0,0.0,-0.5382,-0.5382,-0.5382,-0.5382,-0.5382,-0.5382,-0.5382,-0.5382,-0.5382,-0.5386,-0.5469,-0.5559,-0.5651,-0.5743,-0.5471,-0.481,-0.4562,-0.4195,-0.3951,-0.3951,-0.3951,-0.3951,-0.3951,-0.3951,-0.3951,-0.3951,-0.3951,-0.3951,-0.3951,-0.3951,-0.395,-0.4316,-0.4438,-0.4439,-0.481,-0.4687,-0.4438,-0.4438,-0.4195,-0.3951,-0.3951,-0.3951,-0.3951,-0.3951,-0.3703,-0.3455,-0.3455,-0.3209,-0.2961,-0.2961,-0.2961,-0.2961,-0.2961,-0.2714,-0.2345,-0.2099,-0.2345,-0.2467,-0.2467,-0.2837,-0.2961,-0.2961,-0.2961,-0.2961,-0.2961,-0.2961,-0.2961,-0.2961,-0.2961,-0.2961,-0.2961,-0.2961,-0.2961,-0.2961,-0.2961,-0.3181,-0.2352,-0.251,0.0,0.0,0.0,0.0,0.0,0.0,0.0,0.0,0.0,0.0,0.0,0.0,0.0,0.0,0.0,0.0,0.0,0.0,0.0,0.0,0.0,0.0,0.0,0.0,0.0,0.0,0.0,0.0,0.0,0.0,0.0,0.0,0.0,0.0,-0.6051,-0.6051,-0.5938,-0.5712,-0.5712,-0.5601,-0.5382,-0.5382,-0.5382,-0.5382,-0.5408,-0.5504,-0.5538,-0.533,-0.5037,-0.481,-0.4319,-0.395,-0.3828,-0.3703,-0.358,-0.358,-0.358,-0.358,-0.3703,-0.3826,-0.3951,-0.3951,-0.3951,-0.4073,-0.4318,-0.4687,-0.4931,-0.5176,-0.5548,-0.53,-0.493,-0.4561,-0.4316,-0.4195,-0.395,-0.3951,-0.3951,-0.3951,-0.3826,-0.3826,-0.3826,-0.3579,-0.3332,-0.3332,-0.3208,-0.2961,-0.2961,-0.2961,-0.2838,-0.2716,-0.2838,-0.2837,-0.2837,-0.2961,-0.3085,-0.3332,-0.3332,-0.3332,-0.3332,-0.3332,-0.3455,-0.358,-0.358,-0.358,-0.358,-0.358,-0.358,-0.358,-0.358,-0.3673,-0.2505,0.0,0.0,0.0,0.0,0.0,0.0,0.0,0.0,0.0,0.0,0.0,0.0,0.0,0.0,0.0,0.0,0.0,0.0,0.0,0.0,0.0,0.0,0.0,0.0,0.0,0.0,0.0,0.0,0.0,0.0,0.0,0.0,0.0,0.0,0.0,-0.621,-0.621,-0.6118,-0.5822,-0.5822,-0.5712,-0.5382,-0.5382,-0.5382,-0.5386,-0.5455,-0.5432,-0.5426,-0.4992,-0.481,-0.4687,-0.4073,-0.3826,-0.3703,-0.358,-0.3455,-0.3332,-0.3455,-0.3455,-0.3579,-0.3826,-0.3951,-0.3951,-0.3951,-0.4073,-0.4318,-0.481,-0.5056,-0.53,-0.5794,-0.5794,-0.5423,-0.493,-0.4561,-0.4316,-0.4195,-0.4071,-0.4071,-0.4071,-0.4196,-0.4319,-0.4319,-0.4196,-0.4071,-0.4071,-0.3825,-0.3701,-0.3577,-0.3576,-0.3453,-0.333,-0.3453,-0.3576,-0.3576,-0.3701,-0.3824,-0.4071,-0.4071,-0.3948,-0.3825,-0.3703,-0.3703,-0.3951,-0.3951,-0.3951,-0.3951,-0.4073,-0.4071,-0.4071,-0.4196,-0.4161,0.0,0.0,0.0,0.0,0.0,0.0,0.0,0.0,0.0,0.0,0.0,0.0,0.0,0.0,0.0,0.0,0.0,0.0,0.0,0.0,0.0,0.0,0.0,0.0,0.0,0.0,0.0,0.0,0.0,0.0,0.0,0.0,0.0,0.0,0.0,0.0,-0.6221,-0.6115,-0.6055,0.0,-0.5822,-0.5601,-0.5382,-0.5382,-0.5382,-0.5392,-0.5567,-0.5411,-0.5193,-0.4993,-0.4687,-0.4316,-0.4073,-0.3703,-0.3579,-0.3455,-0.3332,-0.3085,-0.3455,-0.3455,-0.3579,-0.395,-0.395,-0.395,-0.395,-0.3951,-0.4196,-0.4812,-0.4933,-0.5181,-0.5796,-0.5916,-0.5794,-0.5544,-0.493,-0.4438,-0.4439,-0.4439,-0.4439,-0.4439,-0.4687,-0.4935,-0.4935,-0.4935,-0.4935,-0.4935,-0.4935,-0.481,-0.4439,-0.4438,-0.4315,-0.4067,-0.4315,-0.4561,-0.4561,-0.481,-0.4933,-0.4933,-0.4935,-0.481,-0.4439,-0.4071,-0.395,-0.3951,-0.3951,-0.3951,-0.3951,-0.4193,-0.4438,-0.4438,-0.4687,-0.4648,0.0,0.0,0.0,0.0,0.0,0.0,0.0,0.0,0.0,0.0,0.0,0.0,0.0,0.0,0.0,0.0,0.0,0.0,0.0,0.0,0.0,0.0,0.0,0.0,0.0,0.0,0.0,0.0,0.0,0.0,0.0,0.0,0.0,0.0,0.0,-0.6648,-0.6766,-0.6547,-0.6384,0.0,-0.571,-0.5262,-0.5043,-0.5268,-0.5382,-0.5392,-0.534,-0.5297,-0.5193,-0.4749,-0.4439,-0.4316,-0.4073,-0.3828,-0.3703,-0.3332,-0.3209,-0.3455,-0.3455,-0.3577,-0.3946,-0.4441,-0.4689,-0.4689,-0.4689,-0.4808,-0.5053,-0.53,-0.5423,-0.5671,-0.5916,-0.5916,-0.5916,-0.5794,-0.5423,-0.5053,-0.481,-0.481,-0.481,-0.481,-0.481,-0.4935,-0.4935,-0.4935,-0.4935,-0.4935,-0.4935,-0.4933,-0.481,-0.5054,-0.5176,-0.5051,-0.5418,-0.554,-0.554,-0.5419,-0.5298,-0.5298,-0.5056,-0.481,-0.481,-0.4439,-0.4195,-0.3951,-0.3951,-0.3951,-0.3951,-0.4193,-0.4438,-0.4438,-0.4687,-0.4648,0.0,0.0,0.0,0.0,0.0,0.0,0.0,0.0,0.0,0.0,0.0,0.0,0.0,0.0,0.0,0.0,0.0,0.0,0.0,0.0,0.0,0.0,0.0,0.0,0.0,0.0,0.0,0.0,0.0,0.0,0.0,0.0,0.0,0.0,-0.6373,-0.6566,-0.6685,-0.6519,-0.6381,-0.6049,-0.571,-0.5375,-0.4929,-0.4931,-0.5043,-0.5166,-0.5224,-0.518,-0.5193,-0.4992,-0.4808,-0.4562,-0.4442,-0.4319,-0.4071,-0.3576,-0.3576,-0.3699,-0.3699,-0.3944,-0.4436,-0.481,-0.5056,-0.5054,-0.4933,-0.5056,-0.5177,-0.5298,-0.5544,-0.5669,-0.5916,-0.5916,-0.5916,-0.5916,-0.5669,-0.5298,-0.5177,-0.5177,-0.5177,-0.5177,-0.5302,-0.5425,-0.5425,-0.5425,-0.5425,-0.5425,-0.5546,-0.5669,-0.5669,-0.5914,-0.616,-0.628,-0.6403,-0.6403,-0.6646,-0.628,-0.6037,-0.5912,-0.5667,-0.5423,-0.4935,-0.4687,-0.4441,-0.4195,-0.395,-0.3951,-0.3951,-0.4193,-0.4439,-0.4685,-0.4931,-0.4911,0.0,0.0,0.0,0.0,0.0,0.0,0.0,0.0,0.0,0.0,0.0,0.0,0.0,0.0,0.0,0.0,0.0,0.0,0.0,0.0,0.0,0.0,0.0,0.0,0.0,0.0,0.0,0.0,0.0,0.0,0.0,0.0,-0.5546,-0.5562,-0.5957,-0.6279,-0.6412,-0.6393,-0.6272,-0.5935,-0.571,-0.5375,-0.4817,-0.4704,-0.4704,-0.494,-0.5107,-0.5297,-0.5309,-0.5475,-0.5298,-0.4933,-0.4933,-0.4802,-0.4421,-0.4052,-0.4052,-0.405,-0.4173,-0.4548,-0.5051,-0.5177,-0.5423,-0.5544,-0.5302,-0.5179,-0.5179,-0.5423,-0.5544,-0.5546,-0.5794,-0.5916,-0.5916,-0.5916,-0.5669,-0.5544,-0.5544,-0.5544,-0.5544,-0.5544,-0.5669,-0.5916,-0.5916,-0.5916,-0.6039,-0.6039,-0.6283,-0.6528,-0.6528,-0.6775,-0.7143,-0.7508,-0.7266,-0.7266,-0.751,-0.7266,-0.6898,-0.6528,-0.6403,-0.6035,-0.5056,-0.4933,-0.481,-0.4439,-0.4073,-0.3951,-0.3951,-0.4193,-0.4562,-0.481,-0.5177,-0.5177,0.0,0.0,0.0,0.0,0.0,0.0,0.0,0.0,0.0,0.0,0.0,0.0,0.0,0.0,0.0,0.0,0.0,0.0,0.0,0.0,0.0,0.0,0.0,0.0,0.0,0.0,0.0,0.0,0.0,0.0,0.0,-0.5138,-0.528,-0.5469,-0.5896,-0.6312,-0.6519,-0.6214,-0.6167,-0.6274,-0.5377,-0.4817,-0.4592,-0.4706,-0.4817,-0.4938,-0.5334,-0.5528,-0.554,-0.5714,-0.5663,-0.5298,-0.5298,-0.5134,-0.4714,-0.435,-0.4471,-0.4714,-0.4951,-0.5361,-0.5916,-0.6407,-0.6405,-0.628,-0.6158,-0.6037,-0.5794,-0.5794,-0.5794,-0.5794,-0.5916,-0.5916,-0.5916,-0.5916,-0.5916,-0.5794,-0.5794,-0.5794,-0.5794,-0.5794,-0.5916,-0.5916,-0.5916,-0.616,-0.628,-0.628,-0.6653,-0.6778,-0.6778,-0.7143,-0.7508,-0.775,-0.775,-0.7875,-0.8247,-0.7633,-0.7143,-0.69,-0.6528,-0.6158,-0.5794,-0.5179,-0.4933,-0.481,-0.4196,-0.3951,-0.3951,-0.4193,-0.4439,-0.4439,-0.481,-0.481,0.0,0.0,0.0,0.0,0.0,0.0,0.0,0.0,0.0,0.0,0.0,0.0,0.0,0.0,0.0,0.0,0.0,0.0,0.0,0.0,0.0,0.0,0.0,0.0,0.0,0.0,0.0,0.0,0.0,0.0,-0.4834,-0.4937,-0.5181,-0.559,-0.5962,-0.6172,-0.6542,-0.6498,-0.6335,-0.6274,-0.5712,-0.5375,-0.5262,-0.5375,-0.5375,-0.5156,-0.5627,-0.5946,-0.6124,-0.6264,-0.6354,-0.6278,-0.5979,-0.5812,-0.5532,-0.5126,-0.523,-0.5596,-0.5759,-0.6163,-0.6696,-0.6881,-0.6775,-0.665,-0.6403,-0.616,-0.5916,-0.5916,-0.5916,-0.5916,-0.5916,-0.5916,-0.5916,-0.5916,-0.6039,-0.616,-0.616,-0.616,-0.6283,-0.6407,-0.6407,-0.6407,-0.6407,-0.653,-0.6653,-0.6653,-0.7021,-0.7143,-0.7143,-0.7508,-0.775,-0.8119,-0.7994,-0.7997,-0.8369,-0.8,-0.7508,-0.69,-0.6775,-0.6405,-0.5669,-0.5179,-0.481,-0.4562,-0.4196,-0.3951,-0.3951,-0.4073,-0.4195,-0.4438,-0.4562,-0.4562,0.0,0.0,0.0,0.0,0.0,0.0,0.0,0.0,0.0,0.0,0.0,0.0,0.0,0.0,0.0,0.0,0.0,0.0,0.0,0.0,0.0,0.0,0.0,0.0,0.0,0.0,0.0,0.0,0.0,0.0,-0.4834,-0.4834,-0.5192,-0.5728,-0.6018,-0.6231,-0.6585,-0.6782,-0.6715,-0.6383,-0.627,-0.6156,-0.6044,-0.6156,-0.6042,-0.5824,-0.6152,-0.6357,-0.6667,-0.6894,-0.6868,-0.6933,-0.649,-0.6323,-0.6175,-0.5869,-0.5845,-0.6094,-0.6305,-0.6712,-0.7232,-0.7106,-0.7143,-0.7021,-0.6771,-0.6405,-0.6162,-0.6162,-0.6039,-0.6039,-0.6039,-0.5916,-0.5916,-0.6039,-0.616,-0.6403,-0.6528,-0.6528,-0.665,-0.69,-0.69,-0.69,-0.69,-0.7023,-0.7021,-0.7021,-0.7266,-0.7508,-0.7508,-0.775,-0.7997,-0.8369,-0.7997,-0.7875,-0.8244,-0.7875,-0.7385,-0.6775,-0.6775,-0.6405,-0.5421,-0.5054,-0.4687,-0.4438,-0.4073,-0.3951,-0.3951,-0.3951,-0.4073,-0.4316,-0.4316,-0.4316,0.0,0.0,0.0,0.0,0.0,0.0,0.0,0.0,0.0,0.0,0.0,0.0,0.0,0.0,0.0,0.0,0.0,0.0,0.0,0.0,0.0,0.0,0.0,0.0,0.0,0.0,0.0,0.0,0.0,0.0,-0.4834,-0.5037,-0.5326,-0.562,-0.6157,-0.648,-0.6702,-0.7041,-0.7046,-0.6715,-0.6935,-0.6932,-0.6712,-0.6935,-0.7154,-0.7049,-0.6948,-0.6888,-0.6904,-0.7246,-0.7301,-0.6955,-0.671,-0.6297,-0.5985,-0.5979,-0.5979,-0.6107,-0.6783,-0.7123,-0.7232,-0.7712,-0.7627,-0.7388,-0.7385,-0.7143,-0.69,-0.69,-0.6653,-0.6403,-0.6403,-0.616,-0.6039,-0.628,-0.6403,-0.6528,-0.6775,-0.69,-0.69,-0.69,-0.69,-0.69,-0.69,-0.7143,-0.7388,-0.7388,-0.7627,-0.7872,-0.7872,-0.7872,-0.7997,-0.8369,-0.7755,-0.7508,-0.7872,-0.7388,-0.6775,-0.6403,-0.6403,-0.6158,-0.5421,-0.5054,-0.4687,-0.4438,-0.4073,-0.3951,-0.3951,-0.3951,-0.3951,-0.395,-0.395,-0.395,0.0,0.0,0.0,0.0,0.0,0.0,0.0,0.0,0.0,0.0,0.0,0.0,0.0,0.0,0.0,0.0,0.0,0.0,0.0,0.0,0.0,0.0,0.0,0.0,0.0,0.0,0.0,0.0,0.0,0.0,-0.4834,-0.5037,-0.5401,-0.5742,-0.6125,-0.6698,-0.7271,-0.7601,-0.7601,-0.749,-0.7601,-0.7601,-0.749,-0.7712,-0.7712,-0.7712,-0.765,-0.7604,-0.7684,-0.7726,-0.7676,-0.7627,-0.6972,-0.669,-0.6543,-0.6543,-0.6543,-0.6682,-0.733,-0.7544,-0.7597,-0.7834,-0.763,-0.7385,-0.7385,-0.7143,-0.69,-0.69,-0.6778,-0.6775,-0.6775,-0.6653,-0.6653,-0.7261,-0.738,-0.7505,-0.7755,-0.7513,-0.7263,-0.7508,-0.7508,-0.7508,-0.7508,-0.7627,-0.775,-0.775,-0.7872,-0.7872,-0.7872,-0.775,-0.763,-0.7755,-0.7388,-0.7018,-0.6893,-0.6771,-0.6405,-0.579,-0.579,-0.5544,-0.5054,-0.4808,-0.4562,-0.4438,-0.4073,-0.3951,-0.3951,-0.3951,-0.3951,-0.3951,-0.3951,-0.4073,0.0,0.0,0.0,0.0,0.0,0.0,0.0,0.0,0.0,0.0,0.0,0.0,0.0,0.0,0.0,0.0,0.0,0.0,0.0,0.0,0.0,0.0,0.0,0.0,0.0,0.0,0.0,0.0,0.0,0.0,-0.4937,-0.5238,-0.5588,-0.6205,-0.6563,-0.7042,-0.7648,-0.802,-0.8156,-0.8156,-0.8377,-0.8377,-0.8263,-0.8377,-0.8488,-0.8488,-0.8374,-0.8208,-0.807,-0.7841,-0.78,-0.7907,-0.714,-0.6909,-0.6939,-0.6939,-0.6939,-0.708,-0.7512,-0.7674,-0.7665,-0.782,-0.7726,-0.7459,-0.7495,-0.7385,-0.7266,-0.7266,-0.7143,-0.7023,-0.7023,-0.7143,-0.7385,-0.7991,-0.8116,-0.8241,-0.8491,-0.8122,-0.7752,-0.7872,-0.7872,-0.7872,-0.7872,-0.7872,-0.7872,-0.7872,-0.7872,-0.7872,-0.7872,-0.763,-0.7385,-0.7385,-0.6898,-0.653,-0.6283,-0.6035,-0.5669,-0.53,-0.5177,-0.5054,-0.4687,-0.4562,-0.4316,-0.4193,-0.4073,-0.3951,-0.3951,-0.3951,-0.395,-0.4073,-0.395,-0.4073,0.0,0.0,0.0,0.0,0.0,0.0,0.0,0.0,0.0,0.0,0.0,0.0,0.0,0.0,0.0,0.0,0.0,0.0,0.0,0.0,0.0,0.0,0.0,0.0,0.0,0.0,0.0,0.0,0.0,-0.4937,-0.514,-0.5436,-0.609,-0.693,-0.7275,-0.751,-0.784,-0.8297,-0.8481,-0.8484,-0.9154,-0.9265,-0.8923,-0.9265,-0.9379,-0.9379,-0.9037,-0.8592,-0.8045,-0.7715,-0.7676,-0.7786,-0.7111,-0.6949,-0.7161,-0.7166,-0.7166,-0.7184,-0.7538,-0.7625,-0.7562,-0.7788,-0.7788,-0.7722,-0.7831,-0.7869,-0.7872,-0.7872,-0.763,-0.7385,-0.7385,-0.763,-0.7991,-0.8355,-0.8726,-0.8854,-0.8854,-0.8613,-0.8369,-0.7994,-0.7872,-0.7872,-0.7872,-0.7872,-0.7872,-0.7872,-0.7872,-0.7872,-0.7872,-0.763,-0.7385,-0.7385,-0.653,-0.5916,-0.5916,-0.5302,-0.4935,-0.481,-0.481,-0.4687,-0.4438,-0.4438,-0.4193,-0.3951,-0.3951,-0.3951,-0.3951,-0.3951,-0.4073,-0.4438,-0.4073,-0.3951,-0.4045,0.0,0.0,0.0,0.0,0.0,0.0,0.0,0.0,0.0,0.0,0.0,0.0,0.0,0.0,0.0,0.0,0.0,0.0,0.0,0.0,0.0,0.0,0.0,0.0,0.0,0.0,0.0,-0.4937,-0.514,-0.524,-0.5837,-0.6494,-0.7235,-0.7617,-0.7858,-0.817,-0.8534,-0.8825,-0.9154,-0.9268,-0.9485,-0.9592,-0.9596,-0.9706,-0.9706,-0.9375,-0.9154,-0.8933,-0.8159,-0.8015,-0.8022,-0.745,-0.7295,-0.741,-0.7732,-0.7884,-0.7889,-0.828,-0.8269,-0.8234,-0.8216,-0.8248,-0.8298,-0.8453,-0.8288,-0.8244,-0.8244,-0.8244,-0.8125,-0.8366,-0.8607,-0.8729,-0.897,-0.9092,-0.9217,-0.9217,-0.8976,-0.861,-0.8366,-0.8119,-0.7872,-0.7872,-0.7872,-0.7872,-0.7872,-0.7872,-0.7872,-0.7872,-0.7385,-0.7021,-0.7021,-0.6407,-0.5671,-0.5179,-0.5058,-0.4689,-0.4196,-0.4196,-0.4196,-0.4073,-0.4073,-0.395,-0.3951,-0.3951,-0.4073,-0.4316,-0.4073,-0.395,-0.4073,-0.4195,-0.4071,-0.3943,-0.3852,0.0,0.0,0.0,0.0,0.0,0.0,0.0,0.0,0.0,0.0,0.0,0.0,0.0,0.0,0.0,0.0,0.0,0.0,0.0,0.0,0.0,0.0,0.0,0.0,0.0,0.0,-0.514,-0.534,-0.5639,-0.6337,-0.6974,-0.7459,-0.7718,-0.8037,-0.8319,-0.8755,-0.9078,-0.9279,-0.9677,-0.9816,-1.0036,-1.0143,-1.0147,-1.0143,-0.9926,-0.982,-0.9706,-0.8816,-0.8379,-0.8214,-0.7643,-0.7516,-0.7674,-0.8108,-0.8222,-0.8173,-0.8528,-0.8573,-0.8479,-0.846,-0.8466,-0.8503,-0.8613,-0.8585,-0.8539,-0.8599,-0.8613,-0.8732,-0.8976,-0.9095,-0.9095,-0.9457,-0.9457,-0.9457,-0.9457,-0.9217,-0.8854,-0.8491,-0.8119,-0.7872,-0.7872,-0.7872,-0.7872,-0.7872,-0.7872,-0.7872,-0.775,-0.7266,-0.69,-0.6653,-0.6037,-0.5546,-0.5177,-0.4808,-0.4564,-0.4071,-0.395,-0.3951,-0.3951,-0.3951,-0.395,-0.4071,-0.4071,-0.4318,-0.4562,-0.4318,-0.4071,-0.4071,-0.4316,-0.4195,0.0,-0.3655,0.0,0.0,0.0,0.0,-0.5795,-0.6257,-0.6682,0.0,0.0,0.0,0.0,0.0,0.0,0.0,0.0,0.0,0.0,0.0,0.0,0.0,0.0,0.0,0.0,0.0,-0.5024,-0.5238,-0.534,-0.5639,-0.6537,-0.6939,-0.7341,-0.7646,-0.7864,-0.8143,-0.8371,-0.8952,-0.9205,-0.9223,-0.9907,-1.021,-1.0335,-1.0554,-1.0676,-1.0692,-1.0476,-1.0257,-1.0257,-0.9364,-0.8752,-0.8421,-0.7744,-0.7655,-0.7972,-0.8346,-0.8274,-0.8167,-0.8494,-0.8564,-0.8382,-0.8378,-0.8338,-0.841,-0.8648,-0.8613,-0.8772,-0.8914,-0.9076,-0.9079,-0.9332,-0.9457,-0.9457,-0.9822,-0.9819,-0.9822,-0.9822,-0.9339,-0.8854,-0.8491,-0.8119,-0.7872,-0.7872,-0.7872,-0.7872,-0.7872,-0.7872,-0.775,-0.7508,-0.7143,-0.6775,-0.6528,-0.5912,-0.5421,-0.5421,-0.4807,-0.4438,-0.4439,-0.4196,-0.395,-0.395,-0.395,-0.4071,-0.4438,-0.4438,-0.4685,-0.4933,-0.4555,-0.4427,-0.4427,-0.4419,-0.4295,0.0,0.0,0.0,0.0,0.0,0.0,-0.5807,-0.6414,-0.6883,0.0,0.0,0.0,0.0,0.0,0.0,0.0,0.0,0.0,0.0,0.0,0.0,0.0,0.0,0.0,0.0,0.0,-0.5452,-0.5529,-0.5937,-0.6539,-0.7344,-0.7444,-0.7743,-0.8233,-0.8261,-0.8539,-0.8976,-0.9039,-0.9242,-0.9583,-0.9723,-1.0024,-1.0377,-1.0377,-1.0562,-1.0692,-1.0476,-1.0257,-1.0257,-0.9596,-0.9147,-0.8863,-0.8171,-0.7957,-0.809,-0.8447,-0.8552,-0.8616,-0.8977,-0.9087,-0.9027,-0.8828,-0.8858,-0.9051,-0.9108,-0.9093,-0.9218,-0.9724,-0.9768,-0.9915,-1.0393,-1.0304,-1.0065,-1.0183,-0.994,-0.9822,-0.9822,-0.9457,-0.9095,-0.8854,-0.8363,-0.7872,-0.7872,-0.7872,-0.7872,-0.7872,-0.7872,-0.7869,-0.7872,-0.7266,-0.69,-0.6775,-0.6162,-0.5669,-0.5421,-0.5298,-0.5053,-0.481,-0.4439,-0.4316,-0.4316,-0.4316,-0.4316,-0.4438,-0.493,-0.5176,-0.5298,-0.487,-0.472,-0.472,-0.4659,-0.4633,0.0,0.0,0.0,-0.4146,0.0,0.0,0.0,-0.6488,-0.7087,0.0,0.0,0.0,0.0,0.0,0.0,0.0,0.0,0.0,0.0,0.0,0.0,0.0,0.0,0.0,0.0,0.0,-0.5526,-0.5771,-0.6551,-0.7136,-0.753,-0.7892,-0.8224,-0.8514,-0.8587,-0.8667,-0.8952,-0.9135,-0.9426,-0.9614,-0.9808,-1.0104,-1.0302,-1.0391,-1.0481,-1.057,-1.0546,-1.0472,-1.0476,-1.0036,-0.9754,-0.9615,-0.8752,-0.8314,-0.8316,-0.867,-0.874,-0.8662,-0.9091,-0.9106,-0.9035,-0.896,-0.9099,-0.9283,-0.9356,-0.9713,-1.0084,-1.0285,-1.0369,-1.0573,-1.0771,-1.0729,-1.0547,-1.0547,-1.0304,-1.0061,-1.0061,-0.97,-0.9217,-0.8976,-0.8485,-0.8119,-0.7872,-0.7872,-0.7872,-0.7872,-0.7872,-0.7872,-0.763,-0.7266,-0.6778,-0.6653,-0.6162,-0.5794,-0.5669,-0.5544,-0.5298,-0.5177,-0.4808,-0.4685,-0.4685,-0.4685,-0.4685,-0.493,-0.5382,-0.5604,-0.5604,-0.5355,-0.5099,-0.5056,-0.4859,-0.4707,0.0,0.0,0.0,0.0,0.0,-0.5184,0.0,0.0,0.0,-0.7416,0.0,0.0,0.0,0.0,0.0,0.0,0.0,0.0,0.0,0.0,0.0,0.0,0.0,0.0,0.0,0.0,-0.5735,-0.6202,-0.6973,-0.746,-0.7553,-0.8167,-0.8542,-0.8638,-0.8762,-0.8841,-0.8875,-0.931,-0.9501,-0.9536,-0.9887,-1.0182,-1.0223,-1.0404,-1.0506,-1.0551,-1.0728,-1.0802,-1.0802,-1.0472,-1.0366,-1.0162,-0.9209,-0.8657,-0.853,-0.8762,-0.88,-0.8697,-0.912,-0.9147,-0.9047,-0.9047,-0.9268,-0.9621,-0.9745,-1.0213,-1.0784,-1.0934,-1.1049,-1.1176,-1.1244,-1.1125,-1.0993,-1.1023,-1.0668,-1.0425,-1.0304,-0.9822,-0.9335,-0.8976,-0.8732,-0.8366,-0.7994,-0.7872,-0.7872,-0.7872,-0.7872,-0.775,-0.7508,-0.7143,-0.6775,-0.6528,-0.6162,-0.5916,-0.5916,-0.5669,-0.5544,-0.5544,-0.5177,-0.5056,-0.5056,-0.5056,-0.5172,-0.5519,-0.5696,-0.5772,-0.5755,-0.5588,-0.5466,-0.5366,-0.505,-0.478,0.0,0.0,0.0,0.0,-0.4816,0.0,0.0,0.0,-0.7154,-0.7571,0.0,0.0,0.0,0.0,0.0,0.0,0.0,0.0,0.0,0.0,0.0,0.0,0.0,0.0,0.0,0.0,0.0,-0.6923,-0.7225,-0.7485,-0.7945,-0.8188,-0.846,-0.8644,-0.8663,-0.8934,-0.9284,-0.9405,-0.9494,-0.9557,-0.9677,-0.9875,-1.0348,-1.0526,-1.0809,-1.1193,-1.105,-1.1017,-1.1021,-1.0802,-1.0472,-1.0272,-0.943,-0.9047,-0.895,-0.884,-0.8717,-0.8798,-0.9231,-0.9393,-0.9379,-0.9596,-0.9926,-1.026,-1.0496,-1.0847,-1.1117,-1.1509,-1.1686,-1.1781,-1.2117,-1.1867,-1.145,-1.1599,-1.1152,-1.0668,-1.0304,-1.0183,-0.9943,-0.9095,-0.8854,-0.861,-0.7994,-0.7872,-0.7872,-0.7872,-0.7872,-0.7869,-0.7872,-0.7263,-0.69,-0.69,-0.6285,-0.5916,-0.5916,-0.5916,-0.5794,-0.5794,-0.5546,-0.5298,-0.5298,-0.5298,-0.551,-0.5796,-0.5786,-0.5741,-0.5659,-0.5557,-0.5518,-0.5422,-0.5338,-0.53,0.0,0.0,0.0,0.0,0.0,0.0,0.0,0.0,-0.7359,0.0,0.0,0.0,0.0,0.0,0.0,0.0,0.0,0.0,0.0,0.0,0.0,0.0,0.0,0.0,0.0,0.0,0.0,0.0,0.0,-0.7501,-0.7846,-0.8359,-0.8689,-0.8779,-0.9163,-0.9401,-0.9669,-0.9784,-0.9883,-0.9867,-0.9968,-1.016,-1.0349,-1.0647,-1.0932,-1.1133,-1.1108,-1.1126,-1.1131,-1.0802,-1.0582,-1.048,-0.9776,-0.936,-0.9248,-0.8917,-0.8917,-0.913,-0.9289,-0.9485,-0.9706,-1.0036,-1.0257,-1.0582,-1.0802,-1.124,-1.1691,-1.1885,-1.1997,-1.2127,-1.2065,-1.1842,-1.1591,-1.1431,-1.1173,-1.0771,-1.0531,-1.0364,-1.0065,-0.9098,-0.8854,-0.8729,-0.7994,-0.7872,-0.7872,-0.7872,-0.7872,-0.7872,-0.7872,-0.7266,-0.69,-0.69,-0.6287,-0.5916,-0.5916,-0.5916,-0.5916,-0.5916,-0.5794,-0.5669,-0.5669,-0.562,-0.5698,-0.5782,-0.5678,-0.5602,-0.5563,-0.5478,-0.5435,-0.5435,-0.5398,-0.5382,-0.5247,0.0,0.0,0.0,0.0,0.0,0.0,0.0,0.0,0.0,0.0,0.0,0.0,0.0,0.0,0.0,0.0,0.0,0.0,0.0,0.0,0.0,0.0,0.0,0.0,0.0,0.0,0.0,-0.7088,0.0,-0.7716,-0.8388,-0.878,-0.8918,-0.9357,-0.9644,-0.9758,-0.9903,-1.0031,-1.0136,-1.0272,-1.0364,-1.0524,-1.0915,-1.1196,-1.1218,-1.1289,-1.135,-1.124,-1.0907,-1.0802,-1.0688,-0.9983,-0.9665,-0.9489,-0.9047,-0.9158,-0.9379,-0.9489,-0.9677,-0.996,-1.0241,-1.0474,-1.0841,-1.1054,-1.1524,-1.2005,-1.2114,-1.2225,-1.2242,-1.1961,-1.1851,-1.1621,-1.1442,-1.1093,-1.0851,-1.0543,-1.0405,-1.0016,-0.9092,-0.8854,-0.8729,-0.7994,-0.7872,-0.7872,-0.7872,-0.7872,-0.7872,-0.7872,-0.7385,-0.7021,-0.7021,-0.6407,-0.6039,-0.6039,-0.5916,-0.5916,-0.5916,-0.5916,-0.5906,-0.588,-0.5816,-0.5757,-0.5708,-0.5576,-0.5496,-0.5473,-0.541,-0.5382,-0.5382,-0.5382,-0.5382,0.0,0.0,0.0,-0.5352,0.0,0.0,0.0,0.0,-0.7785,0.0,0.0,0.0,0.0,0.0,-0.7866,-0.7747,0.0,0.0,0.0,0.0,0.0,0.0,0.0,0.0,0.0,0.0,0.0,-0.6371,-0.6912,0.0,-0.7744,-0.8091,-0.8534,-0.8874,-0.8891,-0.9083,-0.947,-0.9479,-0.9763,-1.0132,-1.014,-1.0334,-1.0815,-1.1221,-1.1507,-1.1737,-1.1935,-1.1787,-1.1568,-1.124,-1.0907,-1.0676,-0.9854,-0.9671,-0.9706,-0.9158,-0.9158,-0.9489,-0.9706,-1.0043,-1.0309,-1.0237,-1.0509,-1.098,-1.1193,-1.1639,-1.2005,-1.2327,-1.2441,-1.2388,-1.2265,-1.2091,-1.1803,-1.1757,-1.1228,-1.0701,-1.0517,-1.0321,-0.9895,-0.9073,-0.8854,-0.8729,-0.7994,-0.7872,-0.7872,-0.7872,-0.7872,-0.7872,-0.7872,-0.763,-0.7385,-0.7385,-0.6771,-0.6403,-0.6403,-0.6037,-0.5916,-0.5916,-0.5916,-0.5878,-0.579,-0.5782,-0.5698,-0.552,-0.551,-0.5467,-0.5386,-0.5382,-0.5382,-0.5382,-0.5382,-0.5382,0.0,0.0,-0.5555,-0.5785,0.0,0.0,0.0,0.0,0.0,0.0,0.0,0.0,0.0,0.0,-0.7901,-0.7842,-0.7842,-0.7764,0.0,0.0,0.0,0.0,0.0,0.0,0.0,0.0,0.0,-0.6501,-0.6857,-0.7159,0.0,-0.8121,-0.8572,-0.8926,-0.9401,-0.9691,-0.9795,-1.0112,-1.0318,-1.0403,-1.0545,-1.0807,-1.111,-1.1527,-1.1714,-1.1841,-1.1935,-1.1896,-1.1568,-1.1236,-1.0841,-1.0405,-1.0015,-0.9854,-0.9716,-0.9291,-0.9286,-0.9706,-1.0257,-1.0361,-1.0424,-1.0363,-1.0514,-1.0674,-1.0779,-1.1124,-1.1599,-1.1599,-1.1797,-1.18,-1.1542,-1.1444,-1.124,-1.0858,-1.0743,-1.0532,-1.012,-1.0123,-0.9888,-0.9313,-0.8976,-0.8732,-0.8366,-0.7997,-0.7872,-0.7872,-0.7872,-0.7872,-0.7872,-0.763,-0.7385,-0.7385,-0.7021,-0.6775,-0.6775,-0.6653,-0.6532,-0.6532,-0.6532,-0.6485,-0.6384,-0.6316,-0.6217,-0.6082,-0.6019,-0.5971,-0.6051,-0.6051,-0.5826,-0.5712,-0.5712,-0.5603,-0.6839,-0.6452,0.0,-0.6328,-0.6652,0.0,-0.7676,0.0,0.0,0.0,0.0,0.0,0.0,0.0,-0.8009,-0.7919,-0.7901,-0.7794,0.0,-0.7198,0.0,0.0,0.0,0.0,0.0,0.0,-0.6346,-0.6536,-0.6728,-0.7128,0.0,0.0,-0.8566,-0.9073,-0.9625,-1.0005,-1.012,-1.0436,-1.0656,-1.0667,-1.0805,-1.102,-1.1208,-1.1553,-1.1751,-1.1836,-1.1972,-1.1833,-1.1568,-1.135,-1.0912,-1.0321,-1.0036,-0.984,-0.9657,-0.94,-0.9562,-1.0017,-1.0442,-1.0432,-1.0318,-1.0188,-1.0211,-1.0372,-1.0471,-1.0711,-1.1093,-1.1269,-1.1375,-1.1376,-1.1004,-1.0911,-1.0802,-1.0253,-1.012,-1.004,-0.9795,-0.9806,-0.9707,-0.9421,-0.9217,-0.8976,-0.8613,-0.8363,-0.8116,-0.7994,-0.7872,-0.7872,-0.7872,-0.775,-0.7627,-0.7627,-0.7263,-0.7021,-0.69,-0.69,-0.69,-0.69,-0.6865,-0.6796,-0.6689,-0.6581,-0.6477,-0.6372,-0.6305,-0.6274,-0.6274,-0.6274,-0.6161,-0.5935,-0.5822,-0.5712]},{"header":{"parameterUnit":"m.s-1","parameterCategory":1,"la1":30.6,"la2":29.2853,"lo1":-89.7004,"lo2":-87.6739,"dy":0.0162,"dx":0.0183,"nx":112,"ny":82,"refTime":"2023-07-04T18:00:00:Z","depth":0,"parameterNumber":3,"parameterNumberName":"V-component_of_WINDS"},"data":[0.0,0.0,0.0,0.0,0.0,0.0,0.0,0.0,0.0,0.0,0.0,0.0,0.0,0.0,0.0,0.0,0.0,0.0,0.0,0.0,0.0,0.0,0.0,0.0,0.0,0.0,0.0,0.0,0.0,0.0,0.0,0.0,0.0,0.0,0.0,0.0,0.0,0.0,0.0,0.0,0.0,0.0,0.0,0.0,0.0,0.0,0.0,0.0,0.0,0.0,0.0,0.0,0.0,0.0,0.0,0.0,0.0,0.0,0.0,0.0,0.0,0.0,0.0,0.0,0.0,0.0,0.0,0.0,0.0,0.0,0.0,0.0,0.0,0.0,0.0,0.0,0.0,0.0,0.0,0.0,0.0,0.0,0.0,0.0,0.0,0.0,0.0,0.0,0.0,0.0,0.0,-2.5095,-2.6795,-2.7733,-2.7599,-2.7714,-2.7395,-2.654,0.0,0.0,0.0,0.0,0.0,0.0,0.0,0.0,0.0,0.0,0.0,0.0,0.0,0.0,0.0,0.0,0.0,0.0,0.0,0.0,0.0,0.0,0.0,0.0,0.0,0.0,0.0,0.0,0.0,0.0,0.0,0.0,0.0,0.0,0.0,0.0,0.0,0.0,0.0,0.0,0.0,0.0,0.0,0.0,0.0,0.0,0.0,0.0,0.0,0.0,0.0,0.0,0.0,0.0,0.0,0.0,0.0,0.0,0.0,0.0,0.0,0.0,0.0,0.0,0.0,0.0,0.0,0.0,0.0,0.0,0.0,0.0,0.0,0.0,0.0,0.0,0.0,0.0,0.0,0.0,0.0,0.0,0.0,0.0,0.0,0.0,0.0,0.0,0.0,0.0,0.0,0.0,0.0,0.0,0.0,0.0,0.0,0.0,0.0,0.0,0.0,0.0,0.0,0.0,-2.3503,-2.5863,-2.7623,-2.8331,-2.759,-2.8135,-2.8195,-2.7376,0.0,0.0,0.0,0.0,0.0,0.0,0.0,0.0,0.0,0.0,0.0,0.0,0.0,0.0,0.0,0.0,0.0,0.0,0.0,0.0,0.0,0.0,0.0,0.0,0.0,0.0,0.0,0.0,0.0,0.0,0.0,0.0,0.0,0.0,0.0,0.0,0.0,0.0,0.0,0.0,0.0,0.0,0.0,0.0,0.0,0.0,0.0,0.0,0.0,0.0,0.0,0.0,0.0,0.0,0.0,0.0,0.0,0.0,0.0,0.0,0.0,0.0,0.0,0.0,0.0,0.0,0.0,0.0,0.0,0.0,0.0,0.0,0.0,0.0,0.0,0.0,0.0,0.0,0.0,0.0,0.0,0.0,0.0,0.0,0.0,0.0,0.0,0.0,0.0,0.0,0.0,0.0,0.0,0.0,0.0,0.0,0.0,0.0,0.0,0.0,0.0,0.0,0.0,-2.406,-2.5759,-2.7354,-2.8657,-2.9223,-2.8825,-2.915,-2.9001,-2.8149,-2.6934,0.0,0.0,0.0,0.0,0.0,0.0,0.0,0.0,0.0,0.0,0.0,0.0,0.0,0.0,0.0,0.0,0.0,0.0,0.0,0.0,0.0,0.0,0.0,0.0,0.0,0.0,0.0,0.0,0.0,0.0,0.0,0.0,0.0,0.0,0.0,0.0,0.0,0.0,0.0,0.0,0.0,0.0,0.0,0.0,0.0,0.0,0.0,0.0,0.0,0.0,0.0,0.0,0.0,0.0,0.0,0.0,0.0,0.0,0.0,0.0,0.0,0.0,0.0,0.0,0.0,0.0,0.0,0.0,0.0,0.0,0.0,0.0,0.0,0.0,0.0,0.0,0.0,0.0,0.0,0.0,0.0,0.0,0.0,0.0,0.0,0.0,0.0,0.0,0.0,0.0,0.0,0.0,0.0,0.0,0.0,0.0,0.0,0.0,0.0,0.0,0.0,0.0,-2.5884,-2.7638,-2.8525,-2.954,-3.0067,-2.9878,-3.0048,-2.9784,-2.8933,-2.807,0.0,0.0,0.0,0.0,0.0,0.0,0.0,0.0,0.0,0.0,0.0,0.0,0.0,0.0,0.0,0.0,0.0,0.0,0.0,0.0,0.0,0.0,0.0,0.0,0.0,0.0,0.0,0.0,0.0,0.0,0.0,0.0,0.0,0.0,0.0,0.0,0.0,0.0,0.0,0.0,0.0,0.0,0.0,0.0,0.0,0.0,0.0,0.0,0.0,0.0,0.0,0.0,0.0,0.0,0.0,0.0,0.0,0.0,0.0,0.0,0.0,0.0,0.0,0.0,0.0,0.0,0.0,0.0,0.0,0.0,0.0,0.0,0.0,0.0,0.0,0.0,0.0,0.0,0.0,0.0,0.0,0.0,0.0,0.0,0.0,0.0,0.0,0.0,0.0,0.0,0.0,0.0,0.0,0.0,0.0,0.0,0.0,0.0,0.0,0.0,0.0,0.0,-2.6242,-2.7638,-2.8525,-2.9996,-3.0619,-2.9864,-3.0487,-3.0581,-2.977,-2.8959,0.0,0.0,0.0,0.0,0.0,0.0,0.0,0.0,0.0,0.0,0.0,0.0,0.0,0.0,0.0,0.0,0.0,0.0,0.0,0.0,0.0,0.0,0.0,0.0,0.0,0.0,0.0,0.0,0.0,0.0,0.0,0.0,0.0,0.0,0.0,0.0,0.0,0.0,0.0,0.0,0.0,0.0,0.0,0.0,0.0,0.0,0.0,0.0,0.0,0.0,0.0,0.0,0.0,0.0,0.0,0.0,0.0,0.0,0.0,0.0,0.0,0.0,0.0,0.0,0.0,0.0,0.0,0.0,0.0,0.0,0.0,0.0,0.0,0.0,0.0,0.0,0.0,0.0,0.0,0.0,0.0,0.0,0.0,0.0,0.0,0.0,0.0,0.0,0.0,0.0,0.0,0.0,0.0,0.0,0.0,0.0,0.0,0.0,0.0,0.0,0.0,0.0,-2.6537,-2.797,0.0,-3.0603,-3.1073,-3.128,-3.1111,-3.0866,-3.0565,0.0,0.0,0.0,0.0,0.0,0.0,0.0,0.0,0.0,0.0,0.0,0.0,0.0,0.0,0.0,0.0,0.0,0.0,0.0,0.0,0.0,0.0,0.0,0.0,0.0,0.0,0.0,0.0,0.0,0.0,0.0,0.0,0.0,0.0,0.0,0.0,0.0,0.0,0.0,0.0,0.0,0.0,0.0,0.0,0.0,0.0,0.0,0.0,0.0,0.0,0.0,0.0,0.0,0.0,0.0,0.0,0.0,0.0,0.0,0.0,0.0,0.0,0.0,0.0,0.0,0.0,0.0,0.0,0.0,0.0,0.0,0.0,0.0,0.0,0.0,0.0,0.0,0.0,0.0,0.0,0.0,0.0,0.0,0.0,0.0,0.0,0.0,0.0,0.0,0.0,0.0,0.0,0.0,0.0,0.0,0.0,0.0,0.0,0.0,0.0,0.0,0.0,-2.6136,-2.733,-2.8743,0.0,-3.143,-3.1862,-3.2144,-3.1919,-3.1543,-3.1017,0.0,0.0,0.0,0.0,0.0,0.0,0.0,0.0,0.0,0.0,0.0,0.0,0.0,0.0,0.0,0.0,0.0,0.0,0.0,0.0,0.0,0.0,0.0,0.0,0.0,0.0,0.0,0.0,0.0,0.0,0.0,0.0,0.0,0.0,0.0,0.0,0.0,0.0,0.0,0.0,0.0,0.0,0.0,0.0,0.0,0.0,0.0,0.0,0.0,0.0,0.0,0.0,0.0,0.0,0.0,0.0,0.0,0.0,0.0,0.0,0.0,0.0,0.0,0.0,0.0,0.0,0.0,0.0,0.0,0.0,0.0,0.0,0.0,0.0,0.0,0.0,0.0,0.0,0.0,0.0,0.0,0.0,0.0,0.0,0.0,0.0,0.0,0.0,0.0,0.0,0.0,0.0,0.0,0.0,0.0,0.0,0.0,0.0,0.0,0.0,0.0,0.0,-2.711,-2.8717,-3.0038,-3.0923,-3.2444,-3.3062,-3.2198,-3.2912,-3.2687,0.0,0.0,0.0,0.0,0.0,0.0,0.0,0.0,0.0,0.0,0.0,0.0,0.0,0.0,0.0,0.0,0.0,0.0,0.0,0.0,0.0,0.0,0.0,0.0,0.0,0.0,0.0,0.0,0.0,0.0,0.0,0.0,0.0,0.0,0.0,0.0,0.0,0.0,0.0,0.0,0.0,0.0,0.0,0.0,0.0,0.0,0.0,0.0,0.0,0.0,0.0,0.0,0.0,0.0,0.0,0.0,0.0,0.0,0.0,0.0,0.0,0.0,0.0,0.0,0.0,0.0,0.0,0.0,0.0,0.0,0.0,0.0,0.0,0.0,0.0,0.0,0.0,0.0,0.0,0.0,0.0,0.0,0.0,0.0,0.0,0.0,0.0,0.0,0.0,0.0,0.0,0.0,0.0,0.0,0.0,0.0,0.0,0.0,0.0,0.0,0.0,0.0,0.0,0.0,-2.9198,-3.058,-3.2543,-3.3183,-3.3636,-3.3975,-3.3692,-3.3258,-3.2749,0.0,0.0,0.0,0.0,0.0,0.0,0.0,0.0,0.0,0.0,0.0,0.0,0.0,0.0,0.0,0.0,0.0,0.0,0.0,0.0,0.0,0.0,0.0,0.0,0.0,0.0,0.0,0.0,0.0,0.0,0.0,0.0,0.0,0.0,0.0,0.0,0.0,0.0,0.0,0.0,0.0,0.0,0.0,0.0,0.0,0.0,0.0,0.0,0.0,0.0,0.0,0.0,0.0,0.0,0.0,0.0,0.0,0.0,0.0,0.0,0.0,0.0,0.0,0.0,0.0,0.0,0.0,0.0,0.0,0.0,0.0,0.0,0.0,0.0,0.0,0.0,0.0,0.0,0.0,0.0,0.0,0.0,0.0,0.0,0.0,0.0,0.0,0.0,0.0,0.0,0.0,0.0,0.0,0.0,0.0,0.0,0.0,0.0,0.0,0.0,0.0,0.0,-2.854,-3.0051,-3.1614,-3.3375,-3.3847,-3.4223,-3.4751,-3.4317,-3.3864,-3.3524,0.0,0.0,0.0,0.0,0.0,0.0,0.0,0.0,0.0,0.0,0.0,0.0,0.0,0.0,0.0,0.0,0.0,0.0,0.0,0.0,0.0,0.0,0.0,0.0,0.0,0.0,0.0,0.0,0.0,0.0,0.0,0.0,0.0,0.0,0.0,0.0,0.0,0.0,0.0,0.0,0.0,0.0,0.0,0.0,0.0,0.0,0.0,0.0,0.0,0.0,0.0,0.0,0.0,0.0,0.0,0.0,0.0,0.0,0.0,0.0,0.0,0.0,0.0,0.0,0.0,0.0,0.0,0.0,0.0,0.0,0.0,0.0,0.0,0.0,0.0,0.0,0.0,0.0,0.0,0.0,0.0,0.0,0.0,0.0,0.0,0.0,0.0,0.0,0.0,0.0,0.0,0.0,0.0,0.0,0.0,0.0,0.0,0.0,0.0,0.0,0.0,0.0,-2.8984,-3.1115,-3.2893,-3.3846,-3.4548,-3.4963,-3.5055,-3.5055,-3.4696,-3.3808,0.0,0.0,0.0,0.0,0.0,0.0,0.0,0.0,0.0,0.0,0.0,0.0,0.0,0.0,0.0,0.0,0.0,0.0,0.0,0.0,0.0,0.0,0.0,0.0,0.0,0.0,0.0,0.0,0.0,0.0,0.0,0.0,0.0,0.0,0.0,0.0,0.0,0.0,0.0,0.0,0.0,0.0,0.0,0.0,0.0,0.0,0.0,0.0,0.0,0.0,0.0,0.0,0.0,0.0,0.0,0.0,0.0,0.0,0.0,0.0,-2.1199,0.0,0.0,0.0,0.0,0.0,0.0,0.0,0.0,0.0,0.0,0.0,0.0,0.0,0.0,0.0,0.0,0.0,0.0,0.0,0.0,0.0,0.0,0.0,0.0,0.0,0.0,0.0,0.0,0.0,0.0,0.0,0.0,0.0,0.0,0.0,0.0,0.0,0.0,0.0,0.0,0.0,-3.0591,-3.1882,-3.3396,-3.5513,-3.5893,-3.6255,-3.6958,-3.7015,-3.6616,-3.5761,0.0,0.0,0.0,0.0,0.0,0.0,0.0,0.0,0.0,0.0,0.0,0.0,0.0,0.0,0.0,0.0,0.0,0.0,0.0,0.0,0.0,0.0,0.0,0.0,0.0,0.0,0.0,0.0,0.0,0.0,0.0,0.0,0.0,0.0,0.0,0.0,0.0,0.0,0.0,0.0,0.0,0.0,0.0,0.0,0.0,0.0,0.0,0.0,0.0,0.0,0.0,0.0,0.0,0.0,0.0,0.0,0.0,0.0,0.0,0.0,0.0,-2.3042,0.0,0.0,0.0,0.0,0.0,0.0,0.0,0.0,0.0,0.0,0.0,0.0,0.0,0.0,0.0,0.0,0.0,0.0,0.0,0.0,0.0,0.0,0.0,0.0,0.0,0.0,0.0,0.0,0.0,0.0,0.0,0.0,0.0,0.0,0.0,0.0,0.0,0.0,0.0,0.0,-3.1221,-3.286,-3.4475,-3.6175,-3.6728,-3.7147,-3.7566,-3.7604,-3.7414,-3.6938,-3.652,0.0,0.0,0.0,0.0,0.0,0.0,0.0,0.0,0.0,0.0,0.0,0.0,0.0,0.0,0.0,0.0,0.0,0.0,0.0,0.0,0.0,0.0,0.0,0.0,0.0,0.0,0.0,0.0,0.0,0.0,0.0,0.0,0.0,0.0,0.0,0.0,0.0,0.0,0.0,0.0,0.0,0.0,0.0,0.0,0.0,0.0,0.0,0.0,0.0,0.0,0.0,0.0,0.0,0.0,-2.9926,-3.0101,-3.087,-3.1231,-3.1081,-2.8267,-2.688,-2.6593,0.0,0.0,0.0,0.0,0.0,0.0,0.0,0.0,0.0,0.0,0.0,0.0,0.0,0.0,0.0,0.0,0.0,0.0,0.0,0.0,0.0,0.0,0.0,0.0,0.0,-3.0141,-3.0045,0.0,0.0,0.0,0.0,0.0,0.0,0.0,0.0,0.0,0.0,0.0,0.0,-3.2023,-3.3938,-3.5689,-3.6953,-3.7716,-3.8251,-3.848,-3.8499,-3.8442,-3.829,-3.8137,-3.7413,0.0,0.0,0.0,0.0,0.0,0.0,0.0,0.0,0.0,0.0,0.0,0.0,0.0,0.0,0.0,0.0,0.0,0.0,0.0,0.0,0.0,0.0,0.0,0.0,0.0,0.0,0.0,0.0,0.0,0.0,0.0,0.0,-2.1232,-2.1402,0.0,0.0,0.0,0.0,0.0,0.0,0.0,0.0,0.0,0.0,0.0,0.0,0.0,0.0,-2.8709,-2.8961,-2.983,-3.1326,-3.156,-3.2052,-3.2785,-3.292,-3.2964,-3.2951,-3.2567,0.0,-3.0123,-3.0131,0.0,0.0,0.0,0.0,0.0,0.0,0.0,0.0,0.0,0.0,0.0,0.0,0.0,0.0,0.0,0.0,0.0,0.0,0.0,0.0,0.0,0.0,-3.0242,-3.1824,-3.2856,-3.3547,0.0,-3.152,-2.944,-2.9594,0.0,0.0,0.0,0.0,0.0,0.0,0.0,0.0,-3.4496,-3.5028,-3.6394,-3.9451,-3.989,-4.054,-4.1991,-4.2106,-4.1781,-4.1017,-4.033,-3.9509,-3.8535,-3.7103,0.0,0.0,0.0,0.0,0.0,0.0,0.0,0.0,0.0,0.0,0.0,0.0,0.0,0.0,0.0,0.0,0.0,0.0,0.0,0.0,0.0,0.0,0.0,0.0,0.0,0.0,0.0,0.0,0.0,-2.1281,-2.1677,-2.2213,-2.2588,-2.2662,0.0,0.0,0.0,0.0,0.0,0.0,0.0,0.0,0.0,-2.8233,-2.9183,-3.0052,-3.0846,-3.1351,-3.1987,-3.2746,-3.3219,-3.3913,-3.4789,-3.5268,-3.5761,-3.6214,-3.624,-3.5836,-3.4983,-3.3048,-3.175,-3.0911,0.0,0.0,0.0,0.0,0.0,-2.8407,-2.873,0.0,0.0,0.0,0.0,0.0,0.0,0.0,0.0,0.0,0.0,0.0,0.0,0.0,0.0,-3.4112,-3.5283,-3.6458,-3.7268,-3.6278,-3.4791,0.0,-3.3087,-3.313,-3.3158,0.0,0.0,0.0,0.0,0.0,-3.5891,-3.7223,-3.8645,-4.0138,-4.1151,-4.2011,-4.2737,-4.2794,-4.2642,-4.224,-4.1934,-4.1397,-4.0555,-3.9348,-3.8278,0.0,0.0,0.0,0.0,0.0,0.0,0.0,0.0,0.0,0.0,0.0,0.0,0.0,0.0,0.0,0.0,0.0,0.0,0.0,0.0,0.0,0.0,0.0,0.0,0.0,0.0,0.0,0.0,-2.1889,-2.2485,-2.3331,-2.3638,-2.3762,0.0,0.0,0.0,0.0,0.0,0.0,-2.6676,-2.8577,-2.987,-3.0358,-3.1579,-3.2477,-3.2975,-3.3631,-3.4171,-3.4613,-3.5275,-3.5937,-3.6585,-3.7233,-3.7887,-3.8492,-3.8492,-3.8492,-3.8297,-3.5753,-3.4179,-3.3399,-3.3395,-3.2842,-3.2007,-3.1992,-3.1919,-3.1796,-3.1806,-3.2289,-3.2917,-3.2961,0.0,-3.2891,-3.274,0.0,0.0,0.0,0.0,-3.2778,-3.301,0.0,-3.5991,-3.6415,-3.7635,-3.8931,-3.9734,-4.0065,-3.9496,0.0,-3.6673,-3.6688,-3.6699,0.0,0.0,0.0,0.0,-3.7721,-3.7878,-3.9517,-4.0823,-4.1246,-4.2393,-4.3235,-4.3465,-4.3465,-4.3465,-4.3465,-4.3311,-4.2946,-4.237,-4.1506,-4.053,-3.9461,0.0,0.0,0.0,0.0,0.0,0.0,0.0,0.0,0.0,0.0,0.0,0.0,0.0,0.0,0.0,0.0,0.0,0.0,0.0,0.0,0.0,0.0,0.0,0.0,0.0,0.0,0.0,0.0,0.0,-2.5072,-2.5909,0.0,0.0,0.0,0.0,-2.64,-2.6553,-2.77,-3.0105,-3.0424,-3.1293,-3.2956,-3.3091,-3.3923,-3.5577,-3.5648,-3.6499,-3.8128,-3.8254,-3.8338,-3.8366,-3.8405,-3.8454,-3.8502,-3.8502,-3.8502,-3.8497,-3.8316,-3.772,-3.6941,-3.6943,-3.6365,-3.5551,-3.5549,-3.5456,-3.5334,-3.5345,-3.583,-3.6454,-3.6435,-3.6491,-3.6402,-3.5639,-3.5433,0.0,0.0,-3.5476,-3.5689,-3.6513,-3.6823,-3.7325,-3.8922,-3.9939,-4.0797,-4.1672,-4.2454,-4.2433,0.0,-4.02,-4.0233,-4.0233,0.0,-4.0239,-4.0239,-4.0284,-4.0578,-4.1347,-4.1543,-4.2253,-4.3825,-4.4077,-4.446,-4.5284,-4.5304,-4.5266,-4.5266,-4.4557,-4.4116,-4.4077,-4.3234,-4.1987,-4.0358,-4.0151,0.0,0.0,0.0,0.0,0.0,0.0,0.0,0.0,0.0,0.0,0.0,0.0,0.0,0.0,0.0,0.0,0.0,0.0,0.0,0.0,0.0,0.0,0.0,0.0,0.0,0.0,0.0,0.0,-2.6043,-2.6909,0.0,0.0,-2.7431,-2.7672,-2.8232,-2.884,-2.9834,-3.1265,-3.2958,-3.4186,-3.485,-3.5957,-3.6848,-3.7479,-3.7467,-3.7805,-3.8468,-3.8488,-3.8798,-3.9346,-3.9331,-3.9648,-4.0199,-4.0764,-4.1018,-4.1057,-4.1618,-4.0671,-3.8862,-3.8838,-3.8926,-3.9082,-3.9034,-3.8926,-3.882,-3.8819,-3.896,-3.915,-3.921,-3.9283,-3.9228,-3.8429,-3.821,-3.8257,-3.8274,-3.8263,-3.8474,-3.9338,-3.9963,-4.0509,-4.1102,-4.1847,-4.2664,-4.3492,-4.3904,-4.4061,-4.3901,-4.2988,-4.2245,-4.2245,-4.2241,-4.2236,-4.2236,-4.2241,-4.2533,-4.3339,-4.392,-4.471,-4.5883,-4.5962,-4.6061,-4.6367,-4.5888,-4.5599,-4.5599,-4.5315,-4.5163,-4.5163,-4.4282,-4.3534,-4.2923,-4.1274,-3.9955,0.0,0.0,0.0,0.0,0.0,0.0,0.0,0.0,0.0,0.0,0.0,0.0,0.0,0.0,0.0,0.0,0.0,0.0,0.0,0.0,0.0,0.0,0.0,0.0,0.0,0.0,-2.6178,-2.7343,-2.8238,-2.8876,-2.9187,-2.9476,-2.9892,-3.0472,-3.111,-3.1951,-3.3055,-3.4787,-3.6015,-3.6651,-3.7805,-3.8541,-3.8831,-3.9156,-3.9481,-3.9799,-4.009,-4.0554,-4.1111,-4.112,-4.1437,-4.2007,-4.2592,-4.2846,-4.2885,-4.345,-4.2837,-4.149,-4.1143,-4.1338,-4.1772,-4.1687,-4.1571,-4.1475,-4.142,-4.1393,-4.1393,-4.147,-4.1577,-4.1582,-4.1062,-4.0974,-4.1015,-4.1011,-4.1025,-4.1149,-4.1766,-4.2286,-4.2661,-4.2673,-4.3294,-4.4103,-4.4927,-4.5316,-4.5667,-4.621,-4.5104,-4.4167,-4.4472,-4.451,-4.4622,-4.4906,-4.4945,-4.5158,-4.5708,-4.6283,-4.6878,-4.7434,-4.7458,-4.7323,-4.7071,-4.652,-4.6066,-4.5746,-4.5735,-4.5722,-4.5706,-4.5095,-4.4639,-4.4338,-4.2074,-4.0718,-4.0342,0.0,0.0,0.0,0.0,0.0,0.0,0.0,0.0,0.0,0.0,0.0,0.0,0.0,0.0,0.0,0.0,0.0,0.0,0.0,0.0,0.0,0.0,0.0,-2.5303,-2.612,-2.7343,-2.9049,-2.9985,-3.0846,-3.1748,-3.2636,-3.3149,-3.318,-3.3267,-3.404,-3.5708,-3.5868,-3.6697,-3.8393,-3.8486,-3.8928,-3.9786,-4.0719,-4.1568,-4.2343,-4.3275,-4.37,-4.3708,-4.3708,-4.3697,-4.3704,-4.3723,-4.3743,-4.3743,-4.3762,-4.4239,-4.4855,-4.3968,-4.3614,-4.3558,-4.3431,-4.333,-4.3254,-4.3126,-4.3124,-4.3185,-4.3269,-4.3363,-4.3485,-4.3539,-4.3592,-4.3642,-4.365,-4.3656,-4.3707,-4.3812,-4.3797,-4.3753,-4.3758,-4.4364,-4.5165,-4.6005,-4.6805,-4.7348,-4.7348,-4.6571,-4.6158,-4.696,-4.7129,-4.7434,-4.8288,-4.8405,0.0,-4.8516,-4.8553,-4.8557,-4.8572,-4.8563,-4.8233,-4.7445,-4.7284,-4.6823,-4.5891,-4.581,-4.5781,-4.5715,-4.5696,-4.5279,-4.4418,-4.2665,-4.133,-4.0432,0.0,0.0,0.0,0.0,0.0,0.0,0.0,0.0,0.0,0.0,0.0,0.0,0.0,0.0,0.0,0.0,0.0,0.0,0.0,0.0,0.0,0.0,-2.5351,-2.5313,-2.7642,-2.9531,-3.0004,-3.1425,-3.2463,-3.2726,-3.3568,-3.4371,-3.5008,-3.5659,-3.6499,-3.7607,-3.8325,-3.8916,-3.9396,-4.059,-4.1376,-4.1646,-4.2534,-4.3105,-4.3319,-4.3582,-4.3708,-4.3708,-4.3697,-4.3704,-4.3743,-4.4367,-4.4641,-4.4699,-4.5324,-4.5683,-4.5752,-4.4878,-4.4857,-4.5306,-4.5151,-4.5032,-4.4927,-4.4893,-4.4925,-4.5005,-4.5061,-4.5183,-4.52,-4.4673,-4.4565,-4.4624,-4.4626,-4.5073,-4.5717,-4.6363,-4.6948,-4.7374,-4.7364,-4.7537,-4.7774,-4.8015,-4.8187,-4.8327,-4.8327,-4.8088,-4.7753,-4.7323,-4.7781,-4.8258,-4.8502,-4.8549,0.0,-4.9506,-4.9593,-4.9828,-5.046,-4.9963,-4.9504,-4.9286,-4.8076,-4.7203,0.0,-4.6247,-4.5854,-4.5852,-4.5805,-4.537,-4.4476,-4.3948,-4.2938,0.0,0.0,0.0,0.0,0.0,0.0,0.0,0.0,0.0,0.0,0.0,0.0,0.0,0.0,0.0,0.0,0.0,0.0,0.0,0.0,0.0,0.0,-2.6815,-2.7528,-2.7489,-2.9186,-3.0711,-3.1446,-3.2791,-3.3799,-3.4186,-3.5055,-3.5962,-3.6849,-3.7397,-3.8059,-3.8936,-3.9505,-4.014,-4.0861,-4.1822,-4.2529,-4.29,-4.3768,-4.4222,-4.4246,-4.4601,-4.4786,-4.479,-4.4797,-4.4797,0.0,-4.5324,-4.5753,-4.6124,-4.6608,-4.6982,0.0,0.0,0.0,0.0,0.0,-4.5976,-4.5586,-4.5586,-4.5635,-4.5715,-4.5786,-4.6138,-4.6465,-4.6068,-4.6255,-4.6587,-4.6583,-4.6989,-4.7519,-4.8002,-4.8469,-4.8803,-4.8808,-4.8806,-4.8897,-4.9263,-4.9313,-4.9289,-4.9284,0.0,0.0,-4.8626,-4.8872,-4.9314,-4.9683,-4.9741,-4.9945,-5.0509,-5.0599,-5.0782,-5.1284,-5.0887,-5.0444,-5.0064,-4.9088,0.0,0.0,0.0,-4.6329,-4.5963,-4.5887,0.0,0.0,0.0,-4.3984,-4.3028,0.0,0.0,0.0,-3.8291,-3.7526,0.0,0.0,0.0,0.0,0.0,0.0,0.0,0.0,0.0,0.0,0.0,0.0,0.0,0.0,0.0,0.0,-2.912,-3.0762,-3.1052,-3.1091,-3.1632,-3.3083,-3.4119,-3.503,-3.5877,-3.6822,-3.7746,-3.8572,-3.8823,-3.9282,-4.0042,0.0,0.0,0.0,0.0,-4.3022,-4.3746,-4.4616,-4.5133,-4.5284,-4.6065,-4.6444,-4.6436,-4.6436,-4.6397,-4.63,-4.6397,-4.6885,-4.7604,-4.7635,-4.8098,-4.8626,-4.7003,-4.6766,-4.7288,-4.7124,-4.6544,0.0,0.0,0.0,0.0,-4.6076,-4.6705,-4.7456,-4.7545,-4.8145,-4.8794,-4.8807,-4.8925,-4.9039,-4.9036,-4.9069,-4.9123,-4.9224,-4.9165,-4.9322,-5.0195,-5.0312,-5.0253,-5.0252,-5.0876,-5.1148,-5.0386,-5.0196,-5.0416,-5.1186,-5.1303,-5.133,-5.1394,-5.1398,-5.1398,-5.1394,0.0,0.0,-5.0315,-5.0104,-4.9354,-4.7798,-4.7456,-4.6948,-4.6189,-4.6011,-4.5968,-4.6065,-4.5304,-4.495,-4.5047,-4.4273,-4.3905,-4.3828,-4.104,-3.975,0.0,0.0,0.0,0.0,0.0,0.0,0.0,0.0,0.0,0.0,0.0,0.0,0.0,0.0,0.0,-2.9691,-3.0859,-3.2369,-3.4475,-3.4775,-3.4622,-3.4197,-3.5582,-3.6645,-3.6841,-3.8272,-3.9292,-3.9526,-4.085,-4.1719,-4.1894,-4.2549,0.0,-4.3431,-4.4075,-4.4479,-4.4663,-4.5501,-4.6306,-4.7008,0.0,0.0,-4.7264,-4.7311,-4.6963,-4.6339,-4.7042,-4.7432,-4.7643,-4.8298,-4.8626,-4.8671,-4.82,-4.805,-4.8071,-4.7981,-4.7815,-4.7605,-4.7679,-4.775,-4.7816,-4.7946,-4.8157,-4.837,-4.8479,-4.8655,0.0,-4.8867,-4.9365,-4.9864,-4.9874,-5.0386,-5.1068,-5.1786,-5.1421,-5.1138,-5.2018,-5.164,-5.1154,-5.1154,-5.1279,-5.1343,-5.1171,-5.1131,-5.1199,-5.1357,-5.1381,-5.1381,-5.1396,-5.1402,-5.1402,-5.1398,-5.1398,-5.134,-5.1164,-5.0484,-4.9912,-4.951,-4.8171,-4.731,-4.7145,-4.6444,-4.6376,-4.7097,-4.694,-4.7184,-4.7833,-4.7658,-4.757,-4.7489,-4.4047,-4.2449,0.0,0.0,0.0,0.0,0.0,0.0,0.0,0.0,0.0,0.0,0.0,-2.7751,0.0,0.0,-3.0938,-3.1799,-3.3057,-3.4354,-3.567,-3.6598,-3.6954,-3.6462,-3.7197,-3.7911,-3.835,-3.9215,-4.0136,-4.1025,-4.1919,-4.2588,-4.3036,-4.3426,-4.3849,-4.4292,-4.4689,-4.5085,-4.5499,-4.5928,-4.6598,-4.7443,-4.7483,-4.7735,-4.8147,-4.8196,-4.7971,-4.7627,-4.8066,-4.8476,-4.8915,-4.9728,-5.0002,-4.9936,-4.9795,-4.9151,-4.8334,-4.8714,-4.8545,-4.8142,-4.8197,-4.8265,-4.8381,-4.847,-4.886,-4.9323,-4.9426,-4.9758,-5.0116,-5.0135,-5.0445,-5.0742,-5.0756,-5.14,-5.2161,-5.2601,-5.2674,-5.2785,-5.3253,-5.2986,-5.2665,-5.2694,-5.2674,-5.2659,-5.2644,-5.2654,-5.237,-5.1537,-5.14,-5.14,-5.1404,-5.1406,-5.1402,-5.1411,-5.1402,-5.1394,-5.1394,-5.0596,-5.0062,-5.0002,-4.8764,-4.8037,-4.8037,-4.7634,-4.7622,-4.8035,-4.8078,-4.8273,-4.865,-4.8651,-4.8642,-4.8604,-4.6768,-4.5641,0.0,0.0,0.0,0.0,0.0,0.0,0.0,0.0,-2.7504,-2.7835,-2.9021,-3.0253,-3.107,-3.209,-3.3015,-3.3721,-3.5279,-3.6454,-3.6629,-3.7868,-3.8792,-3.8909,-3.8785,-3.8948,-3.965,-4.0064,-4.0894,-4.229,-4.2705,-4.3197,-4.3899,-4.4044,-4.4436,-4.5124,-4.5141,-4.5535,-4.6346,-4.6171,-4.6627,-4.7629,-4.7525,-4.7866,-4.8541,-4.8713,-4.8732,-4.8669,-4.8992,-4.9595,-5.0399,-5.1043,-5.1281,-5.1211,-5.1081,-5.0129,-4.8903,-4.9521,-4.9313,-4.8733,-4.8731,-4.8794,-4.8933,-4.9019,-4.9595,-5.0271,-5.0328,-5.0835,-5.1404,-5.1391,-5.1386,-5.138,-5.1375,-5.2032,-5.272,-5.2894,-5.3434,-5.3955,-5.4177,-5.4064,-5.393,-5.3981,-5.3949,-5.3897,-5.3904,-5.3904,-5.3442,-5.2084,-5.1898,-5.1917,-5.1902,-5.1755,-5.1657,-5.1652,-5.1503,-5.1394,-5.1394,-5.0767,-5.0323,-5.0279,-4.9434,-4.8958,-4.8966,-4.8806,-4.8801,-4.8977,-4.9036,-4.91,-4.9224,-4.9223,-4.9208,-4.92,-4.9158,-4.853,-2.6868,-2.5972,-2.5531,-2.6409,-2.6629,-2.7047,0.0,0.0,-2.9648,-3.1191,-3.1676,-3.2061,-3.2949,-3.4432,-3.5578,-3.5681,-3.7117,-3.8482,-3.9243,-3.9535,-3.9945,-4.071,-4.0106,-3.9686,-3.9783,-4.1203,-4.2188,-4.2383,-4.3777,-4.4668,-4.4766,-4.5488,-4.5949,-4.604,-4.6059,-4.6446,-4.7261,-4.6482,-4.6901,-4.8458,-4.7746,-4.7494,-4.7671,-4.845,-4.8415,-4.7823,-4.9328,-5.0454,-5.1258,-5.1347,-5.1342,-5.1278,-5.12,-5.0984,-5.069,-5.067,-5.0617,-5.061,-5.067,-5.0705,-5.0746,-5.0934,-5.1051,-5.1162,-5.1232,-5.1328,-5.1408,-5.1406,-5.1355,-5.1317,-5.1317,-5.196,-5.2799,-5.3579,-5.3832,-5.4111,-5.4909,-5.4456,-5.391,-5.391,-5.3915,-5.39,-5.3903,-5.3903,-5.3832,-5.3657,-5.3668,-5.3704,-5.3717,-5.3022,-5.255,-5.2554,-5.1854,-5.1394,-5.1394,-5.1313,-5.1258,-5.1232,-5.0361,-4.9886,-4.9939,-4.9192,-4.9151,-4.9923,-4.9957,-5.0336,-5.1093,-5.1093,-5.1074,-5.1011,-5.1008,-5.0063,-2.7843,-2.7367,0.0,0.0,-2.9148,-2.9632,-3.1373,-3.1772,-3.199,-3.2714,-3.3252,-3.3883,-3.4744,-3.5918,-3.6913,0.0,-3.849,-3.9387,-3.9756,-4.0244,-4.0695,-4.1066,-4.0771,-4.0564,-4.056,-4.1671,-4.2612,-4.3129,-4.4275,-4.5167,-4.5624,-4.6008,-4.6196,-4.6196,-4.6203,-4.6337,-4.6636,-4.6266,-4.6705,-4.7904,-4.7551,-4.7708,-4.8269,-4.863,-4.8899,-4.9179,-5.035,-5.1066,-5.1394,-5.1391,-5.1362,-5.1281,-5.122,-5.1159,-5.1101,-5.0971,-5.0941,-5.0952,-5.099,-5.1043,-5.1136,-5.1265,-5.1336,-5.1359,-5.1386,-5.1394,-5.1381,-5.1343,-5.131,-5.131,-5.13,-5.2317,-5.3455,-5.3813,-5.4708,-5.5558,-5.5884,-5.5672,-5.5418,-5.5404,-5.5408,-5.5411,-5.5408,-5.5408,-5.5416,-5.5411,-5.4619,-5.3991,-5.3996,-5.3686,-5.3258,-5.2758,-5.2378,-5.196,-5.1445,-5.1396,-5.1405,-5.1394,-5.1005,-5.0784,-5.0855,-5.0511,-5.0483,-5.0845,-5.0859,-5.1047,-5.1405,-5.1398,-5.1401,-5.1362,-5.1316,-5.0878,-2.8961,0.0,0.0,-3.0737,-3.1248,-3.1855,-3.3356,-3.3717,-3.3804,-3.4038,-3.4605,-3.5321,-3.6163,-3.7033,0.0,-3.8797,-3.9621,-4.0151,-4.0151,-4.0698,-4.111,-4.1091,-4.1092,-4.1094,-4.1091,-4.2116,-4.3014,-4.3642,-4.4735,-4.5605,-4.6197,-4.6211,-4.6201,-4.6189,-4.6196,-4.6287,-4.6488,-4.6247,-4.6563,-4.7395,-4.7186,-4.743,-4.808,-4.8343,-4.8967,-4.9883,-5.0703,-5.1052,-5.107,-5.1303,-5.1355,-5.131,-5.1248,-5.123,-5.1229,-5.112,-5.1063,-5.1056,-5.1081,-5.1167,-5.1259,-5.1308,-5.1366,-5.1402,-5.1394,-5.1386,-5.1355,-5.1316,-5.1308,-5.1289,-5.1295,-5.2594,-5.3897,-5.391,-5.5279,-5.6558,-5.6509,-5.6497,-5.6498,-5.6496,-5.65,-5.6511,-5.6492,-5.6492,-5.65,-5.6496,-5.5477,-5.4689,-5.4683,-5.4493,-5.4023,-5.3159,-5.2839,-5.2448,-5.1815,-5.1538,-5.1391,-5.14,-5.1349,-5.1343,-5.14,-5.14,-5.1405,-5.1396,-5.1394,-5.1405,-5.1394,-5.1402,-5.1401,-5.1394,-5.1349,-5.132,0.0,0.0,-3.1801,-3.1856,-3.2501,-3.3359,-3.4268,-3.451,-3.4798,-3.5655,-3.589,-3.62,-3.7008,-3.7886,-3.874,-3.9614,-4.0491,-4.1057,-4.1057,-4.1076,-4.1105,-4.1108,-4.1091,-4.1094,0.0,-4.2655,-4.3672,-4.3691,-4.5292,-4.6264,-4.6295,-4.6248,-4.6191,-4.6206,-4.6206,-4.6596,-4.7454,-4.6624,-4.6606,-4.7396,-4.6599,-4.6248,-4.6304,-4.7227,-4.8102,-4.8984,-4.9863,-5.0194,-5.0205,-5.1054,-5.1355,-5.131,-5.1304,-5.1306,-5.1306,-5.1287,-5.1249,-5.1201,-5.1268,-5.1345,-5.1388,-5.1405,-5.1406,-5.1391,-5.1401,-5.1355,-5.131,-5.1308,-5.1304,-5.1295,-5.1306,-5.2598,-5.3908,-5.3904,-5.5229,-5.6509,-5.6509,-5.6497,-5.6498,-5.6496,-5.65,-5.6492,-5.6508,-5.6496,-5.6496,-5.6498,-5.6452,-5.6419,-5.6426,-5.5748,-5.4939,-5.4049,-5.321,-5.2683,-5.2663,-5.1893,-5.1396,-5.1396,-5.14,-5.14,-5.1396,-5.1396,-5.1401,-5.1394,-5.1391,-5.1398,-5.1398,-5.1405,-5.1401,-5.1394,-5.1394,-5.1356,0.0,0.0,-3.2161,-3.3276,-3.3807,-3.4287,-3.5158,-3.5383,-3.5496,-3.5833,-3.5908,-3.6202,-3.703,-3.7449,-3.8116,-3.9555,-4.0043,-4.0433,-4.1018,-4.1091,-4.1096,-4.1105,-4.1105,0.0,0.0,0.0,0.0,-4.3704,-4.5316,-4.6301,-4.6307,-4.6289,-4.6268,-4.6262,-4.6262,-4.6415,-4.6694,-4.6417,-4.6386,-4.6605,-4.6367,-4.6275,-4.6294,-4.7191,-4.7751,-4.8086,-4.8965,-4.9628,-5.0127,-5.0422,-5.085,-5.1361,-5.1382,-5.1362,-5.1374,-5.1374,-5.1355,-5.1335,-5.1359,-5.1375,-5.1405,-5.1406,-5.1396,-5.1381,-5.1355,-5.131,-5.1281,-5.1248,-5.123,-5.122,-5.122,-5.255,-5.3903,-5.3904,-5.5274,-5.6558,-5.6509,-5.6503,-5.6497,-5.6498,-5.651,-5.6503,-5.6491,-5.6491,-5.6498,-5.6491,-5.6491,-5.6517,-5.6553,-5.6339,-5.584,-5.4958,-5.4591,-5.3951,-5.28,-5.2429,-5.2015,-5.1449,-5.1396,-5.1396,-5.141,-5.1401,-5.1406,-5.1394,-5.1391,-5.1398,-5.1398,-5.139,-5.1405,-5.1394,-5.1343,-5.133,-3.17,-3.2319,-3.3045,-3.4129,-3.4662,-3.5087,-3.5639,-3.5791,-3.5803,-3.5852,-3.5879,-3.617,-3.7038,-3.7205,-3.7659,-3.9082,-3.955,-3.9964,-4.053,-4.0881,-4.11,-4.11,-4.11,0.0,0.0,0.0,0.0,-4.3709,-4.5284,-4.6253,-4.6264,-4.6295,-4.6301,-4.6305,-4.6305,-4.6307,-4.6308,-4.6306,-4.6276,-4.6245,-4.6288,-4.6308,-4.6327,-4.6876,-4.7143,-4.7187,-4.8066,-4.8906,-4.9683,-4.998,-5.061,-5.1401,-5.14,-5.1408,-5.1401,-5.1394,-5.1405,-5.1391,-5.1396,-5.1402,-5.1405,-5.1398,-5.139,-5.1394,-5.133,-5.1308,-5.1284,-5.122,-5.1211,-5.1211,-5.123,-5.2325,-5.3513,-5.3852,-5.5065,-5.6207,-5.6455,-5.6494,-5.6509,-5.6504,-5.6504,-5.6504,-5.6511,-5.6517,-5.6542,-5.6528,-5.6542,-5.6548,-5.6582,-5.6595,-5.6387,-5.582,-5.5483,-5.4727,-5.3288,-5.2878,-5.2331,-5.1453,-5.141,-5.1406,-5.1394,-5.1406,-5.1406,-5.1394,-5.1405,-5.1394,-5.1398,-5.1406,-5.14,-5.1394,-5.1336,-5.1303,-3.1913,-3.3131,-3.4408,-3.4447,-3.5087,-3.5707,-3.5707,-3.5747,-3.5791,-3.5791,-3.585,-3.6151,0.0,0.0,-3.7403,-3.8221,-3.9071,-3.9643,-3.9701,-4.0513,-4.111,0.0,0.0,0.0,0.0,0.0,0.0,-4.3743,0.0,-4.6211,-4.6197,-4.6253,-4.63,-4.63,-4.63,-4.63,-4.63,-4.6306,-4.6306,-4.6303,-4.6303,-4.6303,-4.6303,-4.6303,-4.6297,-4.6348,-4.7168,-4.8027,-4.8906,-4.9712,-5.0555,-5.1336,-5.1372,-5.14,-5.14,-5.1406,-5.1394,-5.1398,-5.1396,-5.1404,-5.1405,-5.141,-5.1394,-5.1375,-5.1328,-5.1304,-5.1287,-5.122,-5.1211,-5.122,-5.1284,-5.1982,-5.2894,-5.378,-5.4708,-5.5572,-5.6348,-5.6508,-5.6499,-5.6511,-5.6504,-5.6511,-5.6503,-5.6558,-5.661,-5.6606,-5.6606,-5.6606,-5.661,-5.6597,-5.6601,-5.6601,-5.582,-5.4959,-5.4072,-5.319,-5.2335,-5.1453,-5.1394,-5.1394,-5.1394,-5.1394,-5.1394,-5.1398,-5.1394,-5.1405,-5.1398,-5.139,-5.1405,-5.1394,-5.1336,-5.1303,-3.3383,-3.406,-3.4563,-3.5201,-3.5532,-3.5707,-3.5707,-3.5718,-3.5747,-3.5784,-3.581,-3.5893,0.0,0.0,0.0,-3.7378,-3.8241,0.0,-3.9682,-4.0539,0.0,0.0,0.0,-4.1344,-4.1948,-4.2981,0.0,0.0,-4.5598,-4.6189,-4.6195,-4.6231,-4.624,-4.6308,-4.6308,-4.6292,-4.63,-4.6301,-4.6308,-4.6307,-4.6307,-4.6307,-4.6307,-4.6301,-4.6301,-4.6305,-4.6523,-4.7129,-4.8008,-4.8846,-4.9682,-5.0496,-5.1154,-5.1398,-5.1406,-5.139,-5.1394,-5.1402,-5.1406,-5.1394,-5.1401,-5.1394,-5.1362,-5.131,-5.1308,-5.1276,-5.122,-5.1278,-5.123,-5.122,-5.1284,-5.2426,-5.3637,-5.3942,-5.5167,-5.6309,-5.652,-5.6575,-5.6563,-5.6577,-5.6577,-5.6563,-5.6563,-5.6595,-5.6597,-5.6607,-5.6595,-5.6598,-5.6598,-5.6601,-5.6601,-5.6601,-5.582,-5.4941,-5.406,-5.3195,-5.2331,-5.1452,-5.1402,-5.1394,-5.1394,-5.1408,-5.1398,-5.1404,-5.1408,-5.1405,-5.1402,-5.1402,-5.1396,-5.1394,-5.1336,-5.1291,-3.4118,-3.4679,-3.5085,-3.5568,-3.5695,-3.5706,-3.5706,-3.5688,-3.5718,-3.5747,-3.5484,0.0,0.0,0.0,0.0,0.0,0.0,0.0,-3.9117,-4.0266,-4.1071,0.0,-4.1052,0.0,-4.2227,-4.3084,-4.3968,0.0,-4.5703,-4.6196,-4.6196,-4.6209,-4.6226,-4.6255,-4.6284,-4.6288,-4.63,-4.6293,-4.63,-4.6303,-4.6306,-4.6306,-4.6303,-4.6307,-4.6308,-4.6308,0.0,-4.6797,-4.7676,-4.8535,-4.9394,-5.0231,-5.1071,-5.1402,-5.1396,-5.1396,-5.1396,-5.14,-5.1404,-5.1402,-5.1391,-5.1394,-5.1356,-5.131,-5.13,-5.1267,-5.1249,-5.1287,-5.1269,-5.1346,-5.1803,-5.2643,-5.3579,-5.4382,-5.5322,-5.613,-5.652,-5.6591,-5.6489,-5.6098,-5.6333,-5.6477,-5.6108,-5.6347,-5.6597,-5.66,-5.6599,-5.6595,-5.6601,-5.6601,-5.6601,-5.6601,-5.582,-5.4941,-5.4062,-5.3202,-5.2321,-5.1462,-5.14,-5.1396,-5.1396,-5.1402,-5.1406,-5.1405,-5.1403,-5.14,-5.1405,-5.1408,-5.1406,-5.1391,-5.1355,-5.1343,-3.4543,-3.5123,-3.5704,-3.5704,-3.5704,-3.5704,-3.5704,-3.5609,-3.5533,-3.5533,0.0,-3.4545,-3.5243,0.0,-3.4756,-3.5493,0.0,-3.8405,-3.8408,-3.9906,-4.1003,-4.0999,-4.1003,-4.1393,-4.2388,-4.3167,-4.4012,-4.5007,-4.5767,-4.6196,-4.6196,-4.619,-4.6209,-4.6206,-4.6279,-4.6288,-4.63,-4.63,-4.63,-4.63,-4.6295,-4.6295,-4.63,-4.63,-4.6309,-4.63,0.0,0.0,-4.7675,-4.8535,-4.9413,-5.0273,-5.1074,-5.1406,-5.1406,-5.1406,-5.1406,-5.1406,-5.1402,-5.1408,-5.139,-5.1405,-5.1369,-5.131,-5.1292,-5.1295,-5.1295,-5.1295,-5.1393,-5.1654,-5.2493,-5.2877,-5.3415,-5.4943,-5.5391,-5.5673,-5.6442,-5.6513,-5.6181,-5.5298,-5.5747,-5.6012,-5.5253,-5.5751,-5.6255,-5.6255,-5.6241,-5.6308,-5.6406,-5.6523,-5.6601,-5.6601,-5.582,-5.4941,-5.4062,-5.3203,-5.2324,-5.1465,-5.1406,-5.1406,-5.1406,-5.1406,-5.1404,-5.1396,-5.1403,-5.1406,-5.1406,-5.1394,-5.1398,-5.1394,-5.1391,-5.14,-3.5278,-3.5568,-3.5704,-3.5704,-3.5704,-3.5704,-3.5704,-3.5134,0.0,0.0,0.0,-3.348,-3.3616,-3.4119,0.0,-3.4703,0.0,0.0,0.0,0.0,-4.0996,0.0,0.0,0.0,0.0,0.0,0.0,0.0,0.0,0.0,-4.6196,-4.6203,-4.6196,-4.6206,-4.6279,-4.6288,-4.63,-4.63,-4.63,-4.63,-4.6303,-4.6303,-4.63,-4.63,-4.6303,-4.6306,0.0,0.0,-4.7673,-4.8532,-4.938,-5.0209,-5.1068,-5.1404,-5.1406,-5.1406,-5.1406,-5.1406,-5.1402,-5.1408,-5.139,-5.1401,-5.1386,-5.1369,-5.133,-5.1289,-5.1292,-5.1292,-5.183,-5.2414,-5.263,-5.3735,-5.4853,-5.5216,-5.584,-5.6419,-5.656,-5.603,-5.5277,-5.4381,-5.4357,-5.4404,-5.4249,-5.4351,-5.4455,-5.4455,-5.4443,-5.4713,-5.5429,-5.6152,-5.6601,-5.6601,-5.582,-5.4941,-5.4062,-5.3203,-5.2324,-5.1465,-5.1398,-5.1405,-5.1405,-5.1405,-5.1402,-5.1398,-5.1402,-5.1394,-5.1404,-5.1405,-5.1394,-5.1394,-5.1401,-5.1396,-3.5588,-3.5704,-3.5704,-3.5704,-3.5704,-3.5568,-3.5123,0.0,0.0,0.0,0.0,-3.2609,-3.3055,0.0,0.0,0.0,0.0,0.0,0.0,0.0,0.0,0.0,0.0,0.0,0.0,0.0,0.0,0.0,0.0,0.0,-4.6196,-4.6196,-4.641,-4.6869,-4.6947,-4.7174,-4.7608,-4.7608,-4.7608,-4.7608,-4.7608,-4.7608,-4.7608,-4.7647,-4.7647,-4.7647,-4.7647,0.0,-4.8346,-4.9185,-4.9758,-5.0198,-5.1057,-5.1391,-5.1398,-5.1403,-5.1406,-5.1406,-5.1396,-5.1402,-5.1394,-5.1402,-5.1406,-5.138,-5.1355,-5.1336,-5.1394,-5.1842,-5.2282,-5.2816,-5.3767,-5.4619,-5.5371,-5.586,-5.6295,-5.6483,-5.6015,-5.5605,-5.4918,-5.3585,-5.3689,-5.3861,-5.3394,-5.369,-5.3991,-5.401,-5.4006,-5.4158,-5.457,-5.498,-5.5586,-5.6504,-5.582,-5.5136,-5.4718,-5.3468,-5.2513,-5.2107,-5.165,-5.1402,-5.1401,-5.1401,-5.1401,-5.1406,-5.139,-5.1402,-5.1391,-5.1406,-5.1396,-5.1394,-5.141,-5.1152,-3.5403,-3.5549,-3.5704,-3.5704,-3.5549,-3.524,-3.4563,-3.4098,0.0,0.0,-3.2135,-3.1729,-3.2415,0.0,0.0,0.0,0.0,0.0,0.0,0.0,0.0,0.0,0.0,0.0,0.0,0.0,0.0,0.0,0.0,0.0,0.0,-4.6384,-4.6791,-4.7479,-4.7732,-4.815,-4.8798,-4.8798,-4.8798,-4.8798,-4.8798,-4.8798,-4.8798,-4.8857,-4.888,-4.888,-4.888,0.0,0.0,-4.9833,-5.0204,-5.0457,-5.1121,-5.1394,-5.1394,-5.1391,-5.14,-5.1404,-5.1394,-5.1405,-5.1408,-5.1394,-5.1402,-5.1401,-5.1396,-5.1361,-5.1499,-5.237,-5.274,-5.3234,-5.4807,-5.5385,-5.5728,-5.6426,-5.6593,-5.6308,-5.5254,-5.5019,-5.4512,-5.2754,-5.3138,-5.35,-5.2812,-5.3418,-5.4003,-5.4005,-5.3845,-5.3796,-5.3984,-5.3847,-5.4315,-5.5878,-5.5428,-5.4954,-5.4752,-5.3483,-5.2608,-5.2426,-5.1782,-5.1402,-5.1405,-5.1405,-5.1411,-5.1396,-5.1406,-5.139,-5.1394,-5.1406,-5.1398,-5.1394,-5.1394,-5.1023,-3.4433,-3.5044,-3.5704,-3.5704,-3.5104,-3.4505,-3.4408,0.0,0.0,-3.1941,-3.1235,-3.0645,-3.0721,-3.1332,0.0,0.0,0.0,0.0,0.0,0.0,0.0,0.0,0.0,0.0,0.0,0.0,0.0,0.0,0.0,0.0,0.0,-4.6943,-4.7429,-4.7489,-4.8274,-4.8732,-4.8798,-4.8798,-4.8798,-4.8798,-4.8798,-4.8798,-4.8798,-4.8818,-4.8805,-4.8814,0.0,0.0,0.0,-5.0067,-5.0575,-5.1297,-5.1375,-5.1394,-5.1394,-5.1398,-5.1398,-5.1405,-5.1403,-5.1406,-5.1405,-5.1408,-5.1402,-5.1408,-5.1394,-5.1406,-5.1567,-5.2453,-5.3228,-5.4008,-5.5034,-5.584,-5.643,-5.6563,-5.6593,-5.6133,-5.4473,-5.4121,-5.3594,-5.1855,-5.2226,-5.2793,-5.2715,-5.3418,-5.4004,-5.4004,-5.3339,-5.3105,-5.3906,-5.3312,-5.3178,-5.4135,-5.4174,-5.3803,-5.3014,-5.28,-5.2362,-5.1581,-5.145,-5.1405,-5.1401,-5.1388,-5.1405,-5.1396,-5.1396,-5.1401,-5.1394,-5.1403,-5.1402,-5.1394,-5.1394,-5.1355,-3.416,-3.4569,-3.487,-3.4911,-3.4659,-3.4118,-3.3073,0.0,0.0,-3.1119,-3.0742,-3.05,-3.05,-3.0781,-3.1477,-3.287,0.0,0.0,0.0,0.0,0.0,0.0,0.0,0.0,0.0,0.0,0.0,0.0,0.0,0.0,0.0,-4.7033,-4.7747,-4.8274,-4.9142,-4.9829,-5.036,-5.036,-5.036,-5.036,-5.036,-5.036,-5.036,-5.036,-5.0364,-5.0367,0.0,0.0,0.0,-5.1453,-5.1863,-5.2234,-5.2761,-5.2956,-5.2897,-5.237,-5.2175,-5.212,-5.1587,-5.1398,-5.1402,-5.1394,-5.1408,-5.1402,-5.1394,-5.1406,-5.1689,-5.3089,-5.3713,-5.4279,-5.5664,-5.6294,-5.6577,-5.6582,-5.6593,-5.6269,-5.5058,-5.4785,-5.4414,-5.3203,-5.3242,-5.3476,-5.3486,-5.3766,-5.4004,-5.4004,-5.3262,-5.2832,-5.3164,-5.2451,-5.2058,-5.239,-5.3377,-5.3868,-5.3502,-5.3006,-5.2547,-5.2211,-5.1698,-5.1375,-5.1336,-5.1336,-5.1343,-5.1336,-5.138,-5.1401,-5.1391,-5.1402,-5.1405,-5.1394,-5.1394,-5.1121,-3.2979,-3.3523,-3.3939,-3.4011,-3.3817,-3.3314,0.0,0.0,-3.0955,-3.0578,-3.0307,-3.023,-3.0462,-3.0491,-3.1061,-3.2812,0.0,-3.41,0.0,0.0,0.0,0.0,0.0,0.0,0.0,0.0,0.0,0.0,0.0,0.0,0.0,-4.7033,-4.7903,-4.8762,-4.9907,-5.0789,-5.1394,-5.1394,-5.1394,-5.1394,-5.1394,-5.1394,-5.1394,-5.1394,-5.1394,-5.141,0.0,0.0,0.0,-5.2722,-5.3073,-5.3151,-5.3756,-5.401,-5.3932,-5.3307,-5.3073,-5.2991,-5.2386,-5.2159,-5.2133,-5.1877,-5.1968,-5.2117,-5.1863,-5.1781,-5.2084,-5.3582,-5.4367,-5.5036,-5.6226,-5.6567,-5.6595,-5.6606,-5.6607,-5.6365,-5.5487,-5.5292,-5.5038,-5.418,-5.4219,-5.4374,-5.4379,-5.4601,-5.4763,-5.4765,-5.3808,-5.3086,-5.3086,-5.232,-5.1779,-5.1773,-5.3107,-5.379,-5.3268,-5.2908,-5.2591,-5.2333,-5.1991,-5.1642,-5.131,-5.1303,-5.1303,-5.1291,-5.1362,-5.1396,-5.1394,-5.1402,-5.1406,-5.1405,-5.1398,-5.1058,-3.0447,-3.1703,-3.3037,-3.3109,-3.2482,-3.1825,0.0,0.0,-2.9544,-3.0346,-2.9883,-2.9564,-3.0355,-3.05,-3.1071,-3.2822,-3.3161,0.0,0.0,0.0,0.0,0.0,0.0,0.0,0.0,0.0,0.0,0.0,0.0,0.0,0.0,0.0,-4.7897,-4.8762,-5.0473,-5.1394,-5.1394,-5.1394,-5.1394,-5.1394,-5.1394,-5.1394,-5.1394,-5.1394,-5.141,0.0,0.0,0.0,0.0,-5.3635,-5.399,-5.399,-5.401,-5.401,-5.401,-5.399,-5.3982,-5.3991,-5.3986,-5.3977,-5.383,-5.2977,-5.3274,-5.3815,-5.2956,-5.2683,-5.2878,-5.3743,-5.5231,-5.6591,-5.6582,-5.661,-5.6607,-5.6591,-5.6606,-5.6356,-5.5497,-5.5304,-5.5033,-5.4179,-5.4707,-5.5293,-5.5293,-5.6005,-5.6563,-5.6562,-5.5098,-5.3984,-5.3984,-5.3223,-5.2695,-5.2687,-5.3474,-5.3307,-5.157,-5.2214,-5.2327,-5.1479,-5.2205,-5.2266,-5.133,-5.1289,-5.1289,-5.1291,-5.1375,-5.14,-5.1394,-5.1403,-5.1406,-5.1402,-5.1405,-5.141,-3.0089,-3.0805,-3.1375,-3.2046,-3.1563,-3.0781,-3.0221,0.0,-2.8482,-2.8743,-2.9033,-2.9323,-2.9612,-3.0163,-3.0946,-3.2087,-3.2793,0.0,0.0,0.0,0.0,0.0,0.0,0.0,0.0,0.0,0.0,0.0,0.0,0.0,0.0,0.0,-4.7894,-4.8762,-4.9918,-5.0801,-5.1394,-5.1394,-5.1394,-5.1394,-5.1394,-5.1394,-5.1394,-5.1394,0.0,0.0,0.0,0.0,0.0,-5.4283,-5.4888,-5.4947,-5.5532,-5.5786,-5.5708,-5.5055,-5.4816,-5.4733,-5.4131,-5.3936,-5.3883,-5.3604,-5.3702,-5.3883,-5.3596,-5.3548,-5.3776,-5.463,-5.5704,-5.6606,-5.6591,-5.6595,-5.6595,-5.6606,-5.6606,-5.6528,-5.6243,-5.6185,-5.611,-5.5821,-5.6007,-5.6188,-5.6189,-5.6426,-5.6598,-5.6598,-5.5624,-5.4883,-5.4883,-5.4121,-5.3593,-5.3585,-5.3845,-5.3771,-5.3229,-5.344,-5.347,-5.3196,-5.3395,-5.3397,-5.3084,-5.3072,-5.2792,-5.2204,-5.2253,-5.2005,-5.1396,-5.1402,-5.1403,-5.1402,-5.1405,-5.141,0.0,-2.9203,-2.961,-3.0172,-2.9931,0.0,0.0,0.0,-2.763,-2.7967,-2.8442,-2.8906,-2.9263,-3.0036,-3.0886,-3.1792,-3.2663,0.0,0.0,0.0,0.0,0.0,0.0,0.0,0.0,0.0,0.0,0.0,0.0,0.0,0.0,0.0,-4.7411,-4.8274,-4.9469,-5.0527,-5.1394,-5.1394,-5.1394,-5.1394,-5.1394,-5.1394,-5.1394,-5.1394,0.0,0.0,0.0,0.0,0.0,-5.5064,-5.5786,-5.5845,-5.6391,-5.6606,-5.6523,-5.5928,-5.5684,-5.5619,-5.5074,-5.4872,-5.4833,-5.4502,-5.4392,-5.4456,-5.4775,-5.4674,-5.465,-5.5532,-5.6177,-5.6606,-5.6606,-5.6606,-5.6606,-5.6606,-5.6582,-5.6558,-5.6558,-5.6553,-5.6553,-5.6558,-5.6552,-5.6563,-5.6568,-5.6554,-5.656,-5.6599,-5.5859,-5.5293,-5.5293,-5.4822,-5.4486,-5.4484,-5.4783,-5.4982,-5.4986,-5.4689,-5.4352,-5.4021,-5.424,-5.4248,-5.3943,-5.391,-5.365,-5.3097,-5.2838,-5.242,-5.1898,-5.1554,-5.1402,-5.14,-5.1405,-5.141,0.0,-2.7103,0.0,0.0,0.0,0.0,0.0,0.0,0.0,0.0,-2.8012,-2.8349,-2.9156,-3.0009,-3.0917,-3.1848,-3.2737,0.0,0.0,0.0,0.0,0.0,0.0,0.0,0.0,0.0,0.0,0.0,0.0,0.0,0.0,0.0,0.0,-4.765,-4.92,-5.0438,-5.1297,-5.1375,-5.1394,-5.1394,-5.1394,-5.1394,-5.1394,-5.1394,0.0,0.0,0.0,0.0,0.0,-5.5879,-5.6606,-5.6606,-5.6606,-5.6606,-5.6582,-5.6514,-5.6497,-5.6498,-5.6496,-5.6488,-5.6371,-5.556,-5.5294,-5.5432,-5.6244,-5.5923,-5.548,-5.6348,-5.6606,-5.6606,-5.6606,-5.6606,-5.6606,-5.6606,-5.6558,-5.6509,-5.6509,-5.6497,-5.6511,-5.6497,-5.6503,-5.6509,-5.6504,-5.6508,-5.652,-5.6581,-5.5918,-5.539,-5.539,-5.5397,-5.5384,-5.5399,-5.613,-5.6606,-5.6606,-5.5864,-5.5044,-5.4244,-5.4899,-5.4967,-5.4206,-5.4117,-5.4053,-5.3988,-5.3147,-5.2704,-5.2704,-5.1823,-5.1406,-5.14,-5.1464,-5.1488,-2.4643,0.0,-2.7142,-2.7797,-2.7486,0.0,0.0,0.0,0.0,0.0,0.0,0.0,0.0,0.0,0.0,0.0,0.0,0.0,0.0,0.0,0.0,0.0,0.0,0.0,0.0,0.0,0.0,0.0,0.0,0.0,0.0,0.0,0.0,-4.9419,-4.9243,-4.952,-5.0399,-5.1063,-5.1394,-5.1394,-5.1394,-5.1394,-5.1394,-5.1394,0.0,0.0,0.0,0.0,-5.4142,-5.5884,-5.6606,-5.6606,-5.6606,-5.6606,-5.6582,-5.6517,-5.6504,-5.6498,-5.6508,-5.6492,-5.6472,-5.6258,-5.6196,-5.623,-5.6445,-5.6348,-5.6255,-5.6523,-5.6606,-5.6606,-5.6606,-5.6606,-5.6606,-5.6606,-5.6582,-5.6558,-5.6509,-5.6503,-5.6497,-5.6511,-5.6504,-5.6491,-5.6509,-5.6499,-5.6513,-5.6598,-5.6434,-5.628,-5.6289,-5.6292,-5.6292,-5.6282,-5.6474,-5.6606,-5.6606,-5.6411,-5.6216,-5.6001,-5.6172,-5.6167,-5.5923,-5.5948,-5.563,-5.4905,-5.3459,-5.2704,-5.2698,-5.1838,-5.1402,-5.1424,-5.2077,-5.2386,-2.4087,-2.5155,-2.626,-2.6749,-2.6494,-2.6168,0.0,0.0,0.0,0.0,0.0,0.0,0.0,0.0,0.0,0.0,0.0,0.0,0.0,0.0,0.0,0.0,0.0,0.0,0.0,0.0,0.0,0.0,0.0,0.0,0.0,0.0,0.0,0.0,-4.9423,-4.9813,-5.0692,-5.116,-5.1394,-5.1394,-5.1394,-5.1394,-5.1394,-5.141,0.0,0.0,0.0,0.0,-5.4645,-5.5992,-5.6563,-5.6606,-5.6606,-5.6582,-5.6553,-5.6511,-5.6471,-5.6457,-5.6492,-5.6503,-5.6503,-5.6503,-5.6492,-5.65,-5.6488,-5.651,-5.6511,-5.6533,-5.6558,-5.6558,-5.6582,-5.6606,-5.6606,-5.6606,-5.6582,-5.6533,-5.6517,-5.6491,-5.6498,-5.6503,-5.6496,-5.651,-5.6491,-5.6503,-5.6514,-5.6582,-5.6602,-5.6605,-5.6606,-5.6595,-5.6598,-5.6606,-5.6606,-5.6606,-5.6606,-5.6606,-5.6606,-5.6606,-5.6606,-5.6582,-5.6558,-5.6582,-5.6172,-5.526,-5.4367,-5.3708,-5.3294,-5.2817,-5.2591,-5.2596,-5.3083,-5.3302,-2.3825,-2.4754,-2.5515,-2.5522,-2.5524,-2.5564,-2.5751,0.0,0.0,0.0,0.0,0.0,0.0,0.0,0.0,0.0,0.0,0.0,0.0,0.0,0.0,0.0,0.0,0.0,0.0,0.0,0.0,0.0,0.0,0.0,0.0,0.0,0.0,0.0,-4.979,-5.0532,-5.139,-5.1394,-5.1394,-5.139,-5.139,-5.139,-5.141,-5.1401,0.0,0.0,0.0,0.0,-5.5274,-5.6132,-5.6528,-5.6582,-5.6582,-5.6553,-5.6503,-5.6504,-5.6457,-5.6405,-5.6464,-5.6483,-5.6503,-5.6503,-5.6503,-5.6511,-5.6508,-5.6508,-5.6496,-5.6491,-5.6503,-5.6509,-5.6582,-5.6606,-5.6606,-5.6606,-5.6558,-5.6509,-5.6491,-5.6491,-5.6496,-5.6492,-5.6511,-5.65,-5.6498,-5.6504,-5.6517,-5.6582,-5.6598,-5.6598,-5.6606,-5.6606,-5.6606,-5.6606,-5.6606,-5.6606,-5.6606,-5.6606,-5.6606,-5.6606,-5.6606,-5.6606,-5.6606,-5.6606,-5.6255,-5.5513,-5.5376,-5.4947,-5.4209,-5.4066,-5.3999,-5.4004,-5.414,-5.4197,-2.3148,-2.4366,-2.5583,-2.557,-2.557,-2.5771,-2.6527,0.0,0.0,0.0,0.0,0.0,0.0,0.0,0.0,0.0,0.0,0.0,0.0,0.0,0.0,0.0,0.0,0.0,0.0,0.0,0.0,0.0,0.0,0.0,0.0,0.0,0.0,0.0,0.0,-5.0522,-5.138,-5.1406,-5.141,-5.1401,-5.1401,-5.1396,-5.14,-5.14,-5.1849,0.0,0.0,-5.4378,-5.5282,-5.6134,-5.6511,-5.6511,-5.6511,-5.6511,-5.6504,-5.6503,-5.6469,-5.6405,-5.6407,-5.6446,-5.6503,-5.6503,-5.6503,-5.6503,-5.6511,-5.6492,-5.6492,-5.6496,-5.6504,-5.6509,-5.6582,-5.6606,-5.6606,-5.6606,-5.6582,-5.6577,-5.6509,-5.6491,-5.6491,-5.6496,-5.65,-5.65,-5.6498,-5.6504,-5.6517,-5.6582,-5.6606,-5.6606,-5.6606,-5.6606,-5.6606,-5.6606,-5.6606,-5.6606,-5.6606,-5.6606,-5.6606,-5.6606,-5.6606,-5.6606,-5.6606,-5.6606,-5.6547,-5.6391,-5.5689,-5.522,-5.5103,-5.4356,-5.3993,-5.4017,-5.4761,-5.5095,-2.3577,-2.4622,-2.5704,-2.6178,-2.6294,-2.6411,-2.6817,0.0,0.0,0.0,0.0,0.0,0.0,0.0,0.0,0.0,0.0,0.0,0.0,0.0,0.0,0.0,0.0,0.0,0.0,0.0,0.0,0.0,0.0,0.0,0.0,0.0,0.0,0.0,-5.0979,-5.0985,-5.1394,-5.1361,-5.1366,-5.1405,-5.1361,-5.1349,-5.1343,-5.1342,-5.2029,-5.3276,0.0,-5.4613,-5.5876,-5.6274,-5.6476,-5.651,-5.651,-5.6484,-5.6449,-5.6455,-5.6455,-5.6444,-5.6417,-5.6446,-5.6503,-5.6503,-5.6503,-5.6503,-5.6503,-5.6503,-5.6492,-5.6508,-5.6491,-5.6517,-5.6533,-5.6563,-5.6606,-5.6606,-5.6606,-5.6582,-5.6509,-5.6497,-5.6498,-5.6496,-5.6508,-5.6488,-5.6498,-5.6491,-5.6523,-5.6582,-5.6606,-5.6606,-5.6606,-5.6606,-5.6606,-5.6606,-5.6606,-5.6606,-5.6606,-5.6606,-5.6606,-5.6606,-5.6606,-5.6606,-5.6606,-5.6606,-5.6606,-5.6606,-5.6216,-5.6001,-5.6001,-5.5595,-5.5407,-5.5407,-5.5821,-5.5999,-2.4137,-2.4948,-2.5818,-2.6675,-2.6909,-2.6992,-2.7393,0.0,0.0,0.0,0.0,0.0,0.0,0.0,0.0,0.0,0.0,0.0,0.0,0.0,0.0,0.0,0.0,0.0,0.0,0.0,0.0,0.0,0.0,0.0,0.0,0.0,0.0,0.0,-5.1323,-5.1349,-5.1349,-5.1296,-5.1303,-5.1382,-5.133,-5.1296,-5.1269,-5.1276,-5.2095,-5.3516,-5.3711,-5.4665,-5.6115,-5.6329,-5.6435,-5.6472,-5.648,-5.6453,-5.6425,-5.6417,-5.6446,-5.6483,-5.6417,-5.6446,-5.6503,-5.6503,-5.6503,-5.6503,-5.6503,-5.6503,-5.6511,-5.65,-5.6503,-5.6498,-5.6497,-5.6548,-5.6577,-5.6577,-5.6577,-5.6553,-5.6503,-5.6511,-5.6491,-5.6496,-5.6496,-5.6496,-5.6498,-5.6497,-5.6514,-5.6582,-5.6606,-5.6606,-5.6606,-5.6606,-5.6606,-5.6606,-5.6606,-5.6606,-5.6606,-5.6606,-5.6606,-5.6606,-5.6606,-5.6606,-5.6606,-5.6606,-5.6606,-5.6606,-5.6606,-5.6606,-5.6606,-5.6606,-5.6606,-5.6606,-5.6606,-5.6582,-2.4302,-2.4939,-2.5814,-2.6681,-2.6895,0.0,-2.887,-2.9944,0.0,0.0,0.0,0.0,0.0,0.0,0.0,0.0,0.0,0.0,0.0,0.0,0.0,0.0,0.0,0.0,0.0,0.0,0.0,0.0,0.0,0.0,0.0,0.0,0.0,0.0,0.0,-5.1201,-5.1201,-5.122,-5.1239,-5.13,-5.1304,-5.1258,-5.122,-5.1211,-5.1716,-5.2631,-5.3448,-5.4324,-5.5258,-5.6066,-5.6397,-5.6397,-5.6407,-5.6446,-5.6483,-5.6417,-5.6446,-5.6483,-5.6417,-5.6446,-5.6503,-5.6503,-5.6503,-5.6503,-5.6503,-5.6503,-5.6503,-5.6511,-5.65,-5.6503,-5.6498,-5.6504,-5.6504,-5.6504,-5.6504,-5.6504,-5.6504,-5.651,-5.6496,-5.6496,-5.6496,-5.6496,-5.6498,-5.6497,-5.6514,-5.6582,-5.6606,-5.6606,-5.6606,-5.6606,-5.6606,-5.6606,-5.6606,-5.6606,-5.6606,-5.6606,-5.6606,-5.6606,-5.6606,-5.6606,-5.6606,-5.6606,-5.6606,-5.6606,-5.6606,-5.6606,-5.6606,-5.6606,-5.6606,-5.6606,-5.6606,-5.6577,-2.4987,-2.5741,-2.6607,-2.7433,-2.8469,0.0,0.0,-3.0903,0.0,0.0,0.0,0.0,0.0,0.0,0.0,0.0,0.0,0.0,0.0,0.0,0.0,0.0,0.0,0.0,0.0,0.0,0.0,0.0,0.0,0.0,0.0,0.0,0.0,0.0,0.0,-5.1211,-5.1211,-5.119,-5.122,-5.124,-5.1249,-5.122,-5.121,-5.1208,-5.1645,-5.2461,-5.2791,-5.3724,-5.5065,-5.54,-5.5869,-5.6397,-5.6398,-5.6417,-5.6426,-5.6417,-5.6446,-5.6503,-5.6474,-5.6483,-5.6503,-5.6503,-5.6503,-5.6503,-5.6503,-5.6503,-5.6483,-5.6446,-5.6426,-5.6444,-5.6496,-5.6491,-5.6504,-5.6504,-5.6504,-5.6504,-5.6504,-5.651,-5.6496,-5.6496,-5.6496,-5.6496,-5.6503,-5.6511,-5.6509,-5.6533,-5.6563,-5.6606,-5.6606,-5.6606,-5.6606,-5.6606,-5.6606,-5.6606,-5.6606,-5.6606,-5.6582,-5.6533,-5.6582,-5.6582,-5.6533,-5.6533,-5.6528,-5.6542,-5.6542,-5.6542,-5.6542,-5.6542,-5.6542,-5.6542,-5.6542,-5.6517,-2.5459,-2.6242,-2.7087,0.0,0.0,0.0,-3.1397,0.0,0.0,0.0,0.0,0.0,0.0,0.0,0.0,0.0,0.0,0.0,0.0,0.0,0.0,0.0,0.0,0.0,0.0,0.0,0.0,0.0,0.0,0.0,0.0,0.0,0.0,0.0,0.0,0.0,-5.12,-5.1208,-5.1197,-5.1197,-5.1197,-5.1197,-5.1197,-5.1194,-5.1494,-5.2037,-5.229,-5.3222,-5.4601,-5.4898,-5.5555,-5.6397,-5.6398,-5.6417,-5.6426,-5.6426,-5.6455,-5.6503,-5.6503,-5.6503,-5.6503,-5.6503,-5.6503,-5.6503,-5.6503,-5.6503,-5.6483,-5.6417,-5.6388,-5.6417,-5.6455,-5.6461,-5.6476,-5.6476,-5.6484,-5.6503,-5.6503,-5.6496,-5.6508,-5.6508,-5.6508,-5.6496,-5.6496,-5.6498,-5.6497,-5.6497,-5.6548,-5.6572,-5.6572,-5.6577,-5.6582,-5.6606,-5.6582,-5.6563,-5.6563,-5.6577,-5.6548,-5.6503,-5.6548,-5.6548,-5.6503,-5.6497,-5.6497,-5.6504,-5.6504,-5.6504,-5.6504,-5.6504,-5.6504,-5.6504,-5.6504,-5.6342,-2.5591,-2.6237,-2.7115,0.0,0.0,0.0,0.0,0.0,0.0,0.0,0.0,0.0,0.0,0.0,0.0,0.0,0.0,0.0,0.0,0.0,0.0,0.0,0.0,0.0,0.0,0.0,0.0,0.0,0.0,0.0,0.0,0.0,0.0,0.0,0.0,0.0,-5.1202,-5.1202,-5.1202,-5.1202,-5.1202,-5.1202,-5.1202,-5.1202,-5.1202,-5.1241,-5.2037,-5.2892,-5.3766,-5.464,-5.5551,-5.6397,-5.6398,-5.6446,-5.6503,-5.6503,-5.6503,-5.6503,-5.6503,-5.6503,-5.6503,-5.6503,-5.6503,-5.6503,-5.6503,-5.6503,-5.6483,-5.6417,-5.6388,-5.6407,-5.6397,-5.6407,-5.6388,-5.6388,-5.6446,-5.6503,-5.6503,-5.6503,-5.6503,-5.6503,-5.65,-5.6496,-5.6496,-5.651,-5.6504,-5.6504,-5.6504,-5.6504,-5.6504,-5.6497,-5.6533,-5.6582,-5.6533,-5.6509,-5.6509,-5.6491,-5.6504,-5.6504,-5.6504,-5.6504,-5.6504,-5.6504,-5.6504,-5.6504,-5.6504,-5.6504,-5.6504,-5.6504,-5.6504,-5.6504,-5.6504,-5.6023,-2.5595,-2.6679,0.0,0.0,0.0,0.0,0.0,0.0,0.0,0.0,0.0,0.0,0.0,0.0,0.0,0.0,0.0,0.0,0.0,0.0,0.0,0.0,0.0,0.0,0.0,0.0,0.0,0.0,0.0,0.0,0.0,0.0,0.0,0.0,0.0,0.0,-5.1127,-5.1127,-5.1121,-5.1127,-5.1127,-5.1139,-5.1202,-5.1202,-5.1202,-5.1202,-5.1455,-5.2368,-5.3817,-5.5349,-5.6161,-5.6397,-5.6456,-5.6483,-5.6511,-5.65,-5.6508,-5.6508,-5.6508,-5.6508,-5.65,-5.6492,-5.6503,-5.6503,-5.6503,-5.6474,-5.6437,-5.6407,-5.6367,-5.6325,-5.6329,-5.6333,-5.6347,-5.6378,-5.6417,-5.6446,-5.6483,-5.6503,-5.6503,-5.6503,-5.6492,-5.6492,-5.6492,-5.6488,-5.6503,-5.6503,-5.6491,-5.6504,-5.6504,-5.6504,-5.6511,-5.6536,-5.6511,-5.6491,-5.6491,-5.6504,-5.6498,-5.6503,-5.6503,-5.6503,-5.6503,-5.6503,-5.6496,-5.6508,-5.6508,-5.6508,-5.6508,-5.6508,-5.6508,-5.6508,-5.6508,-5.6032,-2.6012,0.0,0.0,0.0,0.0,0.0,0.0,0.0,0.0,0.0,0.0,0.0,0.0,0.0,0.0,0.0,0.0,0.0,0.0,0.0,0.0,0.0,0.0,0.0,0.0,0.0,0.0,0.0,0.0,0.0,0.0,0.0,0.0,0.0,0.0,0.0,-5.0577,-5.0577,-5.0746,-5.1095,-5.1095,-5.1127,-5.1202,-5.1202,-5.1202,-5.1241,-5.1901,-5.2788,-5.3888,-5.5655,-5.6397,-5.6407,-5.6474,-5.6492,-5.65,-5.6508,-5.6496,-5.6503,-5.6496,-5.6496,-5.6488,-5.6492,-5.6503,-5.6503,-5.6503,-5.6474,-5.6437,-5.6397,-5.6375,-5.6333,-5.6304,-5.6304,-5.6321,-5.6347,-5.6378,-5.6417,-5.6446,-5.6455,-5.6455,-5.6455,-5.6465,-5.6456,-5.6456,-5.6465,-5.6455,-5.6455,-5.6472,-5.6461,-5.6469,-5.6449,-5.6457,-5.6464,-5.6457,-5.6449,-5.6449,-5.6461,-5.6453,-5.6455,-5.6455,-5.6464,-5.6472,-5.65,-5.65,-5.6503,-5.6503,-5.6503,-5.6503,-5.6474,-5.6455,-5.6455,-5.6465,-5.5998,0.0,0.0,0.0,0.0,0.0,0.0,0.0,0.0,0.0,0.0,0.0,0.0,0.0,0.0,0.0,0.0,0.0,0.0,0.0,0.0,0.0,0.0,0.0,0.0,0.0,0.0,0.0,0.0,0.0,0.0,0.0,0.0,0.0,0.0,0.0,0.0,-4.9769,-4.9802,-5.0222,0.0,-5.1095,-5.1139,-5.1202,-5.1202,-5.1202,-5.1299,-5.297,-5.3732,-5.393,-5.5675,-5.6407,-5.6417,-5.6474,-5.65,-5.6488,-5.6496,-5.6503,-5.6498,-5.6496,-5.6496,-5.6488,-5.6483,-5.6483,-5.6483,-5.6483,-5.6503,-5.6465,-5.6416,-5.6386,-5.6383,-5.6324,-5.6291,-5.6304,-5.629,-5.6347,-5.6388,-5.6407,-5.6407,-5.6407,-5.6407,-5.6407,-5.6406,-5.6406,-5.6406,-5.6406,-5.6406,-5.6406,-5.6397,-5.6407,-5.6388,-5.6398,-5.6396,-5.6398,-5.6378,-5.6378,-5.6397,-5.6386,-5.6386,-5.6406,-5.6397,-5.6407,-5.6455,-5.6483,-5.6503,-5.6503,-5.6503,-5.6503,-5.6426,-5.6388,-5.6388,-5.6407,-5.594,0.0,0.0,0.0,0.0,0.0,0.0,0.0,0.0,0.0,0.0,0.0,0.0,0.0,0.0,0.0,0.0,0.0,0.0,0.0,0.0,0.0,0.0,0.0,0.0,0.0,0.0,0.0,0.0,0.0,0.0,0.0,0.0,0.0,0.0,0.0,-4.8846,-4.9717,-4.9727,-5.0181,0.0,-5.1108,-5.1136,-5.1197,-5.1194,-5.1202,-5.1299,-5.3032,-5.3783,-5.393,-5.5677,-5.6407,-5.6417,-5.6474,-5.6511,-5.65,-5.6503,-5.651,-5.6496,-5.6496,-5.6469,-5.6425,-5.6427,-5.6427,-5.6427,-5.6427,-5.6377,-5.6336,-5.6333,-5.6321,-5.6317,-5.6291,-5.6291,-5.6291,-5.6304,-5.6321,-5.6336,-5.6397,-5.6397,-5.6397,-5.6397,-5.6397,-5.6406,-5.6406,-5.6406,-5.6406,-5.6406,-5.6406,-5.6386,-5.6397,-5.6356,-5.6325,-5.6317,-5.6263,-5.6251,-5.6251,-5.6283,-5.6314,-5.6314,-5.6375,-5.6397,-5.6397,-5.6407,-5.6446,-5.6503,-5.6503,-5.6503,-5.6503,-5.6426,-5.6388,-5.6388,-5.6407,-5.594,0.0,0.0,0.0,0.0,0.0,0.0,0.0,0.0,0.0,0.0,0.0,0.0,0.0,0.0,0.0,0.0,0.0,0.0,0.0,0.0,0.0,0.0,0.0,0.0,0.0,0.0,0.0,0.0,0.0,0.0,0.0,0.0,0.0,0.0,-4.7603,-4.8247,-4.9117,-4.9514,-5.0162,-5.1108,-5.1108,-5.1144,-5.1189,-5.1208,-5.1197,-5.1303,-5.3044,-5.3794,-5.393,-5.5655,-5.6377,-5.6398,-5.6446,-5.6456,-5.6455,-5.6449,-5.6449,-5.6441,-5.6441,-5.6405,-5.6369,-5.6397,-5.6375,-5.6356,-5.6386,-5.6375,-5.6345,-5.6314,-5.629,-5.6297,-5.6291,-5.6291,-5.6291,-5.6291,-5.6297,-5.6314,-5.6345,-5.6345,-5.6345,-5.6345,-5.6353,-5.6341,-5.6341,-5.6341,-5.6341,-5.6341,-5.6309,-5.6297,-5.6297,-5.6272,-5.6246,-5.6213,-5.6199,-5.6199,-5.6151,-5.6213,-5.6259,-5.6253,-5.6278,-5.6321,-5.6406,-5.6407,-5.6427,-5.6446,-5.6483,-5.6503,-5.6503,-5.6426,-5.6407,-5.6388,-5.6367,-5.6133,0.0,0.0,0.0,0.0,0.0,0.0,0.0,0.0,0.0,0.0,0.0,0.0,0.0,0.0,0.0,0.0,0.0,0.0,0.0,0.0,0.0,0.0,0.0,0.0,0.0,0.0,0.0,0.0,0.0,0.0,0.0,0.0,-4.5995,-4.6131,-4.6829,-4.7694,-4.8701,-4.9393,-5.0176,-5.1102,-5.1108,-5.1144,-5.12,-5.119,-5.119,-5.1306,-5.3036,-5.3783,-5.3899,-5.559,-5.6314,-5.6386,-5.6386,-5.6299,-5.6174,-5.6182,-5.6182,-5.6163,-5.6154,-5.6222,-5.6317,-5.6345,-5.6321,-5.629,-5.6353,-5.6364,-5.6364,-5.6321,-5.629,-5.6309,-5.6304,-5.6291,-5.6291,-5.6291,-5.6297,-5.629,-5.629,-5.629,-5.629,-5.629,-5.6297,-5.6291,-5.6291,-5.6291,-5.6278,-5.6278,-5.6232,-5.6204,-5.6204,-5.6194,-5.6149,-5.6082,-5.6133,-5.6133,-5.6101,-5.6133,-5.618,-5.6204,-5.6199,-5.6239,-5.6375,-5.6386,-5.6397,-5.6407,-5.6474,-5.6503,-5.6503,-5.6426,-5.6398,-5.6397,-5.6345,-5.6345,0.0,0.0,0.0,0.0,0.0,0.0,0.0,0.0,0.0,0.0,0.0,0.0,0.0,0.0,0.0,0.0,0.0,0.0,0.0,0.0,0.0,0.0,0.0,0.0,0.0,0.0,0.0,0.0,0.0,0.0,0.0,-4.5983,-4.6341,-4.7086,-4.7172,-4.7946,-4.9514,-4.9711,-5.0228,-5.1101,-5.1163,-5.12,-5.1201,-5.121,-5.12,-5.1286,-5.2974,-5.372,-5.3837,-5.5527,-5.6239,-5.6314,-5.6314,-5.5878,-5.5268,-5.5278,-5.5269,-5.5268,-5.5208,-5.568,-5.6291,-5.6238,-5.6218,-5.6213,-5.6226,-5.6259,-5.6304,-5.6304,-5.6304,-5.6304,-5.6291,-5.6291,-5.6291,-5.6291,-5.6291,-5.6304,-5.6304,-5.6304,-5.6304,-5.6304,-5.6291,-5.6291,-5.6291,-5.6246,-5.6213,-5.6213,-5.6209,-5.6214,-5.6214,-5.6149,-5.6082,-5.6029,-5.6029,-5.6031,-5.6017,-5.6084,-5.6149,-5.6199,-5.6204,-5.6226,-5.6304,-5.6364,-5.6386,-5.6397,-5.6465,-5.6503,-5.6503,-5.6426,-5.6407,-5.6407,-5.6397,-5.6397,0.0,0.0,0.0,0.0,0.0,0.0,0.0,0.0,0.0,0.0,0.0,0.0,0.0,0.0,0.0,0.0,0.0,0.0,0.0,0.0,0.0,0.0,0.0,0.0,0.0,0.0,0.0,0.0,0.0,0.0,-4.5997,-4.6005,-4.6372,-4.7229,-4.7695,-4.8515,-4.9688,-5.0206,-5.068,-5.1101,-5.1127,-5.1144,-5.1136,-5.1144,-5.1144,-5.1206,-5.2433,-5.3223,-5.3754,-5.4976,-5.5772,-5.6193,-5.5715,-5.5301,-5.4937,-5.4486,-5.4319,-5.4381,-5.4796,-5.5164,-5.5535,-5.6044,-5.6194,-5.619,-5.6199,-5.6246,-5.6291,-5.6291,-5.6291,-5.6291,-5.6291,-5.6291,-5.6291,-5.6291,-5.6278,-5.6246,-5.6246,-5.6246,-5.6232,-5.6238,-5.6238,-5.6238,-5.6238,-5.6223,-5.6209,-5.6209,-5.6164,-5.6149,-5.6149,-5.6082,-5.6029,-5.5996,-5.5995,-5.6014,-5.5999,-5.6033,-5.6082,-5.6199,-5.6194,-5.6218,-5.6297,-5.6364,-5.6397,-5.6398,-5.6465,-5.6503,-5.6503,-5.6474,-5.6446,-5.6388,-5.6398,-5.6398,0.0,0.0,0.0,0.0,0.0,0.0,0.0,0.0,0.0,0.0,0.0,0.0,0.0,0.0,0.0,0.0,0.0,0.0,0.0,0.0,0.0,0.0,0.0,0.0,0.0,0.0,0.0,0.0,0.0,0.0,-4.5997,-4.5997,-4.6469,-4.7507,-4.8141,-4.898,-5.0018,-5.0661,-5.1005,-5.1067,-5.1062,-5.1056,-5.1069,-5.1056,-5.105,-5.1114,-5.1981,-5.2724,-5.3335,-5.4192,-5.4943,-5.5467,-5.4832,-5.4439,-5.42,-5.3586,-5.3372,-5.3482,-5.4283,-5.4667,-5.4936,-5.5858,-5.6149,-5.6164,-5.6156,-5.6218,-5.6265,-5.6265,-5.6278,-5.6278,-5.6278,-5.6291,-5.6291,-5.6278,-5.6246,-5.6199,-5.6204,-5.6204,-5.619,-5.6199,-5.6199,-5.6199,-5.6199,-5.6184,-5.6164,-5.6164,-5.6133,-5.6082,-5.6082,-5.6029,-5.6014,-5.5999,-5.6014,-5.6031,-5.5998,-5.6031,-5.6098,-5.6194,-5.6194,-5.6218,-5.6302,-5.6356,-5.6407,-5.6388,-5.6474,-5.6503,-5.6503,-5.6503,-5.6474,-5.6417,-5.6417,-5.6417,0.0,0.0,0.0,0.0,0.0,0.0,0.0,0.0,0.0,0.0,0.0,0.0,0.0,0.0,0.0,0.0,0.0,0.0,0.0,0.0,0.0,0.0,0.0,0.0,0.0,0.0,0.0,0.0,0.0,0.0,-4.5997,-4.5994,-4.6748,-4.8386,-4.8399,-4.9224,-5.0908,-5.0902,-5.0941,-5.1005,-5.0956,-5.0937,-5.0986,-5.0956,-5.0906,-5.096,-5.19,-5.2322,-5.2438,-5.324,-5.3646,-5.3731,-5.3684,-5.3203,-5.2531,-5.2473,-5.2473,-5.2576,-5.332,-5.4103,-5.4936,-5.5758,-5.6046,-5.6117,-5.6098,-5.6149,-5.6199,-5.6199,-5.6209,-5.6199,-5.6199,-5.6246,-5.6278,-5.6213,-5.6199,-5.6204,-5.6194,-5.6199,-5.6199,-5.6199,-5.6199,-5.6199,-5.6199,-5.6149,-5.6117,-5.6117,-5.6046,-5.6012,-5.6012,-5.6012,-5.6014,-5.5999,-5.6068,-5.6082,-5.6012,-5.6117,-5.6194,-5.6199,-5.6199,-5.6226,-5.6302,-5.6356,-5.6407,-5.6388,-5.6474,-5.6503,-5.6503,-5.6503,-5.6503,-5.6483,-5.6483,-5.6483,0.0,0.0,0.0,0.0,0.0,0.0,0.0,0.0,0.0,0.0,0.0,0.0,0.0,0.0,0.0,0.0,0.0,0.0,0.0,0.0,0.0,0.0,0.0,0.0,0.0,0.0,0.0,0.0,0.0,0.0,-4.5997,-4.5994,-4.6504,-4.7624,-4.8147,-4.9214,-5.0929,-5.0861,-5.0861,-5.0877,-5.0861,-5.0861,-5.0877,-5.0844,-5.0844,-5.0844,-5.1189,-5.165,-5.2191,-5.2481,-5.2942,-5.3423,-5.2961,-5.2584,-5.2346,-5.2346,-5.2346,-5.2526,-5.3859,-5.4539,-5.4926,-5.5741,-5.6065,-5.6098,-5.6098,-5.6149,-5.6199,-5.6199,-5.6214,-5.6194,-5.6194,-5.6209,-5.6209,-5.6094,-5.6059,-5.6062,-5.6068,-5.612,-5.6114,-5.6082,-5.6082,-5.6082,-5.6082,-5.6046,-5.6029,-5.6029,-5.6012,-5.6012,-5.6012,-5.6029,-5.6065,-5.6068,-5.6117,-5.6145,-5.6141,-5.6156,-5.6218,-5.6265,-5.6265,-5.629,-5.6356,-5.6377,-5.6398,-5.6388,-5.6474,-5.6503,-5.6503,-5.6503,-5.6503,-5.6503,-5.6503,-5.6474,0.0,0.0,0.0,0.0,0.0,0.0,0.0,0.0,0.0,0.0,0.0,0.0,0.0,0.0,0.0,0.0,0.0,0.0,0.0,0.0,0.0,0.0,0.0,0.0,0.0,0.0,0.0,0.0,0.0,0.0,-4.6005,-4.5972,-4.6344,-4.7132,-4.8227,-4.9324,-5.0419,-5.0638,-5.0775,-5.0775,-5.0739,-5.0739,-5.0738,-5.0739,-5.072,-5.072,-5.072,-5.1103,-5.1678,-5.1694,-5.2194,-5.2908,-5.2465,-5.2477,-5.2709,-5.2709,-5.2709,-5.2887,-5.4307,-5.46,-5.4542,-5.5644,-5.5855,-5.5714,-5.5985,-5.6098,-5.6133,-5.6133,-5.6149,-5.6184,-5.6184,-5.6149,-5.6098,-5.5975,-5.5977,-5.5979,-5.5981,-5.6016,-5.6048,-5.6012,-5.6012,-5.6012,-5.6012,-5.6012,-5.6012,-5.6012,-5.6012,-5.6012,-5.6012,-5.6065,-5.6098,-5.6098,-5.618,-5.6223,-5.6232,-5.6239,-5.6297,-5.6333,-5.6345,-5.6356,-5.6407,-5.6398,-5.6417,-5.6426,-5.6474,-5.6503,-5.6503,-5.6503,-5.6483,-5.6474,-5.6483,-5.6474,0.0,0.0,0.0,0.0,0.0,0.0,0.0,0.0,0.0,0.0,0.0,0.0,0.0,0.0,0.0,0.0,0.0,0.0,0.0,0.0,0.0,0.0,0.0,0.0,0.0,0.0,0.0,0.0,0.0,-4.6005,-4.6003,-4.5929,-4.6261,-4.7071,-4.8678,-4.9512,-4.95,-5.0257,-5.0682,-5.0701,-5.0624,-5.0604,-5.0606,-5.0604,-5.0603,-5.0603,-5.0606,-5.0663,-5.0793,-5.0863,-5.1363,-5.2097,-5.2253,-5.2787,-5.3488,-5.3526,-5.3526,-5.3662,-5.4501,-5.4252,-5.3807,-5.5412,-5.5412,-5.4948,-5.5722,-5.5993,-5.6012,-5.6012,-5.6065,-5.6098,-5.6098,-5.6065,-5.5975,-5.5902,-5.5885,-5.5905,-5.5905,-5.5962,-5.5999,-5.5995,-5.6012,-5.6012,-5.6012,-5.6012,-5.6012,-5.6012,-5.6012,-5.6012,-5.6012,-5.6065,-5.6098,-5.6098,-5.6223,-5.6291,-5.6291,-5.6353,-5.6406,-5.6397,-5.6397,-5.6407,-5.6388,-5.6388,-5.6426,-5.6503,-5.6503,-5.6503,-5.6503,-5.6503,-5.6474,-5.6388,-5.6474,-5.6503,-2.5541,0.0,0.0,0.0,0.0,0.0,0.0,0.0,0.0,0.0,0.0,0.0,0.0,0.0,0.0,0.0,0.0,0.0,0.0,0.0,0.0,0.0,0.0,0.0,0.0,0.0,0.0,0.0,-4.6005,-4.6003,-4.5991,-4.588,-4.6206,-4.7005,-4.7419,-4.8251,-4.9486,-4.9663,-5.0048,-5.0624,-5.0623,-5.0563,-5.0523,-5.0542,-5.0521,-5.0521,-5.0584,-5.0624,-5.0664,-5.0794,-5.1331,-5.2121,-5.2186,-5.274,-5.3572,-5.4158,-5.4373,-5.4411,-5.459,-5.4513,-5.4281,-5.4165,-5.4378,-5.4706,-5.492,-5.5458,-5.5998,-5.5998,-5.5998,-5.6035,-5.598,-5.5923,-5.5904,-5.5847,-5.5827,-5.5826,-5.5826,-5.5885,-5.5943,-5.598,-5.5996,-5.6012,-5.6012,-5.6012,-5.6012,-5.6012,-5.6012,-5.6012,-5.6012,-5.6098,-5.6164,-5.6164,-5.6238,-5.6317,-5.6364,-5.6395,-5.6427,-5.6465,-5.6465,-5.6465,-5.6474,-5.6474,-5.6483,-5.6503,-5.6503,-5.6474,-5.6417,-5.6474,-5.6483,-5.6474,-5.6446,-5.6455,-2.5616,-2.6163,0.0,0.0,0.0,0.0,0.0,0.0,0.0,0.0,0.0,0.0,0.0,0.0,0.0,0.0,0.0,0.0,0.0,0.0,0.0,0.0,0.0,0.0,0.0,0.0,0.0,0.0,-4.6003,-4.598,-4.5925,-4.5814,-4.5978,-4.6436,-4.675,-4.739,-4.8411,-4.9029,-4.9586,-5.0065,-5.0368,-5.05,-5.0457,-5.0416,-5.0435,-5.0416,-5.0478,-5.0519,-5.0521,-5.0645,-5.1451,-5.2605,-5.271,-5.3478,-5.46,-5.507,-5.5014,-5.4685,-5.4612,-5.413,-5.3532,-5.3416,-5.3455,-5.3686,-5.4381,-5.4978,-5.5479,-5.5865,-5.5962,-5.5924,-5.5885,-5.5846,-5.5846,-5.5766,-5.5766,-5.5766,-5.5766,-5.5826,-5.5905,-5.5981,-5.5996,-5.6012,-5.6012,-5.6012,-5.6012,-5.6012,-5.6012,-5.6012,-5.6029,-5.6133,-5.6199,-5.6209,-5.6259,-5.6309,-5.6345,-5.6377,-5.6417,-5.6455,-5.6483,-5.6503,-5.6503,-5.6503,-5.6483,-5.6455,-5.6455,-5.6437,-5.6398,-5.6437,-5.6455,-5.6455,-5.6417,-5.6446,0.0,-2.56,0.0,0.0,0.0,0.0,-2.9813,-3.1454,-3.2843,0.0,0.0,0.0,0.0,0.0,0.0,0.0,0.0,0.0,0.0,0.0,0.0,0.0,0.0,0.0,0.0,0.0,-4.5878,-4.5972,-4.598,-4.5925,-4.5786,-4.5746,-4.5703,-4.5693,-4.6369,-4.6777,-4.6876,-4.8298,-4.9066,-4.9162,-4.9805,-5.0183,-5.0237,-5.0191,-5.0225,-5.0302,-5.0367,-5.0412,-5.0412,-5.0526,-5.1607,-5.3165,-5.3406,-5.4465,-5.584,-5.5844,-5.5362,-5.4647,-5.4399,-5.332,-5.2183,-5.2895,-5.2644,-5.2356,-5.3841,-5.4381,-5.4612,-5.5499,-5.573,-5.575,-5.5767,-5.5766,-5.5766,-5.5703,-5.5684,-5.5703,-5.5703,-5.5806,-5.5905,-5.5981,-5.5996,-5.6012,-5.6012,-5.6012,-5.6012,-5.6012,-5.6012,-5.6029,-5.6082,-5.6149,-5.6194,-5.6204,-5.6253,-5.6302,-5.6302,-5.6358,-5.6388,-5.6407,-5.6465,-5.6483,-5.6483,-5.6483,-5.6455,-5.6388,-5.6388,-5.6388,-5.6386,-5.63,-5.6252,-5.6252,-5.6154,-5.6144,0.0,0.0,0.0,0.0,0.0,0.0,-2.9194,-3.0505,-3.1703,0.0,0.0,0.0,0.0,0.0,0.0,0.0,0.0,0.0,0.0,0.0,0.0,0.0,0.0,0.0,0.0,0.0,-4.5219,-4.5859,-4.5867,-4.5805,-4.5722,-4.5706,-4.5657,-4.5531,-4.5685,-4.6071,-4.6724,-4.705,-4.7547,-4.8177,-4.8328,-4.8726,-4.935,-4.935,-4.9691,-5.0302,-5.0367,-5.0412,-5.0412,-5.0542,-5.1221,-5.2262,-5.3086,-5.4046,-5.4954,-5.4881,-5.4766,-5.44,-5.2935,-5.2203,-5.1857,-5.1376,-5.1549,-5.1991,-5.2319,-5.2916,-5.3647,-5.4451,-5.4701,-5.4833,-5.5401,-5.5596,-5.566,-5.5618,-5.5662,-5.5703,-5.5703,-5.5766,-5.5846,-5.5905,-5.596,-5.6012,-5.6012,-5.6012,-5.6012,-5.6012,-5.6012,-5.5993,-5.6012,-5.6133,-5.6199,-5.6194,-5.6265,-5.6297,-5.6302,-5.6314,-5.6336,-5.6397,-5.6407,-5.6417,-5.6417,-5.6417,-5.6417,-5.6388,-5.6347,-5.6325,-5.6314,-5.5666,-5.5346,-5.5346,-5.4626,-5.4314,0.0,0.0,0.0,-2.6553,0.0,0.0,0.0,-2.957,-3.0696,0.0,0.0,0.0,0.0,0.0,0.0,0.0,0.0,0.0,0.0,0.0,0.0,0.0,0.0,0.0,0.0,0.0,-4.4207,-4.4589,-4.4501,-4.443,-4.4405,-4.4759,-4.4917,-4.4843,-4.5227,-4.5649,-4.6052,-4.6454,-4.6854,-4.7254,-4.7673,-4.8051,-4.8468,-4.8888,-4.9308,-4.9729,-5.0153,-5.0348,-5.0367,-5.0457,-5.0771,-5.1254,-5.23,-5.3241,-5.4032,-5.3976,-5.3668,-5.3186,-5.2222,-5.1645,-5.1241,-5.0818,-5.0952,-5.1335,-5.1739,-5.2408,-5.3114,-5.3533,-5.3974,-5.4392,-5.4771,-5.5197,-5.5551,-5.5551,-5.5596,-5.564,-5.564,-5.5724,-5.5826,-5.5885,-5.5942,-5.5996,-5.6012,-5.6012,-5.6012,-5.6012,-5.6012,-5.6012,-5.6065,-5.6133,-5.6214,-5.6209,-5.6265,-5.6304,-5.6297,-5.629,-5.6314,-5.6345,-5.6377,-5.6388,-5.6388,-5.6388,-5.6388,-5.6347,-5.5894,-5.5656,-5.5656,-5.4366,-5.4194,-5.5022,-5.4177,-5.3798,0.0,0.0,0.0,0.0,0.0,-2.6669,0.0,0.0,0.0,-2.9472,0.0,0.0,0.0,0.0,0.0,0.0,0.0,0.0,0.0,0.0,0.0,0.0,0.0,0.0,0.0,0.0,-4.284,-4.2775,-4.2815,-4.2852,-4.2835,-4.3537,-4.3943,-4.3924,-4.4557,-4.4959,-4.5132,-4.5762,-4.6181,-4.6353,-4.7019,-4.7395,-4.7586,-4.8426,-4.8904,-4.9114,-4.9935,-5.0278,-5.0278,-5.0348,-5.039,-5.0511,-5.1567,-5.2435,-5.3108,-5.307,-5.2589,-5.1973,-5.1722,-5.1221,-5.0663,-5.0663,-5.0623,-5.0677,-5.1329,-5.1935,-5.2418,-5.2566,-5.3121,-5.3733,-5.4058,-5.468,-5.5265,-5.5418,-5.5527,-5.5573,-5.5596,-5.5703,-5.5787,-5.5885,-5.5924,-5.598,-5.5995,-5.6012,-5.6012,-5.6012,-5.6012,-5.6029,-5.6082,-5.6149,-5.6194,-5.6204,-5.6265,-5.6291,-5.6291,-5.6297,-5.629,-5.629,-5.6345,-5.6375,-5.6375,-5.6375,-5.6286,-5.6037,-5.5352,-5.4912,-5.4757,-5.3164,-5.3118,-5.4482,-5.3669,-5.3302,0.0,0.0,0.0,0.0,-2.5983,0.0,0.0,0.0,-2.7664,-2.7533,0.0,0.0,0.0,0.0,0.0,0.0,0.0,0.0,0.0,0.0,0.0,0.0,0.0,0.0,0.0,0.0,0.0,-4.0823,-4.1505,-4.1915,-4.185,-4.2619,-4.3024,-4.2967,-4.3063,-4.3426,-4.4152,-4.4246,-4.4666,-4.5451,-4.5526,-4.5963,-4.6679,-4.748,-4.8257,-4.8971,-4.9844,-5.0212,-5.0231,-5.0278,-5.0348,-5.0489,-5.1507,-5.1972,-5.2088,-5.2127,-5.2088,-5.1876,-5.1047,-5.068,-5.0603,-5.0542,-5.0478,-5.0432,-5.0463,-5.0488,-5.067,-5.1383,-5.1643,-5.2063,-5.3548,-5.4084,-5.4454,-5.5161,-5.5432,-5.5527,-5.5596,-5.5618,-5.5682,-5.5846,-5.5905,-5.5943,-5.5995,-5.6012,-5.6012,-5.6012,-5.6012,-5.5993,-5.6012,-5.6114,-5.6199,-5.6199,-5.6251,-5.6291,-5.6291,-5.6291,-5.6304,-5.6304,-5.6309,-5.6314,-5.6314,-5.6314,-5.594,-5.5145,-5.5048,-5.4621,-5.3844,-5.2873,-5.2504,-5.269,-5.1874,-5.1505,0.0,0.0,0.0,0.0,0.0,0.0,0.0,0.0,-2.6537,0.0,0.0,0.0,0.0,0.0,0.0,0.0,0.0,0.0,0.0,0.0,0.0,0.0,0.0,0.0,0.0,0.0,0.0,0.0,0.0,-3.9509,-3.9442,-4.0633,-4.1323,-4.1304,-4.22,-4.2848,-4.3169,-4.3683,-4.4122,-4.4505,-4.4963,-4.536,-4.5738,-4.7053,-4.7829,-4.8224,-4.9591,-5.0188,-5.0207,-5.0278,-5.0325,-5.0386,-5.0886,-5.1123,-5.1143,-5.1222,-5.1222,-5.1125,-5.0739,-5.0563,-5.0521,-5.0457,-5.0412,-5.0325,-5.0278,-5.0182,-5.0139,-5.0475,-5.095,-5.1502,-5.2258,-5.287,-5.3385,-5.3779,-5.4312,-5.4771,-5.4818,-5.5247,-5.566,-5.5865,-5.5905,-5.5904,-5.5995,-5.6012,-5.6012,-5.6012,-5.6012,-5.6012,-5.6012,-5.6133,-5.6199,-5.6199,-5.6271,-5.6291,-5.6291,-5.6291,-5.6291,-5.6291,-5.6304,-5.6297,-5.6297,-5.5811,-5.5372,-5.5009,-5.4019,-5.33,-5.2931,-5.2115,-5.1707,-5.1707,-5.1358,-5.1202,-2.9756,0.0,0.0,0.0,0.0,0.0,0.0,0.0,0.0,0.0,0.0,0.0,0.0,0.0,0.0,0.0,0.0,0.0,0.0,0.0,0.0,0.0,0.0,0.0,0.0,0.0,0.0,0.0,-3.6466,0.0,-3.7097,-3.8631,-3.9605,-3.9814,-4.0936,-4.1772,-4.2267,-4.2895,-4.3447,-4.3904,-4.4494,-4.4893,-4.5137,-4.6811,-4.7547,-4.7642,-4.939,-5.0158,-5.0182,-5.0236,-5.0278,-5.0283,-5.0189,-5.031,-5.0582,-5.0663,-5.0643,-5.0603,-5.0582,-5.0368,-5.0074,-4.9778,-4.9809,-4.993,-4.9863,-4.9917,-5.0005,-4.9978,-5.0434,-5.0992,-5.13,-5.1846,-5.2419,-5.2698,-5.3331,-5.3939,-5.4239,-5.4802,-5.5391,-5.5827,-5.5905,-5.5904,-5.5995,-5.6012,-5.6012,-5.6012,-5.6012,-5.6012,-5.6012,-5.6098,-5.6164,-5.6164,-5.6238,-5.6278,-5.6278,-5.6291,-5.6291,-5.6291,-5.6291,-5.6194,-5.5942,-5.534,-5.4776,-5.431,-5.3048,-5.229,-5.2076,-5.1474,-5.1202,-5.1202,-5.1202,-5.1202,0.0,0.0,0.0,-2.8188,0.0,0.0,0.0,0.0,-2.5866,0.0,0.0,0.0,0.0,0.0,-2.4572,-2.4569,0.0,0.0,0.0,0.0,0.0,0.0,0.0,0.0,0.0,0.0,0.0,-3.167,-3.3972,0.0,-3.5293,-3.6877,-3.8099,-3.8823,-3.8899,-3.9737,-4.1431,-4.1469,-4.2286,-4.3885,-4.3923,-4.4319,-4.5048,-4.6738,-4.7473,-4.7517,-4.9238,-5.0057,-5.0108,-5.0182,-5.0236,-5.0225,-4.9537,-4.9752,-5.0521,-5.0643,-5.0643,-5.0582,-5.0521,-4.9918,-4.9025,-4.8162,-4.8403,-4.902,-4.8971,-4.9429,-5.0005,-4.9906,-4.9898,-5.0153,-5.1087,-5.1349,-5.1637,-5.2488,-5.2824,-5.3192,-5.4104,-5.4361,-5.4718,-5.5711,-5.5905,-5.5904,-5.5995,-5.6012,-5.6012,-5.6012,-5.6012,-5.6012,-5.6012,-5.6065,-5.6098,-5.6098,-5.6156,-5.6199,-5.6199,-5.6259,-5.6291,-5.6291,-5.6291,-5.5922,-5.5087,-5.5009,-5.4213,-5.2523,-5.2426,-5.2018,-5.1241,-5.1202,-5.1202,-5.1202,-5.1202,-5.1202,0.0,0.0,-3.1109,-3.0471,0.0,0.0,0.0,0.0,0.0,0.0,0.0,0.0,0.0,0.0,-2.45,-2.4498,-2.4498,-2.4625,0.0,0.0,0.0,0.0,0.0,0.0,0.0,0.0,0.0,-3.0586,-3.2966,-3.4419,0.0,-3.5889,-3.7129,-3.7908,-3.8417,-3.9231,-4.0412,-4.0937,-4.1772,-4.2917,-4.3506,-4.4166,-4.4976,-4.6664,-4.7422,-4.7491,-4.9238,-5.0031,-5.0108,-5.0163,-4.993,-4.9484,-4.9226,-4.8979,-4.8848,-4.9527,-5.0104,-5.0521,-5.0412,-4.9813,-4.9041,-4.8754,-4.8422,-4.8147,-4.8124,-4.8667,-4.9258,-4.9258,-4.9613,-5.0114,-5.0495,-5.0577,-5.0702,-5.1085,-5.1648,-5.2349,-5.3305,-5.3961,-5.4679,-5.5652,-5.5885,-5.5924,-5.598,-5.6014,-5.6012,-5.6012,-5.6012,-5.6012,-5.6012,-5.6065,-5.6098,-5.6098,-5.6164,-5.6194,-5.6194,-5.6209,-5.6243,-5.6243,-5.6243,-5.5835,-5.4962,-5.438,-5.3527,-5.2363,-5.1819,-5.1412,-5.1127,-5.1127,-5.1134,-5.1127,-5.1127,-5.1159,-3.5181,-3.3983,0.0,-3.2555,-3.1293,0.0,-2.995,0.0,0.0,0.0,0.0,0.0,0.0,0.0,-2.4834,-2.4555,-2.45,-2.4534,0.0,-2.4695,0.0,0.0,0.0,0.0,0.0,0.0,-2.8921,-2.9179,-3.1317,-3.2829,0.0,0.0,-3.6027,-3.7432,-3.7898,-3.8688,-3.9848,-4.0352,-4.1203,-4.2389,-4.2939,-4.3791,-4.4952,-4.6335,-4.7131,-4.7472,-4.8927,-4.9765,-5.0108,-5.0158,-4.9735,-4.9083,-4.8783,-4.8365,-4.8003,-4.8929,-4.9773,-5.0361,-4.9656,-4.9079,-4.8544,-4.7933,-4.7529,-4.7274,-4.7232,-4.7819,-4.8533,-4.8814,-4.927,-4.9771,-5.0155,-5.0255,-5.0278,-5.0393,-5.0878,-5.165,-5.285,-5.3563,-5.4355,-5.5554,-5.5826,-5.5885,-5.5962,-5.596,-5.5977,-5.5995,-5.6012,-5.6012,-5.6012,-5.6029,-5.6046,-5.6046,-5.6114,-5.6164,-5.6199,-5.6199,-5.6199,-5.6199,-5.5908,-5.5346,-5.4474,-5.3601,-5.2748,-5.1895,-5.1353,-5.1101,-5.1101,-5.1101,-5.1095,-5.1102,-5.1095,-5.1127]}]]